[[{"header":{"parameterUnit":"m.s-1","parameterCategory":1,"la1":30.6,"la2":28.766,"lo1":-90.7593,"lo2":-88.6598,"dx":0.0162,"dy":0.0183,"nx":116,"ny":114,"refTime":"2023-01-09T06:00:00:Z","depth":0,"parameterNumber":2,"parameterNumberName":"U-component_of_WINDS"},"data":[0.0,0.0,0.0,0.0,0.0,0.0,0.0,0.0,0.0,0.0,0.0,0.0,0.0,0.0,0.0,0.0,0.0,0.0,0.0,0.0,0.0,0.0,0.0,0.0,0.0,0.0,0.0,0.0,0.0,0.0,0.0,0.0,0.0,0.0,0.0,0.0,0.0,0.0,0.0,0.0,0.0,0.0,0.0,0.0,0.0,0.0,0.0,0.0,0.0,0.0,0.0,0.0,0.0,0.0,0.0,0.0,0.0,0.0,0.0,0.0,0.0,0.0,0.0,0.0,0.0,0.0,0.0,0.0,0.0,0.0,0.0,0.0,0.0,0.0,0.0,0.0,0.0,0.0,0.0,0.0,0.0,0.0,0.0,0.0,0.0,0.0,0.0,0.0,0.0,0.0,0.0,0.0,0.0,0.0,0.0,0.0,0.0,0.0,0.0,0.0,0.0,0.0,0.0,0.0,0.0,0.0,0.0,0.0,0.0,0.0,0.0,0.0,0.0,0.0,0.0,0.0,0.0,0.0,0.0,0.0,0.0,0.0,0.0,0.0,0.0,0.0,0.0,0.0,0.0,0.0,0.0,0.0,0.0,0.0,0.0,0.0,0.0,0.0,0.0,0.0,0.0,0.0,0.0,0.0,0.0,0.0,0.0,0.0,0.0,0.0,0.0,0.0,0.0,0.0,0.0,0.0,0.0,0.0,0.0,0.0,0.0,0.0,0.0,0.0,0.0,0.0,0.0,0.0,0.0,0.0,0.0,0.0,0.0,0.0,0.0,0.0,0.0,0.0,0.0,0.0,0.0,0.0,0.0,0.0,0.0,0.0,0.0,0.0,0.0,0.0,0.0,0.0,0.0,0.0,0.0,0.0,0.0,0.0,0.0,0.0,0.0,0.0,0.0,0.0,0.0,0.0,0.0,0.0,0.0,0.0,0.0,0.0,0.0,0.0,0.0,0.0,0.0,0.0,0.0,0.0,0.0,0.0,0.0,0.0,0.0,0.0,0.0,0.0,0.0,0.0,0.0,0.0,0.0,0.0,0.0,0.0,0.0,0.0,0.0,0.0,0.0,0.0,0.0,0.0,0.0,0.0,0.0,0.0,0.0,0.0,0.0,0.0,0.0,0.0,0.0,0.0,0.0,0.0,0.0,0.0,0.0,0.0,0.0,0.0,0.0,0.0,0.0,0.0,0.0,0.0,0.0,0.0,0.0,0.0,0.0,0.0,0.0,0.0,0.0,0.0,0.0,0.0,0.0,0.0,0.0,0.0,0.0,0.0,0.0,0.0,0.0,0.0,0.0,0.0,0.0,0.0,0.0,0.0,0.0,0.0,0.0,0.0,0.0,0.0,0.0,0.0,0.0,0.0,0.0,0.0,0.0,0.0,0.0,0.0,0.0,0.0,0.0,0.0,0.0,0.0,0.0,0.0,0.0,0.0,0.0,0.0,0.0,0.0,0.0,0.0,0.0,0.0,0.0,0.0,0.0,0.0,0.0,0.0,0.0,0.0,0.0,0.0,0.0,0.0,0.0,0.0,0.0,0.0,0.0,0.0,0.0,0.0,0.0,0.0,0.0,0.0,0.0,0.0,0.0,0.0,0.0,0.0,0.0,0.0,0.0,0.0,0.0,0.0,0.0,0.0,0.0,0.0,0.0,0.0,0.0,0.0,0.0,0.0,0.0,0.0,0.0,0.0,0.0,0.0,0.0,0.0,0.0,0.0,0.0,0.0,0.0,0.0,0.0,0.0,0.0,0.0,0.0,0.0,0.0,0.0,0.0,0.0,0.0,0.0,0.0,0.0,0.0,0.0,0.0,0.0,0.0,0.0,0.0,0.0,0.0,0.0,0.0,0.0,0.0,0.0,0.0,0.0,0.0,0.0,0.0,0.0,0.0,0.0,0.0,0.0,0.0,0.0,0.0,0.0,0.0,0.0,0.0,0.0,0.0,0.0,0.0,0.0,0.0,0.0,0.0,0.0,0.0,0.0,0.0,0.0,0.0,0.0,0.0,0.0,0.0,0.0,0.0,0.0,0.0,0.0,0.0,0.0,0.0,0.0,0.0,0.0,0.0,0.0,0.0,0.0,0.0,0.0,0.0,0.0,0.0,0.0,0.0,0.0,0.0,0.0,0.0,0.0,0.0,0.0,0.0,0.0,0.0,0.0,0.0,0.0,0.0,0.0,0.0,0.0,0.0,0.0,0.0,0.0,0.0,0.0,0.0,0.0,0.0,0.0,0.0,0.0,0.0,0.0,0.0,0.0,0.0,0.0,0.0,0.0,0.0,0.0,0.0,0.0,0.0,0.0,0.0,0.0,0.0,0.0,0.0,0.0,0.0,0.0,0.0,0.0,0.0,0.0,0.0,0.0,0.0,0.0,0.0,0.0,0.0,0.0,0.0,0.0,0.0,0.0,0.0,0.0,0.0,0.0,0.0,0.0,0.0,0.0,0.0,0.0,0.0,0.0,0.0,0.0,0.0,0.0,0.0,0.0,0.0,0.0,0.0,0.0,0.0,0.0,0.0,0.0,0.0,0.0,0.0,0.0,0.0,0.0,0.0,0.0,0.0,0.0,0.0,0.0,0.0,0.0,0.0,0.0,0.0,0.0,0.0,0.0,0.0,0.0,0.0,0.0,0.0,0.0,0.0,0.0,0.0,0.0,0.0,0.0,0.0,0.0,0.0,0.0,0.0,0.0,0.0,0.0,0.0,0.0,0.0,0.0,0.0,0.0,0.0,0.0,0.0,0.0,0.0,0.0,0.0,0.0,0.0,0.0,0.0,0.0,0.0,0.0,0.0,0.0,0.0,0.0,0.0,0.0,0.0,0.0,0.0,0.0,0.0,0.0,0.0,0.0,0.0,0.0,0.0,0.0,0.0,0.0,0.0,0.0,0.0,0.0,0.0,0.0,0.0,0.0,0.0,0.0,0.0,0.0,0.0,0.0,0.0,0.0,0.0,0.0,0.0,0.0,0.0,0.0,0.0,0.0,0.0,0.0,0.0,0.0,0.0,0.0,0.0,0.0,0.0,0.0,0.0,0.0,0.0,0.0,0.0,0.0,0.0,0.0,0.0,0.0,0.0,0.0,0.0,0.0,0.0,0.0,0.0,0.0,0.0,0.0,0.0,0.0,0.0,0.0,0.0,0.0,0.0,0.0,0.0,0.0,0.0,0.0,0.0,0.0,0.0,0.0,0.0,0.0,0.0,0.0,0.0,0.0,0.0,0.0,0.0,0.0,0.0,0.0,0.0,0.0,0.0,0.0,0.0,0.0,0.0,0.0,0.0,0.0,0.0,0.0,0.0,0.0,0.0,0.0,0.0,0.0,0.0,0.0,0.0,0.0,0.0,0.0,0.0,0.0,0.0,0.0,0.0,0.0,0.0,0.0,0.0,0.0,0.0,0.0,0.0,0.0,0.0,0.0,0.0,0.0,0.0,0.0,0.0,0.0,0.0,0.0,0.0,0.0,0.0,0.0,0.0,0.0,0.0,0.0,0.0,0.0,0.0,0.0,0.0,0.0,0.0,0.0,0.0,0.0,0.0,0.0,0.0,0.0,0.0,0.0,0.0,0.0,0.0,0.0,0.0,0.0,0.0,0.0,0.0,0.0,0.0,0.0,0.0,0.0,0.0,0.0,0.0,0.0,0.0,0.0,0.0,0.0,0.0,0.0,0.0,0.0,0.0,0.0,0.0,0.0,0.0,0.0,0.0,0.0,0.0,0.0,0.0,0.0,0.0,0.0,0.0,0.0,0.0,0.0,0.0,0.0,0.0,0.0,0.0,0.0,0.0,0.0,0.0,0.0,0.0,0.0,0.0,0.0,0.0,0.0,0.0,0.0,0.0,0.0,0.0,0.0,0.0,0.0,0.0,0.0,0.0,0.0,0.0,0.0,0.0,0.0,0.0,0.0,0.0,0.0,0.0,0.0,0.0,0.0,0.0,0.0,0.0,0.0,0.0,0.0,0.0,0.0,0.0,0.0,0.0,0.0,0.0,0.0,0.0,0.0,0.0,0.0,0.0,0.0,0.0,0.0,0.0,0.0,0.0,0.0,0.0,0.0,0.0,0.0,0.0,0.0,0.0,0.0,0.0,0.0,0.0,0.0,0.0,0.0,0.0,0.0,0.0,0.0,0.0,0.0,0.0,0.0,0.0,0.0,0.0,0.0,0.0,0.0,0.0,0.0,0.0,0.0,0.0,0.0,0.0,0.0,0.0,0.0,0.0,0.0,0.0,0.0,0.0,0.0,0.0,0.0,0.0,0.0,0.0,0.0,0.0,0.0,0.0,0.0,0.0,0.0,0.0,0.0,0.0,0.0,0.0,0.0,0.0,0.0,0.0,0.0,0.0,0.0,0.0,0.0,0.0,0.0,0.0,0.0,0.0,0.0,0.0,0.0,0.0,0.0,0.0,0.0,0.0,0.0,0.0,0.0,0.0,0.0,0.0,0.0,0.0,0.0,0.0,0.0,0.0,0.0,0.0,0.0,0.0,0.0,0.0,0.0,0.0,0.0,0.0,0.0,0.0,0.0,0.0,0.0,0.0,0.0,0.0,0.0,0.0,0.0,0.0,0.0,0.0,0.0,0.0,0.0,0.0,0.0,0.0,0.0,0.0,0.0,0.0,0.0,0.0,0.0,0.0,0.0,0.0,0.0,0.0,0.0,0.0,0.0,0.0,0.0,0.0,0.0,0.0,0.0,0.0,0.0,0.0,0.0,0.0,0.0,0.0,0.0,0.0,0.0,0.0,0.0,0.0,0.0,0.0,0.0,0.0,0.0,0.0,0.0,0.0,0.0,0.0,0.0,0.0,0.0,0.0,0.0,0.0,0.0,0.0,0.0,0.0,0.0,0.0,0.0,0.0,0.0,0.0,0.0,0.0,0.0,0.0,0.0,0.0,0.0,0.0,0.0,0.0,0.0,0.0,0.0,0.0,0.0,0.0,0.0,0.0,0.0,0.0,0.0,0.0,0.0,0.0,0.0,0.0,0.0,0.0,0.0,0.0,0.0,0.0,0.0,0.0,0.0,0.0,0.0,0.0,0.0,0.0,0.0,0.0,0.0,0.0,0.0,0.0,0.0,0.0,0.0,0.0,0.0,0.0,0.0,0.0,0.0,0.0,0.0,0.0,0.0,0.0,0.0,0.0,0.0,0.0,0.0,0.0,0.0,0.0,0.0,0.0,0.0,0.0,0.0,0.0,0.0,0.0,0.0,0.0,0.0,0.0,0.0,0.0,0.0,0.0,0.0,0.0,0.0,0.0,0.0,0.0,0.0,0.0,0.0,0.0,0.0,0.0,0.0,0.0,0.0,0.0,0.0,0.0,0.0,0.0,0.0,0.0,0.0,0.0,0.0,0.0,0.0,0.0,0.0,0.0,0.0,0.0,0.0,0.0,0.0,0.0,0.0,0.0,0.0,0.0,0.0,0.0,0.0,0.0,0.0,0.0,0.0,0.0,0.0,0.0,0.0,0.0,0.0,0.0,0.0,0.0,0.0,0.0,0.0,0.0,0.0,0.0,0.0,0.0,0.0,0.0,0.0,0.0,0.0,0.0,0.0,0.0,0.0,0.0,0.0,0.0,0.0,0.0,0.0,0.0,0.0,0.0,0.0,0.0,0.0,0.0,0.0,0.0,0.0,0.0,0.0,0.0,0.0,0.0,0.0,0.0,0.0,0.0,0.0,0.0,0.0,0.0,0.0,0.0,0.0,0.0,0.0,0.0,0.0,0.0,0.0,0.0,0.0,0.0,0.0,0.0,0.0,0.0,0.0,0.0,0.0,0.0,0.0,0.0,0.0,0.0,0.0,0.0,0.0,0.0,0.0,0.0,0.0,0.0,0.0,0.0,0.0,0.0,0.0,0.0,0.0,0.0,0.0,0.0,0.0,0.0,0.0,0.0,0.0,0.0,0.0,0.0,0.0,0.0,0.0,0.0,0.0,0.0,0.0,0.0,0.0,0.0,0.0,0.0,0.0,0.0,0.0,0.0,0.0,0.0,0.0,0.0,0.0,0.0,0.0,0.0,0.0,0.0,0.0,0.0,0.0,0.0,0.0,0.0,0.0,0.0,0.0,0.0,0.0,0.0,0.0,0.0,0.0,0.0,0.0,0.0,0.0,3.4145,0.0,0.0,0.0,0.0,0.0,0.0,0.0,0.0,0.0,0.0,0.0,0.0,0.0,0.0,0.0,0.0,0.0,0.0,0.0,0.0,0.0,0.0,0.0,0.0,-1.1147,-1.1164,-1.0161,-0.9738,0.0,0.0,0.0,0.0,0.0,0.0,0.0,0.0,0.0,0.0,0.0,0.0,1.8891,2.0871,1.9471,1.858,0.0,0.0,0.0,0.0,0.0,0.0,0.0,0.0,0.0,0.0,0.0,0.0,0.0,0.0,0.0,0.0,0.0,0.0,0.0,0.0,0.0,0.0,0.0,0.0,0.0,0.0,0.0,0.0,0.0,0.0,0.0,0.0,0.0,0.0,0.0,0.0,0.0,0.0,0.0,0.0,0.0,0.0,0.0,0.0,0.0,0.0,0.0,0.0,0.0,0.0,0.0,0.0,0.0,0.0,0.0,0.0,0.0,0.0,0.0,0.0,0.0,0.0,0.0,0.0,0.0,0.0,0.0,0.0,0.0,0.0,0.0,0.0,3.6339,0.0,0.0,0.0,0.0,0.0,0.0,0.0,0.0,0.0,0.0,0.0,0.0,0.0,0.0,0.0,0.0,0.0,0.0,0.0,0.0,0.0,-1.077,-1.1315,-1.1555,-1.1555,-1.127,-1.1052,-1.0559,-0.9609,0.0,0.0,0.0,0.0,0.0,0.0,0.594,0.0,0.0,0.0,0.0,0.0,2.4241,0.0,0.0,0.0,0.0,0.0,0.0,0.0,0.0,0.0,0.0,0.0,0.0,0.0,0.0,0.0,0.0,0.0,0.0,0.0,0.0,0.0,0.0,0.0,0.0,0.0,0.0,0.0,0.0,0.0,0.0,0.0,0.0,0.0,0.0,0.0,0.0,0.0,0.0,0.0,0.0,0.0,0.0,0.0,0.0,0.0,0.0,0.0,0.0,0.0,0.0,0.0,0.0,0.0,0.0,0.0,0.0,0.0,0.0,0.0,0.0,0.0,0.0,0.0,0.0,0.0,0.0,4.1849,4.2006,4.2006,4.2158,4.2963,4.4187,4.2882,4.2447,4.2412,0.0,0.0,0.0,0.0,0.0,0.0,0.0,0.0,0.0,0.0,0.0,0.0,0.0,0.0,0.0,0.0,0.0,0.0,0.0,0.0,-1.2251,-1.2016,-1.2713,-1.2799,-1.1809,-1.1889,-1.1579,-1.058,-1.0691,0.0,0.0,0.0,0.0,0.1951,0.7531,1.2874,0.0,0.0,0.0,2.5702,2.6372,0.0,0.0,0.0,0.0,0.0,0.0,0.0,0.0,0.0,0.0,0.0,0.0,0.0,0.0,0.0,0.0,0.0,0.0,0.0,0.0,0.0,0.0,0.0,0.0,0.0,0.0,0.0,0.0,0.0,0.0,0.0,0.0,0.0,0.0,0.0,0.0,0.0,0.0,0.0,0.0,0.0,0.0,0.0,0.0,0.0,0.0,2.9977,3.0188,0.0,0.0,0.0,0.0,0.0,0.0,0.0,0.0,0.0,0.0,0.0,0.0,0.0,4.0366,4.06,4.2318,4.3255,4.3372,4.4894,4.5597,4.5636,4.6353,4.6755,4.6917,4.731,0.0,4.4542,4.4517,0.0,0.0,0.0,0.0,0.0,0.0,0.0,0.0,0.0,0.0,0.0,0.0,0.0,0.0,0.0,0.0,0.0,0.0,0.0,0.0,0.0,-1.0695,-0.8956,-0.9232,-0.5583,-0.3583,-0.4302,0.0,0.0,0.0,0.0,-0.0937,0.7102,1.0742,1.5839,0.0,2.4031,2.6029,2.853,0.0,0.0,0.0,0.0,0.0,0.0,0.0,0.0,0.0,0.0,0.0,0.0,0.0,0.0,0.0,0.0,0.0,0.0,0.0,0.0,0.0,0.0,0.0,0.0,0.0,0.0,0.0,0.0,0.0,0.0,0.0,0.0,0.0,0.0,0.0,0.0,0.0,0.0,0.0,0.0,0.0,0.0,0.0,0.0,0.0,0.0,2.8951,3.0869,3.2792,3.2595,3.2319,0.0,0.0,0.0,0.0,0.0,0.0,0.0,0.0,0.0,4.1927,4.2357,4.3255,4.4738,4.5519,4.6105,4.6573,4.7354,4.7705,4.7705,4.8069,4.8203,4.8224,4.8992,4.8701,4.7562,4.5738,4.4511,4.3582,0.0,0.0,0.0,0.0,4.082,4.0886,0.0,0.0,0.0,0.0,0.0,0.0,0.0,0.0,0.0,0.0,0.0,0.0,-1.2299,-0.7137,-0.3943,-0.4703,0.0447,0.298,0.1168,0.0,0.0,0.0,0.0457,0.3193,1.1342,1.4706,1.9537,0.0,0.0,0.0,0.0,0.0,0.0,0.0,0.0,0.0,0.0,0.0,0.0,0.0,0.0,0.0,0.0,0.0,0.0,0.0,0.0,0.0,0.0,0.0,0.0,0.0,0.0,0.0,0.0,0.0,0.0,0.0,0.0,0.0,0.0,0.0,0.0,0.0,0.0,0.0,0.0,0.0,0.0,0.0,0.0,0.0,0.0,0.0,0.0,0.0,0.0,3.1577,3.3412,3.5715,3.5832,3.5639,0.0,0.0,0.0,0.0,0.0,0.0,4.1732,4.2201,4.3138,4.466,4.4894,4.5948,4.79,4.79,4.8213,4.8798,4.8798,4.8798,4.8798,4.9045,4.9106,4.9133,4.9634,4.9847,4.9671,4.7339,4.6922,4.7502,4.5128,4.4742,4.5504,4.5297,4.5273,4.5568,0.0,0.0,0.0,0.0,0.0,0.0,0.0,0.0,0.0,0.0,0.0,-0.7521,-0.6714,-0.2242,0.1088,0.2001,0.3151,0.3393,0.2366,0.0,0.0,0.2552,0.8171,1.157,1.2159,1.9295,2.4153,0.0,0.0,0.0,0.0,0.0,0.0,0.0,0.0,0.0,0.0,0.0,0.0,0.0,0.0,0.0,0.0,0.0,0.0,0.0,0.0,0.0,0.0,0.0,0.0,0.0,0.0,0.0,0.0,0.0,0.0,0.0,0.0,0.0,0.0,0.0,0.0,0.0,0.0,0.0,0.0,0.0,0.0,0.0,0.0,0.0,0.0,0.0,0.0,0.0,0.0,0.0,0.0,3.9624,4.0952,0.0,0.0,0.0,0.0,4.0912,4.1771,4.2708,4.3528,4.5129,4.6456,4.7354,4.8135,4.8603,4.8759,4.8759,4.8759,4.8798,4.8798,4.8798,4.8837,4.9669,4.9991,4.9917,4.9837,4.9782,4.9833,5.1213,5.0998,4.978,5.021,4.9558,4.8577,5.0054,5.0701,5.1035,0.0,0.0,0.0,-0.9019,-1.0092,-1.1106,-1.196,-1.3084,-1.3948,-1.4286,-1.0292,-0.7258,-0.6885,0.1078,0.6439,0.6569,1.1219,1.3781,1.2829,0.0,0.0,0.0,0.0,1.5498,2.0781,2.3093,2.5179,0.0,0.0,0.0,0.0,0.0,0.0,0.0,0.0,0.0,0.0,0.0,0.0,0.0,0.0,0.0,0.0,0.0,0.0,0.0,0.0,0.0,0.0,0.0,0.0,0.0,0.0,0.0,0.0,0.0,0.0,0.0,0.0,0.0,0.0,0.0,0.0,0.0,0.0,0.0,0.0,0.0,0.0,0.0,0.0,0.0,0.0,0.0,0.0,0.0,0.0,0.0,0.0,4.0675,4.2201,0.0,4.2786,4.3294,4.384,4.4387,4.5246,4.6105,4.6924,4.7588,4.8057,4.8369,4.8642,4.9345,5.0477,5.0477,5.1023,5.2156,5.2156,5.2156,5.2156,5.24,5.2539,5.2487,5.2357,5.2304,5.2395,5.3956,5.294,5.0442,5.0632,5.1112,5.1702,5.2288,5.2585,5.2768,0.0,0.0,0.0,-0.9329,-1.0383,-1.1369,-1.2313,-1.3349,-1.3698,-1.2701,-0.806,-0.4317,-0.2825,0.6021,1.1858,1.1986,1.7074,1.9891,1.9128,0.0,0.0,0.0,0.0,0.0,0.0,2.5675,2.6346,0.0,0.0,0.0,0.0,0.0,0.0,0.0,0.0,0.0,0.0,0.0,0.0,0.0,0.0,0.0,2.4524,0.0,0.0,0.0,0.0,0.0,0.0,0.0,0.0,0.0,0.0,0.0,0.0,0.0,0.0,0.0,0.0,0.0,0.0,0.0,0.0,0.0,0.0,0.0,0.0,0.0,0.0,0.0,0.0,0.0,0.0,0.0,0.0,0.0,0.0,0.0,4.1813,4.151,4.3556,4.4894,4.4621,4.5597,4.6534,4.7081,4.7666,4.8252,4.8759,4.9345,4.9696,4.9696,5.0243,5.1102,5.2273,5.2273,5.2858,5.399,5.399,5.399,5.4029,5.4234,5.4326,5.4297,5.4447,5.4518,5.4541,5.5548,5.4689,5.2839,5.3147,5.3957,5.4998,5.4998,5.5055,5.5105,0.0,0.0,-0.8049,-0.9141,-1.0015,-1.0942,-1.1985,-1.2945,-1.244,-0.9188,-0.3672,0.1591,0.5869,1.2391,1.6968,1.817,1.9914,2.0731,2.0316,2.215,0.0,0.0,0.0,0.0,2.6295,2.7087,0.0,0.0,0.0,0.0,0.0,0.0,0.0,0.0,0.0,0.0,0.0,0.0,0.0,0.0,0.0,0.0,2.7055,0.0,0.0,0.0,0.0,0.0,0.0,0.0,0.0,0.0,0.0,0.0,0.0,0.0,0.0,0.0,0.0,0.0,0.0,0.0,0.0,0.0,0.0,0.0,0.0,0.0,0.0,0.0,0.0,0.0,0.0,0.0,0.0,0.0,4.0166,4.198,4.3288,4.2461,4.545,4.7272,4.6456,4.7858,4.8794,4.8873,4.8873,4.8915,4.8951,5.0555,5.1492,5.1492,5.3132,5.4029,5.4029,5.4068,5.4108,5.4108,5.4147,5.4147,5.4186,5.4976,5.5311,5.5208,5.5993,5.6272,5.6149,5.617,5.6522,5.7143,5.7944,5.8256,5.8294,5.8294,5.8294,5.8335,-0.7365,-0.7441,-0.7942,-0.9718,-1.0303,-1.101,-1.2472,-1.1766,-1.0334,-0.828,-0.2385,0.3042,0.6713,1.2197,1.6285,1.7984,1.9927,2.125,2.174,0.0,0.0,0.0,0.0,0.0,0.0,0.0,0.0,0.0,0.0,0.0,0.0,0.0,0.0,0.0,0.0,0.0,0.0,0.0,0.0,0.0,0.0,0.0,2.8419,0.0,0.0,0.0,0.0,0.0,0.0,0.0,0.0,0.0,0.0,0.0,0.0,0.0,0.0,0.0,0.0,0.0,0.0,0.0,0.0,0.0,0.0,0.0,0.0,0.0,0.0,0.0,0.0,0.0,0.0,0.0,0.0,4.2985,4.247,4.4141,4.5538,4.5942,4.6852,4.7606,4.7996,4.8366,4.91,5.0315,5.0494,5.1076,5.2363,5.2957,5.3288,5.3288,5.3756,5.4303,5.4927,5.5552,5.6177,5.6762,5.7387,5.7699,5.7734,5.8492,5.8792,5.8802,5.9429,5.9648,5.9592,6.0019,6.0373,6.0396,5.8149,5.7597,5.8004,5.8004,5.8158,5.8414,-0.7098,-0.7178,-0.7776,-0.9684,-1.012,-1.0548,-1.1579,-1.072,-0.8607,-0.4888,-0.0197,0.4373,0.8579,1.3002,1.6311,1.7931,1.9698,2.1337,2.2629,0.0,0.0,0.0,0.0,0.0,0.0,0.0,0.0,0.0,0.0,0.0,0.0,0.0,0.0,0.0,0.0,0.0,0.0,0.0,0.0,0.0,0.0,0.0,2.8294,2.8024,2.8072,2.8061,2.6404,2.6022,2.6054,2.4045,0.0,0.0,0.0,0.0,0.0,0.0,0.0,0.0,0.0,0.0,0.0,0.0,0.0,0.0,0.0,0.0,0.0,0.0,0.0,0.0,0.0,0.0,0.0,0.0,4.379,4.4729,4.4847,4.5789,4.6639,4.7183,4.7923,4.872,4.9576,4.9904,5.067,5.2085,5.226,5.2777,5.3819,5.4635,5.5083,5.5083,5.5786,5.6372,5.6879,5.7387,5.7894,5.8363,5.8805,5.9222,5.9567,5.9942,6.0277,0.0,6.1297,6.1543,6.1523,6.219,6.2452,0.0,0.0,0.0,0.0,0.0,6.0388,6.0635,-0.6774,-0.6867,-0.7467,-0.916,-0.9455,-0.9579,-0.9933,-0.9455,-0.6748,-0.0398,0.2315,0.5666,1.0959,1.4225,1.6578,1.7877,1.9349,2.0997,0.0,0.0,0.0,0.0,0.0,0.0,0.0,0.0,0.0,0.0,0.0,0.0,0.0,0.0,0.0,0.0,0.0,0.0,0.0,0.0,0.0,0.0,0.0,0.0,2.7535,2.7471,2.8218,2.9011,2.7024,2.7431,2.8619,2.6613,0.0,0.0,0.0,0.0,0.0,0.0,0.0,0.0,0.0,0.0,0.0,0.0,0.0,0.0,0.0,0.0,0.0,0.0,0.0,0.0,0.0,0.0,0.0,0.0,4.5372,4.6932,4.7009,4.7262,4.7434,4.741,4.8891,5.0273,5.1166,5.1968,5.2795,5.3789,5.3964,5.4126,5.4351,0.0,0.0,0.0,0.0,5.9045,5.9045,5.9162,5.9201,5.9201,5.9287,5.9708,6.0438,6.0475,6.09,6.1691,6.2493,6.2778,6.2663,6.3406,6.3501,6.3302,6.3207,6.3243,6.3345,6.3389,6.3495,6.3651,-0.6295,-0.6314,-0.6814,-0.8297,-0.7871,-0.7776,-0.9144,-0.6745,-0.3192,0.124,0.3872,0.7309,1.2511,1.4362,1.5773,1.7098,1.8923,2.0764,0.0,0.0,0.0,0.0,0.0,0.0,0.0,0.0,0.0,0.0,0.0,0.0,0.0,0.0,0.0,0.0,0.0,0.0,0.0,0.0,0.0,0.0,0.0,0.0,2.8271,2.8771,2.951,3.034,3.0536,3.0597,3.0275,2.8423,2.8521,2.9075,2.7233,0.0,0.0,0.0,0.0,0.0,0.0,0.0,0.0,0.0,0.0,0.0,0.0,0.0,0.0,0.0,0.0,0.0,0.0,0.0,0.0,4.4944,4.6142,4.7124,4.7778,4.9085,5.0005,5.0039,5.038,5.1208,5.2794,5.2988,5.3417,5.4303,5.5062,5.58,5.6528,5.7664,5.8297,5.8297,5.8608,5.8764,5.8764,5.9464,5.9814,5.9853,0.0,0.0,6.2108,6.3478,6.4202,6.4411,6.5211,6.541,6.5186,6.5357,6.5331,6.5049,6.3542,6.2978,6.3023,6.3299,6.3411,6.3495,-0.6168,-0.6142,-0.652,-0.7646,-0.7206,-0.6855,-0.7316,-0.524,-0.2314,0.1294,0.3701,0.6404,0.9827,1.2126,1.3891,1.5069,1.8765,0.0,0.0,0.0,0.0,0.0,0.0,0.0,0.0,0.0,0.0,0.0,0.0,0.0,0.0,0.0,0.0,0.0,0.0,0.0,0.0,0.0,0.0,0.0,0.0,0.0,2.7659,2.8915,3.0122,3.1162,3.1279,3.1424,3.1306,3.0133,3.0403,3.1001,2.9666,2.938,2.944,0.0,0.0,0.0,0.0,0.0,0.0,0.0,0.0,0.0,0.0,0.0,0.0,0.0,0.0,4.1152,0.0,0.0,4.4829,4.6082,4.7335,4.8432,4.9279,5.051,5.1164,5.0812,5.1506,5.2491,5.3802,5.4264,5.4821,5.5789,5.6693,5.7439,5.7909,5.8838,5.9347,5.9347,5.9735,5.9943,5.9943,6.037,6.0837,6.125,6.2028,6.2881,6.3813,6.4521,6.5231,6.5868,6.6045,6.609,6.6051,6.6266,6.66,6.6797,6.5779,6.5025,6.4475,6.4633,6.4971,6.5363,-0.629,-0.6122,-0.6305,-0.7062,-0.664,-0.5993,-0.5473,-0.4108,-0.2014,0.1118,0.3011,0.4888,0.6965,0.9593,1.1813,1.3263,0.0,0.0,0.0,0.0,0.0,0.0,0.0,0.0,0.0,0.0,0.0,0.0,0.0,0.0,0.0,0.0,0.0,0.0,0.0,0.0,0.0,0.0,0.0,0.0,0.0,0.0,2.7057,2.877,3.0241,3.1414,3.1257,3.1592,3.2123,3.1615,3.2079,3.276,3.1946,3.1611,3.1425,3.0981,3.0693,0.0,0.0,0.0,0.0,0.0,0.0,0.0,0.0,0.0,3.975,4.214,4.2603,4.3088,4.4598,4.5483,4.6236,4.724,4.8663,4.9933,5.0818,5.1779,5.2241,5.1741,5.2856,5.4049,5.4895,5.5742,5.6557,5.7371,5.822,5.8758,5.8855,5.9685,6.015,6.015,6.0787,6.1213,6.1368,6.1368,6.1834,6.2671,6.2704,6.3613,6.5269,6.517,6.5819,6.6971,6.6612,6.6552,6.6669,6.6922,6.7446,6.8097,6.799,6.7313,6.6429,6.6476,6.69,6.7502,-0.661,-0.6193,-0.5978,-0.6439,-0.5282,-0.4386,-0.4679,-0.283,-0.0491,0.1976,0.2735,0.4349,0.778,0.8788,1.0365,1.3184,0.0,0.0,0.0,0.0,0.0,0.0,0.0,0.0,0.0,0.0,0.0,0.0,0.0,0.0,0.0,0.0,0.0,0.0,0.0,0.0,0.0,0.0,0.0,0.0,0.0,0.0,2.7678,2.9294,3.0125,3.0571,3.2118,3.2725,3.2716,3.2341,3.2958,3.3762,3.2747,3.3182,3.3823,3.2953,0.0,3.3386,3.1941,3.3637,0.0,3.7775,3.9099,4.0669,0.0,0.0,4.3025,4.4833,4.518,4.5488,4.6432,4.6701,4.7278,4.8856,4.9933,5.0818,5.1664,5.3164,5.4434,5.5049,5.5318,5.5742,5.6626,5.7511,5.805,5.8171,5.8941,5.9403,5.9386,6.0234,6.0718,6.0718,6.0795,6.1219,6.1989,6.1989,6.2413,6.3199,6.3984,6.4869,6.5842,6.6698,6.7578,6.8374,6.8249,6.8226,6.8226,6.8032,6.7982,6.8089,6.8129,6.8098,6.796,6.8164,6.8289,6.8413,-0.6413,-0.6122,-0.5921,-0.629,-0.5481,-0.4613,-0.3987,-0.2787,-0.1269,0.0492,0.1566,0.2894,0.4862,0.6932,0.9163,1.1619,1.518,0.0,1.8639,0.0,0.0,0.0,0.0,0.0,0.0,0.0,0.0,0.0,0.0,0.0,0.0,0.0,0.0,0.0,0.0,0.0,0.0,0.0,0.0,0.0,0.0,0.0,2.7419,2.9296,2.9997,3.0242,3.1313,3.1936,0.0,0.0,3.2524,3.2853,3.3176,3.355,3.3673,3.2757,3.3298,0.0,3.5229,0.0,0.0,0.0,4.1434,4.2543,4.3611,4.3713,4.3905,4.5112,4.5898,4.6471,4.6817,4.7702,4.8586,0.0,5.051,5.1702,5.2549,5.3703,5.4972,5.628,5.6896,5.7357,5.7703,5.8511,5.9204,5.9704,6.055,6.1204,6.1704,6.205,6.2243,6.2243,6.2243,6.2435,6.2781,6.3281,6.3974,6.482,6.5667,6.655,6.7464,6.7841,6.8164,6.8497,6.8536,6.8799,6.9194,6.8925,6.9183,6.9604,6.9644,6.9634,6.9547,6.882,6.8791,6.9301,-0.6122,-0.5967,-0.5905,-0.6245,-0.5998,-0.5304,-0.3987,-0.3208,-0.2275,-0.0917,0.0146,0.1284,0.2671,0.5682,0.8165,0.9633,1.3282,1.5983,0.0,0.0,0.0,0.0,0.0,0.0,0.0,0.0,0.0,0.0,0.0,0.0,0.0,0.0,0.0,0.0,0.0,0.0,0.0,0.0,0.0,0.0,0.0,0.0,2.7214,2.9002,2.9875,3.0182,3.111,3.1782,0.0,0.0,3.2656,3.2588,3.3683,3.4007,3.3802,3.2966,3.3641,3.5177,3.7599,0.0,0.0,4.1567,4.2875,4.3753,4.3298,4.3665,4.4276,4.4781,4.5917,4.6858,4.7183,4.8432,4.9471,4.9702,5.1164,5.2472,5.3126,5.4357,5.5742,5.7165,5.8127,5.8819,5.9319,5.9896,6.0473,6.1089,6.1935,6.2704,6.3281,6.332,6.332,6.332,6.332,6.3551,6.4012,6.4628,6.5513,6.659,6.7167,6.7961,6.8899,6.9014,6.909,6.909,6.9177,6.9514,6.9986,6.9846,7.0162,7.0758,7.0766,7.0848,7.0735,6.9733,6.9739,7.0258,-0.5811,-0.5811,-0.5905,-0.6245,-0.6504,-0.6243,-0.4947,-0.3955,-0.2899,-0.153,-0.1335,-0.0248,0.2498,0.5576,0.7365,0.7322,1.0657,1.3429,1.5009,1.7352,0.0,0.0,0.0,0.0,0.0,0.0,0.0,0.0,0.0,0.0,0.0,0.0,0.0,0.0,0.0,0.0,0.0,0.0,0.0,0.0,0.0,0.0,2.7146,2.8492,2.9476,3.0451,3.2216,0.0,0.0,0.0,3.4032,3.3889,3.4598,3.4925,0.0,3.4398,3.4832,0.0,0.0,0.0,4.0979,4.1781,4.3379,4.4345,4.2777,4.3649,4.4607,4.4149,4.5337,4.6814,4.7857,4.8817,4.9663,5.051,5.2087,5.3164,5.3203,5.5357,5.7242,5.8165,5.8973,6.0127,0.0,6.2012,6.2012,6.205,6.282,6.3281,6.332,6.332,6.332,6.332,6.332,6.4128,6.5782,6.5859,6.6705,6.8321,6.8359,6.8821,6.9667,7.0475,7.0821,7.0821,7.0821,7.0832,7.0748,7.0661,7.0758,7.0898,7.0953,7.1124,7.1299,7.1452,7.1377,7.128,-0.5811,-0.5811,-0.5842,-0.6014,-0.6075,-0.5967,-0.5581,-0.5028,-0.4124,-0.2599,-0.1358,0.0,0.0,0.0,0.0,0.0,0.8788,1.0856,1.2288,1.5242,0.0,0.0,0.0,0.0,0.0,0.0,0.0,0.0,0.0,0.0,0.0,0.0,0.0,0.0,0.0,0.0,0.0,0.0,0.0,0.0,0.0,0.0,2.7095,2.8058,2.8886,2.9695,0.0,0.0,0.0,0.0,0.0,0.0,3.4818,3.5678,3.632,3.7292,3.7588,3.7968,0.0,0.0,4.0737,4.1521,4.2585,4.3343,4.2782,4.3659,4.4523,4.4531,4.5595,4.6776,4.7719,4.8779,4.9702,5.0389,5.2026,5.3203,5.3203,5.5395,5.7319,5.8204,5.9011,0.0,0.0,0.0,0.0,6.3666,6.4012,6.4397,6.4974,6.5513,6.559,6.5051,6.609,6.6705,6.6705,6.7821,6.8706,6.9283,6.9821,7.0206,7.0514,7.0783,7.0898,7.0898,7.0898,7.0871,7.0787,7.0871,7.0898,7.0925,7.1124,7.1236,7.1319,7.1508,7.1914,7.2383,0.0,-0.5811,-0.5842,-0.6014,-0.5998,0.0,0.0,0.0,0.0,0.0,0.0,0.0,0.0,0.0,0.0,0.0,0.0,0.8533,0.984,0.0,0.0,0.0,0.0,0.0,0.0,0.0,0.0,0.0,0.0,0.0,0.0,0.0,0.0,0.0,0.0,0.0,0.0,0.0,0.0,0.0,0.0,0.0,2.6095,2.6881,2.7844,0.0,0.0,0.0,0.0,0.0,0.0,0.0,3.491,3.5761,3.6671,3.833,3.8611,3.8744,0.0,4.0828,4.1014,4.1832,4.2612,4.3095,4.25,4.3349,4.4252,4.4221,4.5532,4.6839,4.7541,4.8809,4.9831,5.0168,5.1612,5.2836,5.302,5.5045,5.6973,5.8165,5.9281,6.0627,0.0,0.0,0.0,6.4512,6.4897,6.5436,6.6282,6.6551,6.6705,6.6782,6.7552,6.7975,6.8013,6.9129,6.986,7.0129,7.0667,7.0898,7.0898,7.0898,7.0898,7.0898,7.0898,7.0898,7.0871,7.0871,7.0925,7.0966,7.1124,7.1236,7.1358,7.1896,7.2413,7.288,0.0,0.0,-0.5874,0.0,0.0,0.0,0.0,0.0,0.0,0.0,0.0,0.0,0.0,0.0,0.0,0.0,0.0,0.0,0.7686,0.0,0.0,0.0,0.0,0.0,0.0,0.0,0.0,0.0,0.0,0.0,0.0,0.0,0.0,0.0,0.0,0.0,0.0,0.0,0.0,0.0,0.0,0.0,2.4275,2.5116,0.0,0.0,0.0,0.0,0.0,0.0,0.0,3.4298,3.491,3.5461,3.615,3.7775,3.8114,3.8498,4.0903,4.1534,4.172,4.25,4.3318,4.354,4.2017,4.2872,4.3855,4.3352,4.5162,4.693,0.0,0.0,5.0045,4.9936,5.1063,5.2158,5.2724,5.4495,5.6395,0.0,0.0,0.0,0.0,0.0,0.0,6.4666,0.0,6.6282,6.7013,6.6436,6.6782,6.8282,6.7667,6.8052,6.9667,6.9744,7.0129,7.0898,7.0898,7.0898,7.0898,7.0898,7.0898,7.0898,7.0898,7.0952,7.1005,7.0787,7.0832,7.099,7.1029,7.1147,7.1454,7.25,7.294,7.2902,0.0,0.0,0.0,0.0,0.0,0.0,0.0,0.0,0.0,0.0,0.0,0.0,0.0,0.0,0.0,0.0,0.0,0.0,0.0,0.0,0.0,0.0,0.0,0.0,0.0,0.0,0.0,0.0,0.0,0.0,0.0,0.0,0.0,0.0,0.0,0.0,0.0,0.0,0.0,0.0,0.0,0.0,2.279,0.0,0.0,0.0,0.0,0.0,0.0,0.0,0.0,3.4007,3.6093,3.726,3.8115,3.9373,3.9501,3.9473,4.0436,4.0717,4.0754,4.094,4.2054,4.2983,4.2575,4.328,4.4004,4.4065,4.4691,4.559,0.0,0.0,0.0,4.986,5.1622,0.0,5.308,5.5182,0.0,5.8165,0.0,6.1473,6.3128,6.4089,0.0,0.0,6.632,6.6628,6.6244,6.7821,6.8321,6.7475,6.9052,6.986,6.9706,7.0283,7.0706,7.0898,7.0898,7.0898,7.0898,7.0898,7.0898,7.0898,7.0898,7.0966,7.1077,7.094,7.0979,7.1092,7.1124,7.1525,7.2066,7.2391,7.3369,7.4421,0.0,0.0,0.0,0.0,0.0,0.0,0.0,0.0,0.0,0.0,0.0,0.0,0.0,0.0,0.0,0.0,0.0,0.0,0.0,0.0,0.0,0.0,0.0,0.0,0.0,0.0,0.0,0.0,0.0,0.0,0.0,0.0,0.0,0.0,0.0,0.0,0.0,0.0,0.0,0.0,0.0,0.0,0.0,0.0,0.0,0.0,0.0,0.0,0.0,0.0,0.0,3.484,3.644,3.7567,3.8402,3.9014,0.0,3.9614,4.06,4.0651,4.0568,4.1274,4.2129,4.2797,4.2797,4.3132,4.3639,4.4117,4.4308,0.0,4.6148,0.0,0.0,0.0,0.0,0.0,5.3996,5.5138,5.6626,0.0,5.9973,0.0,6.3128,6.4436,6.5359,0.0,6.6628,6.7051,6.7013,6.8359,6.9013,6.8783,6.9821,7.0321,7.0244,7.0667,7.0898,7.0898,7.0898,7.0898,7.0898,7.0898,7.0898,7.0898,0.0,7.0966,7.1116,7.1299,7.1479,7.1569,7.2007,7.2418,7.2789,7.333,7.4161,7.4982,0.0,0.0,0.0,0.0,0.0,0.0,0.0,0.0,0.0,0.0,-0.4447,-0.357,0.0,0.0,0.0,0.0,0.0,0.0,0.0,0.0,0.0,0.0,0.0,0.0,0.0,0.0,0.0,0.0,0.0,0.0,0.0,0.0,0.0,0.0,0.0,0.0,0.0,0.0,0.0,0.0,0.0,0.0,0.0,0.0,0.0,0.0,0.0,0.0,0.0,0.0,3.2964,3.5677,3.6291,3.7094,3.779,3.7791,3.8296,3.9187,4.0755,4.0881,4.0903,4.2277,4.2797,4.2946,4.2835,4.2872,4.3132,4.3726,0.0,4.4505,4.535,4.6948,4.8529,4.958,0.0,5.2521,5.4853,5.4978,5.5934,5.8973,6.0319,6.1589,6.3166,6.4897,6.5936,6.6051,6.6705,6.7436,6.8205,6.8436,6.9283,7.086,7.0206,7.0206,7.0898,7.0898,7.0898,7.0898,7.0898,7.0898,7.0871,7.0898,7.0898,7.0871,0.0,0.0,7.112,7.167,7.1986,7.2168,7.3024,7.3389,7.3522,7.4538,7.4899,7.5027,0.0,0.0,0.0,0.0,0.0,0.0,0.0,0.0,0.0,0.0,-0.5302,-0.357,0.0,0.0,0.0,0.0,0.0,0.0,0.0,0.0,0.0,0.0,0.0,0.0,0.0,0.0,0.0,0.0,0.0,0.0,0.0,0.0,0.0,0.0,0.0,0.0,0.0,0.0,0.0,0.0,0.0,0.0,0.0,0.0,0.0,0.0,0.0,0.0,0.0,0.0,3.1658,3.4206,3.5828,3.6736,3.7283,3.7578,3.7754,3.8165,3.9165,4.0399,4.146,4.1668,4.2773,4.3584,4.2891,4.3256,0.0,0.0,4.37,4.4528,4.535,4.5444,4.6417,4.9518,5.0336,0.0,0.0,0.0,5.7049,0.0,0.0,0.0,0.0,0.0,0.0,0.0,0.0,6.7167,6.7321,6.8706,6.9898,7.086,7.0744,7.0744,7.0898,7.0898,7.0898,7.0898,7.0898,7.0871,7.0815,7.0871,7.0871,7.0815,7.0815,0.0,7.1154,7.1641,7.1918,7.2184,7.2886,7.3494,7.404,7.4325,7.4912,7.5648,0.0,0.0,0.0,0.0,0.0,0.0,0.0,-0.6702,-0.7126,-0.8107,-0.7419,-0.5826,-0.319,-0.3061,-0.2304,0.0,0.0,0.0,0.0,0.0,0.0,0.0,0.0,0.0,0.0,0.0,0.0,0.0,0.0,0.0,0.0,0.0,0.0,0.0,0.0,0.0,0.0,0.0,0.0,0.0,0.0,0.0,0.0,0.0,0.0,0.0,0.0,0.0,0.0,0.0,3.0828,3.4145,3.647,3.733,3.7539,3.8294,3.8507,3.8855,3.9946,4.0829,4.1563,4.2008,4.2674,4.3045,4.2267,0.0,0.0,0.0,4.2247,4.2623,4.3549,4.3995,0.0,4.7808,4.9516,5.1429,5.4126,0.0,0.0,0.0,0.0,0.0,0.0,0.0,0.0,0.0,0.0,6.7051,6.8398,6.9629,7.0514,7.0898,7.0898,7.0898,7.0898,7.0898,7.0898,7.0898,7.0871,7.0815,7.0787,7.0787,7.0758,7.0729,7.0729,0.0,7.0964,7.205,7.2517,7.2754,7.3942,7.4576,7.4851,7.4954,7.5288,7.566,0.0,0.0,0.0,0.0,0.0,0.0,0.0,-0.71,-0.76,-0.8737,-0.9057,-0.8086,-0.5246,-0.4863,-0.3586,0.0,0.0,0.0,0.0,0.0,0.0,0.0,0.0,0.0,0.0,0.0,0.0,0.0,0.0,0.0,0.0,0.0,0.0,0.0,0.0,0.0,0.0,0.0,0.0,0.0,0.0,0.0,0.0,0.0,0.0,0.0,0.0,0.0,0.0,0.0,2.9641,3.3401,3.6326,3.7565,3.808,3.901,3.9404,3.9797,4.0988,4.1446,4.1736,4.2464,4.2728,4.2548,4.165,4.1607,0.0,0.0,4.0766,4.0765,4.1578,0.0,4.3559,0.0,4.8158,5.0525,5.3678,5.5489,5.7165,0.0,0.0,0.0,0.0,0.0,0.0,0.0,0.0,0.0,6.9321,7.036,7.0898,7.0898,7.0898,7.0898,7.0898,7.0898,7.0898,7.0898,7.0815,7.0787,7.0758,7.0699,7.0708,7.0678,7.0678,0.0,0.0,7.2422,7.3079,7.3232,7.4915,7.557,7.5535,7.5532,7.5566,7.5599,0.0,0.0,0.0,0.0,0.0,0.0,0.0,-0.6567,-0.7399,-0.7834,-0.8607,-0.8558,-0.7077,-0.5673,-0.3832,0.0,0.0,0.0,0.0,0.0,0.0,0.0,0.0,0.0,0.0,0.0,0.0,0.0,0.0,0.0,0.0,0.0,0.0,0.0,0.0,0.0,0.0,0.0,0.0,0.0,0.0,0.0,0.0,0.0,0.0,0.0,0.0,0.0,0.0,0.0,0.0,3.0141,3.3549,3.6458,3.865,3.912,0.0,0.0,4.1005,4.1783,4.2405,4.2419,4.3074,4.3287,4.1699,0.0,0.0,3.976,3.9946,4.0523,4.0626,0.0,0.0,0.0,0.0,4.7205,0.0,5.398,5.5665,5.8127,0.0,0.0,0.0,0.0,0.0,0.0,0.0,0.0,6.859,7.0014,7.0898,7.0898,7.0898,7.0898,7.0898,7.0898,7.0898,7.0898,7.0815,7.0758,7.0737,7.0669,7.0678,7.0623,7.0623,0.0,0.0,7.2324,7.2979,7.317,7.4847,7.5501,7.5501,7.5535,7.5633,7.5787,0.0,0.0,0.0,0.0,0.0,0.0,-0.6204,-0.6832,-0.7518,-0.8563,-0.9605,-0.9593,-0.7788,-0.7025,-0.5558,-0.2887,0.0,0.0,0.0,0.0,0.0,0.0,0.0,0.0,0.0,0.0,0.0,0.2566,0.0,0.0,0.0,0.0,0.0,0.0,0.0,0.0,0.0,0.0,0.0,0.0,0.0,0.0,0.0,0.0,0.0,0.0,0.0,0.0,0.0,0.0,0.0,0.0,3.1637,3.4375,0.0,0.0,3.984,4.0528,4.1625,4.2529,4.3122,4.3122,4.3011,4.2492,4.0898,0.0,3.9904,3.8015,3.7958,3.826,3.8365,0.0,0.0,0.0,0.0,0.0,4.9771,0.0,5.5391,0.0,0.0,0.0,0.0,0.0,0.0,0.0,0.0,0.0,6.8394,6.9986,7.0898,7.0898,7.0898,7.0898,7.0898,7.0898,7.0871,7.0843,7.0758,7.0708,7.0647,7.0547,7.0515,7.0451,7.0451,0.0,0.0,7.2291,7.2979,7.317,7.4851,7.5501,7.5501,7.5501,7.5633,7.581,0.0,0.0,0.0,0.0,0.0,-0.4627,-0.6122,-0.6836,-0.7471,-0.8252,-0.9578,-0.9758,-0.7947,-0.7677,-0.6754,-0.455,-0.3637,0.0,0.0,0.0,0.0,0.0,0.0,0.0,0.0,0.0,0.1952,0.2413,0.319,0.3877,0.0,0.0,0.0,0.0,0.0,0.0,0.0,0.0,0.0,0.0,0.0,0.0,0.0,0.0,0.0,0.0,0.0,0.0,0.0,0.0,0.0,0.0,0.0,0.0,0.0,0.0,3.9868,4.0778,4.2029,4.2941,4.3532,4.3566,4.2794,4.1654,0.0,0.0,3.8136,3.6615,3.6333,3.641,3.6531,0.0,0.0,0.0,0.0,4.5194,4.782,5.1109,5.4258,0.0,0.0,0.0,0.0,0.0,0.0,0.0,0.0,0.0,0.0,6.9662,7.0574,7.0871,7.0871,7.0871,7.0898,7.0871,7.0843,7.0787,7.0699,7.0678,7.0623,7.0451,7.0419,7.0419,0.0,0.0,0.0,7.1985,7.2597,7.2788,7.4469,7.5119,7.5157,7.5386,7.566,7.5899,0.0,0.0,0.0,0.0,0.0,0.0,-0.5047,-0.6351,-0.7061,-0.6342,-0.7882,-0.8613,-0.7587,-0.7306,-0.7001,-0.6431,-0.3645,0.0,0.0,0.0,0.0,0.0,0.0,0.0,0.0,0.0,0.2078,0.2686,0.332,0.3957,0.4613,0.4874,0.5231,0.0,0.0,0.0,0.0,0.0,0.0,0.0,0.0,0.0,0.0,0.0,0.0,0.0,0.0,0.0,0.0,0.0,0.0,0.0,0.0,0.0,0.0,0.0,3.9564,4.0777,4.1999,4.2873,4.3497,4.3497,4.2353,4.0988,0.0,0.0,0.0,3.5747,3.5491,3.5516,3.5541,3.6147,0.0,0.0,0.0,0.0,0.0,0.0,0.0,0.0,0.0,0.0,0.0,0.0,0.0,0.0,0.0,0.0,0.0,6.9011,6.9817,7.0748,7.0787,7.0815,7.0898,7.0815,7.0787,7.0787,7.0699,7.0678,7.0623,7.0451,7.0419,0.0,0.0,0.0,0.0,7.1336,7.1718,7.1871,7.3552,7.4201,7.4316,7.5157,7.5756,7.6121,0.0,0.0,0.0,0.0,0.0,0.0,0.0,-0.5239,-0.5763,-0.5526,-0.7182,-0.8098,-0.7339,-0.729,-0.7138,-0.6597,-0.4614,0.0,0.0,0.0,0.0,0.0,0.0,0.0,0.0,0.0585,0.173,0.2761,0.3409,0.4271,0.53,0.526,0.5577,0.6195,0.6384,0.0,0.0,0.0,0.0,0.0,0.0,0.0,0.0,0.0,0.0,0.0,0.0,0.0,0.0,0.0,0.0,0.0,0.0,0.0,0.0,3.3429,3.6303,3.8841,4.0267,4.0451,4.0341,4.0891,3.989,3.8552,3.7742,0.0,0.0,0.0,0.0,0.0,0.0,3.585,3.7291,3.8512,0.0,0.0,0.0,0.0,0.0,0.0,0.0,0.0,0.0,0.0,0.0,0.0,0.0,0.0,0.0,6.8378,6.9241,7.0661,7.0699,7.0729,7.0758,7.0729,7.0708,7.0647,7.0647,7.0585,7.0451,7.0419,0.0,0.0,0.0,0.0,0.0,7.1985,7.2597,7.275,7.4431,7.5145,7.5309,7.5577,7.5957,7.632,0.0,0.0,0.0,0.0,0.0,0.0,0.0,-0.4685,-0.5176,-0.5221,-0.6362,-0.6951,-0.6465,-0.6299,-0.6124,-0.592,-0.4681,0.0,0.0,0.0,0.0,0.0,0.0,0.0,-0.1152,0.0175,0.14,0.2458,0.3458,0.4442,0.5431,0.5336,0.559,0.6218,0.6413,0.6568,0.0,0.0,0.0,0.0,0.0,0.0,1.2791,0.0,0.0,0.0,0.0,0.0,0.0,0.0,0.0,0.0,0.0,0.0,0.0,0.0,3.2885,3.5864,3.8315,3.8836,3.8836,3.9313,3.8302,3.7034,0.0,0.0,0.0,0.0,0.0,0.0,0.0,0.0,3.7671,3.8313,4.0904,0.0,0.0,0.0,0.0,0.0,0.0,0.0,0.0,0.0,0.0,0.0,0.0,0.0,0.0,6.805,6.8855,7.054,7.0647,7.0678,7.0708,7.0678,7.0647,7.0623,7.0623,7.0522,7.0419,7.0419,0.0,0.0,0.0,0.0,0.0,7.1565,7.2024,7.2176,7.3896,7.4675,7.4935,7.5549,7.6029,7.6411,0.0,0.0,0.0,0.0,0.0,0.0,0.0,-0.445,-0.4966,-0.507,-0.5333,-0.5445,-0.5275,-0.4726,-0.4451,-0.459,0.0,0.0,0.0,0.0,0.0,0.0,0.0,0.0,-0.1692,-0.018,0.1051,0.1972,0.3441,0.4581,0.5352,0.5165,0.5423,0.6017,0.5858,0.6182,0.0,0.0,0.0,0.0,0.0,0.0,0.0,0.0,0.0,0.0,0.0,0.0,0.0,0.0,0.0,0.0,0.0,0.0,0.0,0.0,0.0,0.0,0.0,3.7661,3.8358,3.8432,3.7345,3.6288,0.0,0.0,0.0,0.0,0.0,0.0,0.0,0.0,3.8409,3.8812,4.1548,0.0,0.0,0.0,0.0,0.0,0.0,0.0,0.0,0.0,0.0,0.0,0.0,0.0,0.0,6.7928,6.8623,7.0266,7.0483,7.0616,7.0708,7.0616,7.0623,7.0623,7.0623,7.0522,7.0419,7.0419,0.0,0.0,0.0,0.0,0.0,7.0495,7.0533,7.0763,7.2367,7.3214,7.3658,7.5157,7.6018,7.6433,0.0,0.0,0.0,0.0,0.0,0.0,0.0,0.0,0.0,0.0,-0.449,-0.4932,-0.4582,-0.4757,-0.4633,0.0,0.0,0.0,0.0,0.0,0.0,0.0,0.0,0.0,-0.1358,-0.0051,0.1302,0.2638,0.4125,0.5468,0.662,0.622,0.6395,0.7127,0.7211,0.7954,0.0,0.0,0.0,0.0,0.0,0.0,0.0,0.0,0.0,0.0,1.5389,1.5946,0.0,0.0,0.0,0.0,0.0,0.0,0.0,0.0,2.7501,2.9131,3.1311,0.0,3.5092,3.5716,3.5184,3.4502,0.0,0.0,0.0,0.0,0.0,0.0,0.0,0.0,0.0,0.0,0.0,0.0,0.0,0.0,0.0,0.0,0.0,0.0,0.0,0.0,0.0,0.0,0.0,0.0,0.0,6.7897,6.8394,6.9464,7.0113,7.0451,7.0483,7.0451,7.0451,7.0451,7.0451,7.0419,7.0419,7.0419,0.0,0.0,0.0,0.0,7.0457,7.1107,7.1794,7.2444,7.2826,7.3998,7.5424,7.5193,7.5779,7.6632,0.0,0.0,0.0,0.0,0.0,0.0,0.0,0.0,0.0,0.0,0.0,-0.358,-0.3228,-0.3498,0.0,0.0,0.0,0.0,0.0,0.0,0.0,0.0,0.0,-0.1862,-0.0819,0.0702,0.2005,0.2993,0.4423,0.5697,0.6784,0.6415,0.6528,0.7175,0.7635,0.8517,0.0,0.0,0.0,0.0,0.0,0.0,0.0,0.0,0.0,0.0,1.5299,1.574,0.0,1.7955,1.8692,1.9207,0.0,0.0,0.0,0.0,2.6023,2.7603,2.9219,3.087,3.2449,3.3623,3.364,3.3408,3.3723,0.0,0.0,0.0,0.0,0.0,0.0,0.0,0.0,0.0,0.0,0.0,0.0,0.0,0.0,0.0,0.0,0.0,0.0,0.0,0.0,0.0,0.0,0.0,0.0,6.8508,6.889,6.9731,7.019,7.0419,7.0419,7.0419,7.0419,7.0419,7.0419,7.0419,7.0419,7.0419,7.0419,0.0,0.0,0.0,7.0457,7.0916,7.1374,7.1833,7.2253,7.3453,7.4887,7.4462,7.5321,7.6648,0.0,0.0,0.0,0.0,0.0,0.0,0.0,0.0,0.0,0.0,0.0,0.0,0.0,0.0,0.0,0.0,0.0,0.0,0.0,0.0,0.0,0.0,-0.1135,-0.0583,0.0055,0.174,0.2884,0.3453,0.4822,0.5894,0.6721,0.6546,0.6715,0.7101,0.7784,0.8682,0.0,0.0,0.0,0.0,1.1859,0.0,0.0,0.0,0.0,0.0,0.0,0.0,0.0,1.8226,1.9001,1.9458,2.0994,0.0,0.0,0.0,0.0,0.0,2.8315,2.9512,3.0577,3.2192,3.2732,3.3077,0.0,0.0,0.0,0.0,0.0,0.0,0.0,0.0,0.0,0.0,0.0,0.0,0.0,0.0,0.0,0.0,0.0,0.0,0.0,0.0,0.0,0.0,0.0,0.0,0.0,6.9196,6.9502,7.019,7.0342,7.0419,7.0419,7.0419,7.0419,7.0419,7.0419,7.0419,7.0419,7.0419,7.0419,0.0,0.0,0.0,7.0419,7.0419,7.0495,7.0648,7.1259,7.2417,7.3704,7.3498,7.4757,7.6497,0.0,0.0,0.0,0.0,0.0,0.0,0.0,0.0,0.0,0.0,0.0,0.0,0.0,0.0,0.0,0.0,0.0,0.0,0.0,0.0,0.0,0.0442,0.0295,0.0615,0.1613,0.2463,0.3564,0.4988,0.6594,0.7601,0.7991,0.8253,0.8441,0.8492,0.8962,0.9616,1.0383,1.0645,0.0,0.0,0.0,0.0,0.0,0.0,0.0,0.0,0.0,0.0,0.0,1.7107,1.7576,1.8128,1.945,0.0,0.0,0.0,0.0,0.0,2.7346,2.9072,3.0577,3.2192,3.3109,3.3844,0.0,0.0,0.0,0.0,0.0,0.0,0.0,0.0,0.0,0.0,0.0,0.0,0.0,0.0,0.0,0.0,0.0,0.0,0.0,0.0,0.0,0.0,0.0,0.0,0.0,6.9196,6.9273,6.9387,7.0037,7.0419,7.0419,7.0419,7.0419,7.0419,7.0419,7.0419,7.0419,7.0419,7.0419,0.0,0.0,7.0419,7.0419,7.0419,7.0839,7.145,7.0839,7.2141,7.4216,7.2984,7.4088,7.6185,0.0,0.0,0.0,0.0,0.0,0.0,0.0,0.0,0.0,0.0,0.0,0.0,0.0,0.0,0.0,0.0,0.0,0.0,0.0,0.0,0.1523,0.2316,0.248,0.2637,0.2876,0.3442,0.4464,0.5962,0.6705,0.7465,0.8278,0.8755,0.9313,0.9879,1.0038,1.0509,1.1085,1.1429,1.154,1.1542,0.0,0.0,0.0,0.0,0.0,0.0,0.0,0.0,0.0,0.0,1.7764,1.8239,1.9295,0.0,0.0,0.0,0.0,0.0,2.7083,2.8585,3.0198,3.3156,3.4871,0.0,0.0,0.0,0.0,0.0,0.0,0.0,0.0,0.0,0.0,0.0,0.0,0.0,0.0,0.0,0.0,0.0,0.0,0.0,0.0,0.0,0.0,0.0,0.0,0.0,0.0,0.0,6.9846,6.9846,7.0228,7.0419,7.0419,7.0419,7.0419,7.0419,7.0419,7.0419,7.0419,7.0419,7.0419,7.0419,0.0,7.0419,7.0419,7.0419,7.0648,7.0954,7.0572,7.1535,7.3159,7.3574,7.4154,7.4912,0.0,0.0,0.0,0.0,0.0,0.0,0.0,0.0,0.0,0.0,0.0,0.0,0.0,0.0,0.0,0.0,0.0,0.0,0.0,0.2199,0.2823,0.3655,0.4077,0.4267,0.4125,0.462,0.5547,0.6945,0.7343,0.8098,0.914,0.9592,1.016,1.0805,1.111,1.1334,1.1543,1.2003,1.1965,1.1689,0.0,0.0,0.0,0.0,0.0,0.0,0.0,0.0,0.0,0.0,0.0,0.0,0.0,0.0,0.0,2.1735,2.305,2.5053,2.7346,2.9101,3.1148,0.0,0.0,0.0,0.0,0.0,0.0,0.0,0.0,0.0,0.0,0.0,0.0,0.0,0.0,0.0,0.0,0.0,0.0,0.0,0.0,0.0,0.0,0.0,0.0,0.0,0.0,0.0,0.0,0.0,7.0419,7.0419,7.0419,7.0419,7.0419,7.0419,7.0419,7.0419,7.0419,7.0419,7.0419,7.0419,7.0419,7.0419,7.0419,7.0419,7.0419,7.0419,7.0419,7.0419,7.0419,7.0923,7.1929,7.3773,7.396,7.3523,0.0,0.0,0.0,0.0,0.0,0.0,0.0,0.0,0.0,0.0,0.0,0.0,0.0,0.0,0.0,0.0,0.0,0.0,0.0,0.2221,0.2774,0.3817,0.4221,0.4751,0.5567,0.6063,0.7001,0.8235,0.9963,1.1163,1.181,1.1817,1.1458,1.0861,1.1953,1.211,1.1543,1.2003,1.2157,1.2113,1.2449,0.0,0.0,0.0,0.0,0.0,0.0,0.0,0.0,0.0,0.0,0.0,0.0,0.0,2.1339,2.1607,2.3814,2.6495,2.8239,3.1508,0.0,0.0,0.0,0.0,0.0,0.0,0.0,0.0,0.0,0.0,0.0,0.0,0.0,0.0,0.0,0.0,0.0,0.0,0.0,0.0,0.0,0.0,0.0,0.0,0.0,0.0,0.0,0.0,0.0,0.0,0.0,7.0419,7.0419,7.0419,7.0419,7.0419,7.0419,7.0419,7.0419,7.0419,7.0419,7.0419,7.0419,7.0419,7.0419,7.0419,7.0419,7.0419,7.0419,7.0419,7.0419,7.0578,7.0988,7.2537,7.2831,7.2508,0.0,0.0,0.0,0.0,0.0,0.0,0.0,0.0,0.0,0.0,0.0,0.0,0.0,0.0,0.0,0.0,0.0,0.0,0.0,0.2997,0.3506,0.4189,0.4671,0.5536,0.6898,0.6522,0.7037,0.8481,0.9959,1.1065,1.1984,1.2202,1.2196,1.2108,1.3069,1.3045,1.2362,1.2754,1.2735,1.2437,1.2826,1.3378,0.0,0.0,0.0,0.0,0.0,0.0,0.0,0.0,1.7215,1.7825,1.8358,1.9728,2.1299,2.2115,2.4169,2.6812,2.9501,3.2447,0.0,0.0,0.0,0.0,0.0,0.0,0.0,0.0,0.0,0.0,0.0,0.0,0.0,0.0,0.0,0.0,0.0,0.0,0.0,0.0,0.0,0.0,0.0,0.0,0.0,0.0,0.0,0.0,0.0,0.0,0.0,7.0419,7.0419,7.0419,7.0419,7.0419,7.0419,7.0419,7.0419,7.0419,7.0419,7.0419,7.0419,7.0419,7.0419,7.0419,7.0419,7.0419,7.0419,7.0419,7.0419,7.0789,7.1389,7.198,7.2078,7.2072,0.0,0.0,0.0,0.0,0.0,0.0,0.0,0.0,0.0,0.0,0.0,0.0,0.0,0.0,0.0,0.0,0.0,0.0,0.2966,0.3453,0.3955,0.4466,0.525,0.6332,0.7671,0.7447,0.799,0.9378,1.067,1.1749,1.2582,1.3026,1.3297,1.3351,1.4023,1.382,1.3043,1.3474,1.3267,1.272,1.3104,1.3648,0.0,0.0,0.0,0.0,0.0,0.0,0.0,0.0,1.7215,1.7825,1.8318,1.9728,2.1466,2.2709,2.5266,2.8359,3.1411,3.4171,0.0,0.0,0.0,0.0,0.0,0.0,0.0,0.0,0.0,0.0,0.0,0.0,0.0,0.0,0.0,0.0,0.0,0.0,0.0,0.0,0.0,0.0,0.0,0.0,0.0,0.0,0.0,0.0,0.0,0.0,0.0,0.0,7.0419,7.0419,7.0419,7.0419,7.0419,7.0419,7.0419,7.0419,7.0419,7.0419,7.0419,7.0419,7.0419,7.0419,7.0419,7.0419,7.0419,7.0419,7.0419,7.0763,7.1298,7.1298,7.1298,7.1407,0.0,0.0,0.0,0.0,0.0,0.0,0.0,0.0,0.1195,0.1189,0.1269,0.0,0.0,0.0,0.0,0.0,0.0,0.0,0.2959,0.3541,0.4098,0.4709,0.6046,0.7095,0.7683,0.9086,1.0275,1.1242,1.2823,1.3715,1.4016,1.4714,1.4811,0.0,0.0,0.0,1.3543,1.4006,1.3636,1.285,1.3242,1.3888,1.4596,0.0,0.0,0.0,0.0,0.0,0.0,0.0,1.7429,1.8293,1.8393,1.9822,2.1803,2.3438,2.726,3.151,3.3936,0.0,0.0,0.0,0.0,0.0,0.0,0.0,0.0,0.0,0.0,0.0,0.0,0.0,0.0,0.0,0.0,0.0,0.0,0.0,0.0,0.0,0.0,0.0,0.0,0.0,0.0,0.0,0.0,0.0,0.0,0.0,0.0,0.0,7.0419,7.0419,7.0419,7.0419,7.0419,7.0419,7.0419,7.0419,7.0419,7.0419,7.0419,7.0419,7.0419,7.0419,7.0419,7.0419,7.0419,7.0419,7.0419,7.0419,7.0419,7.0419,7.0419,7.0419,0.0,0.0,0.0,0.0,0.0,0.0,0.0,0.0,0.1483,0.1232,0.1547,0.0,0.0,0.0,0.0,0.0,0.0,0.0,0.4224,0.4794,0.5405,0.6014,0.664,0.7547,0.8651,1.0564,1.1794,1.2572,1.3669,1.4295,1.453,1.5008,1.5,1.46,0.0,0.0,1.3882,1.4165,1.3876,1.3242,1.3682,1.4117,1.4627,0.0,0.0,0.0,0.0,0.0,0.0,0.0,0.0,0.0,1.8252,1.9704,2.1662,2.3991,2.6874,3.0097,3.3647,0.0,0.0,0.0,0.0,0.0,0.0,0.0,0.0,0.0,0.0,0.0,0.0,0.0,0.0,0.0,0.0,0.0,0.0,0.0,0.0,0.0,0.0,0.0,0.0,0.0,0.0,0.0,0.0,0.0,0.0,0.0,0.0,0.0,7.0419,7.0419,7.0419,7.0419,7.0419,7.0419,7.0419,7.0419,7.0419,7.0419,7.0419,7.0419,7.0419,7.0419,7.0419,7.0419,7.0419,7.0419,7.0419,7.0419,7.0419,7.0419,7.0419,7.0419,0.0,0.0,0.0,0.0,0.0,0.0,0.1345,0.1709,0.1909,0.1738,0.2175,0.2512,0.0,0.0,0.0,0.3595,0.4067,0.4451,0.4754,0.5396,0.6016,0.6625,0.7267,0.8366,1.0037,1.1738,1.2805,1.3314,1.4298,1.4729,1.4621,1.5426,0.0,1.5373,0.0,1.5752,1.4672,1.4825,1.4551,1.4054,1.4333,1.4763,1.5244,0.0,0.0,0.0,0.0,0.0,0.0,0.0,0.0,0.0,1.8225,1.9608,2.1852,2.5778,2.8612,3.1655,3.6942,0.0,0.0,0.0,0.0,0.0,0.0,0.0,0.0,0.0,0.0,0.0,0.0,0.0,0.0,0.0,0.0,0.0,0.0,0.0,0.0,0.0,0.0,0.0,0.0,0.0,0.0,0.0,0.0,0.0,0.0,0.0,0.0,0.0,7.0419,7.0419,7.0419,7.0419,7.0419,7.0419,7.0419,7.0419,7.0419,7.0419,7.0419,7.0419,7.0419,7.0419,7.0419,7.0419,7.0419,7.0419,7.0419,7.0419,7.0419,7.0419,7.0419,7.0419,0.0,0.0,0.0,0.0,0.0,0.0,0.1742,0.2142,0.2441,0.254,0.2944,0.3208,0.0,0.0,0.0,0.3811,0.4439,0.4846,0.4867,0.5609,0.6316,0.6834,0.7847,0.928,1.1262,1.2425,1.3162,1.3578,1.4639,1.4907,1.454,0.0,1.6492,1.6479,0.0,1.6857,1.5752,1.5745,1.5414,1.4935,1.4992,1.5463,1.6048,1.6143,0.0,0.0,0.0,0.0,0.0,0.0,0.0,0.0,1.8246,1.9568,2.2153,2.773,3.1184,3.4697,0.0,0.0,0.0,0.0,0.0,0.0,0.0,0.0,0.0,0.0,0.0,0.0,0.0,0.0,0.0,0.0,0.0,0.0,0.0,0.0,0.0,0.0,0.0,0.0,0.0,0.0,0.0,0.0,0.0,0.0,0.0,0.0,0.0,7.0419,7.0419,7.0419,7.0419,7.0419,7.0419,0.0,7.0419,7.0419,7.0419,7.0419,7.0419,7.0419,7.0419,7.0419,7.0419,7.0419,7.0419,7.0419,7.0419,7.0419,7.0419,7.0419,7.0419,7.0419,0.0,0.0,0.0,0.0,0.0,0.0,0.2186,0.2347,0.2606,0.2944,0.3109,0.3307,0.3551,0.3788,0.0,0.452,0.4944,0.5502,0.6242,0.6845,0.7459,0.8165,0.864,0.9221,0.991,1.0833,1.1724,1.2525,1.437,1.5019,0.0,0.0,0.0,1.6283,0.0,1.6951,0.0,1.5467,1.4866,1.4382,1.4626,1.479,1.5012,1.5654,1.586,0.0,0.0,0.0,0.0,0.0,0.0,0.0,1.8128,1.9444,2.1489,2.4987,2.8648,0.0,0.0,0.0,0.0,0.0,0.0,0.0,0.0,0.0,0.0,0.0,0.0,0.0,0.0,0.0,0.0,0.0,0.0,0.0,0.0,0.0,0.0,0.0,0.0,0.0,0.0,0.0,0.0,0.0,0.0,0.0,0.0,0.0,0.0,7.0419,7.0419,7.0419,7.0419,7.0419,7.0419,0.0,7.0419,7.0419,7.0419,7.0419,7.0419,7.0419,7.0419,7.0419,7.0419,7.0419,7.0419,7.0419,7.0419,7.0419,7.0419,7.0419,7.0419,7.0495,0.0,0.0,0.0,0.0,0.0,0.0,0.0,0.0,0.3101,0.3364,0.356,0.3788,0.4113,0.4403,0.0,0.0,0.5665,0.62,0.6768,0.7402,0.8109,0.8889,0.9342,0.9744,1.0153,1.0632,1.1305,1.2206,1.3273,1.4094,0.0,0.0,0.0,1.6427,0.0,1.7044,0.0,0.0,1.5737,1.5565,1.5469,1.5656,1.6077,1.6157,1.6127,1.6024,1.6328,0.0,0.0,0.0,0.0,0.0,0.0,0.0,2.1472,2.541,2.868,0.0,0.0,0.0,0.0,0.0,0.0,0.0,0.0,0.0,0.0,0.0,0.0,0.0,0.0,0.0,0.0,0.0,0.0,0.0,0.0,0.0,0.0,0.0,0.0,0.0,0.0,0.0,0.0,0.0,0.0,0.0,0.0,7.0419,7.0419,7.0419,7.0419,7.0419,7.0419,7.0419,7.0419,7.0419,7.0419,7.0419,7.0419,7.0419,7.0419,7.0419,7.0419,7.0419,7.0419,7.0419,7.0419,7.0419,7.0419,7.0419,7.0419,7.0419,7.0419,7.0533,0.0,0.0,0.0,0.0,0.0,0.0,0.0,0.0,0.0,0.3844,0.4113,0.4403,0.4724,0.5119,0.5435,0.0,0.0,0.0,0.7021,0.7804,0.8586,0.927,0.9765,1.0172,1.0536,1.0695,1.1142,1.1856,1.2025,0.0,0.0,0.0,0.0,1.645,0.0,0.0,0.0,0.0,0.0,0.0,1.6518,1.673,1.7249,1.6781,1.6458,1.6289,1.6277,1.6633,1.712,1.7092,0.0,0.0,0.0,0.0,2.1555,2.5993,0.0,0.0,0.0,0.0,0.0,0.0,0.0,0.0,0.0,0.0,0.0,0.0,0.0,0.0,0.0,0.0,0.0,0.0,0.0,0.0,0.0,0.0,0.0,0.0,0.0,0.0,0.0,0.0,0.0,0.0,0.0,0.0,7.0419,7.0419,7.0419,7.0419,7.0419,7.0419,7.0419,7.0419,7.0419,7.0419,7.0419,7.0419,7.0419,7.0419,7.0419,7.0419,7.0419,7.0419,7.0419,7.0419,7.0419,7.0419,7.0419,7.0419,7.0419,7.0419,7.0419,7.0572,0.0,0.0,0.0,0.0,0.0,0.0,0.0,0.0,0.0,0.0,0.4532,0.4756,0.5327,0.5547,0.5703,0.5828,0.6463,0.7059,0.7471,0.0,0.0,0.9328,0.9487,0.9466,0.9255,0.9967,1.0456,1.0568,1.1335,0.0,0.0,0.0,0.0,0.0,0.0,0.0,0.0,0.0,0.0,0.0,0.0,1.6468,1.6088,1.6478,1.6576,1.6548,1.6542,1.6975,1.7495,1.7437,1.7458,0.0,0.0,0.0,0.0,2.2638,0.0,0.0,0.0,0.0,0.0,0.0,0.0,0.0,0.0,0.0,0.0,0.0,0.0,0.0,0.0,0.0,0.0,0.0,0.0,0.0,0.0,0.0,0.0,0.0,0.0,0.0,0.0,0.0,0.0,0.0,0.0,0.0,7.0419,7.0419,7.0419,7.0419,7.0419,7.0419,7.0419,7.0419,7.0419,7.0419,7.0419,7.0419,7.0419,7.0419,7.0419,7.0419,7.0419,7.0419,7.0419,7.0419,7.0419,7.0419,7.0419,7.0419,7.0419,7.0419,7.0419,7.0648,0.0,0.0,0.0,0.0,0.0,0.0,0.0,0.0,0.0,0.0,0.0,0.5055,0.5917,0.5913,0.6011,0.6368,0.7261,0.8153,0.8928,0.9638,0.9981,0.9903,0.9981,0.9922,0.9725,1.0092,1.0421,1.065,1.101,0.0,0.0,1.387,1.4459,0.0,0.0,0.0,0.0,0.0,0.0,0.0,0.0,1.8065,1.923,1.8017,1.8483,1.9592,1.859,1.8384,1.8561,1.816,1.8054,1.8028,1.8031,0.0,0.0,0.0,0.0,0.0,0.0,0.0,0.0,0.0,0.0,0.0,0.0,0.0,0.0,0.0,0.0,0.0,0.0,0.0,0.0,0.0,0.0,0.0,0.0,0.0,0.0,0.0,0.0,0.0,0.0,0.0,0.0,0.0,0.0,7.0419,7.0419,7.0419,7.0419,7.0419,7.0419,7.0419,7.0419,7.0419,7.0419,7.0419,7.0419,7.0419,7.0419,7.0419,7.0419,7.0419,7.0419,7.0419,7.0419,7.0419,7.0419,7.0419,7.0419,7.0419,7.0419,7.0419,7.0724,7.1298,0.0,0.0,0.0,0.0,0.0,0.0,0.0,0.0,0.0,0.0,0.0,0.5229,0.6168,0.0,0.0,0.0,0.7834,0.8844,0.9806,1.004,1.0176,1.0273,1.0312,1.0312,1.0273,1.0273,1.043,1.0742,0.0,0.0,1.3736,1.344,1.4176,0.0,1.555,0.0,0.0,0.0,0.0,0.0,0.0,0.0,2.1758,2.0341,2.1063,2.2766,2.1335,2.067,2.0315,1.9596,1.9114,1.876,1.8515,1.9556,0.0,0.0,0.0,0.0,0.0,0.0,0.0,0.0,0.0,0.0,0.0,0.0,0.0,0.0,0.0,0.0,0.0,0.0,0.0,0.0,0.0,0.0,0.0,0.0,0.0,0.0,0.0,0.0,0.0,0.0,0.0,0.0,0.0,7.0419,7.0419,7.0419,7.0419,7.0419,7.0419,7.0419,7.0419,7.0419,7.0419,7.0419,7.0419,7.0419,7.0419,7.0419,7.0419,7.0419,7.0419,7.0419,7.0419,7.0419,7.0419,7.0419,7.0419,7.0419,7.0419,7.0419,7.0954,7.1794,0.0,0.0,0.0,0.0,0.0,0.0,0.0,0.0,0.0,0.0,0.0,0.5295,0.5874,0.6189,0.6651,0.7295,0.787,0.8536,0.9293,0.935,0.9567,1.0019,1.0019,0.0,1.0273,1.0273,1.0293,0.0,0.0,0.0,1.3264,1.3715,1.4526,1.5488,1.4992,1.4752,1.4849,0.0,0.0,0.0,0.0,0.0,0.0,0.0,2.4284,2.4883,2.4553,0.0,2.3127,2.2005,2.0761,1.9651,1.9688,2.045,2.1403,0.0,0.0,0.0,0.0,0.0,0.0,0.0,0.0,0.0,0.0,0.0,0.0,0.0,0.0,0.0,0.0,0.0,0.0,0.0,0.0,0.0,0.0,0.0,0.0,0.0,0.0,0.0,0.0,0.0,0.0,0.0,0.0,7.0419,7.0419,7.0419,7.0419,7.0419,7.0419,7.0419,7.0419,7.0419,7.0419,7.0419,7.0419,7.0419,7.0419,7.0419,7.0419,7.0419,7.0419,7.0419,7.0419,7.0419,7.0419,7.0419,7.0419,7.0419,7.0419,7.0419,7.0954,7.1794,0.0,0.0,0.0,0.0,0.0,0.0,0.0,0.0,0.0,0.0,0.0,0.0,0.0,0.6988,0.7247,0.7634,0.8281,0.9029,0.9746,0.9804,0.9809,0.9827,0.9808,0.9771,0.9733,0.9733,0.0,0.0,0.0,1.1411,1.2651,1.3127,1.3942,1.4953,1.5436,1.5698,1.5823,1.6473,0.0,0.0,0.0,0.0,0.0,0.0,0.0,0.0,0.0,0.0,0.0,2.428,2.2924,2.1591,2.0847,2.0925,2.1567,2.3017,2.4884,0.0,0.0,0.0,0.0,0.0,0.0,0.0,0.0,0.0,0.0,0.0,0.0,0.0,0.0,0.0,0.0,0.0,0.0,0.0,0.0,0.0,0.0,0.0,0.0,0.0,0.0,0.0,0.0,0.0,0.0,0.0,7.0419,7.0419,7.0419,7.0419,7.0419,7.0353,7.0213,7.0353,7.0353,7.0213,7.0353,7.0315,7.0213,7.0213,7.0144,7.0038,7.0038,7.0109,7.0213,7.0213,7.0144,7.0038,7.0038,7.0038,7.0076,7.0609,7.1368,7.2205,0.0,0.0,0.0,0.0,0.0,0.0,0.0,0.0,0.0,0.0,0.0,0.0,0.0,0.0,0.7747,0.7968,0.8631,0.9248,0.9804,0.9883,0.9849,0.9797,0.9794,0.9758,0.9668,0.9375,0.0,0.0,0.0,0.0,0.0,0.0,1.377,1.4812,1.5466,0.0,0.0,0.0,0.0,1.9216,0.0,0.0,2.6051,0.0,0.0,0.0,0.0,0.0,0.0,0.0,0.0,0.0,0.0,2.2603,2.261,2.4045,0.0,0.0,0.0,0.0,0.0,0.0,0.0,0.0,0.0,0.0,0.0,0.0,0.0,0.0,0.0,0.0,0.0,0.0,0.0,0.0,0.0,0.0,0.0,0.0,0.0,0.0,0.0,0.0,0.0,0.0,0.0,0.0,7.0179,7.0247,7.0315,7.0419,7.0419,7.0281,7.0109,7.0213,7.0179,7.0001,7.0144,7.0179,7.0109,7.0038,6.9965,6.9928,6.9853,6.9891,7.0001,7.0001,6.9928,6.9816,6.9816,6.9816,6.9891,7.0801,7.1597,7.2431,0.0,0.0,0.0,0.0,0.0,0.0,0.0,0.0,0.0,0.0,0.0,0.0,0.0,0.0,0.0,0.8389,0.8757,0.9065,0.9288,0.9448,0.9618,0.987,0.9939,1.0047,1.019,0.9336,0.0,0.0,0.0,0.0,0.0,0.0,1.4125,0.0,1.4928,1.5685,1.6981,0.0,1.8027,2.036,0.0,2.5106,2.625,0.0,0.0,0.0,3.3527,3.2789,0.0,0.0,0.0,0.0,0.0,0.0,0.0,0.0,0.0,0.0,0.0,0.0,0.0,0.0,0.0,0.0,0.0,0.0,0.0,0.0,0.0,0.0,0.0,0.0,0.0,0.0,0.0,0.0,0.0,0.0,0.0,0.0,0.0,0.0,0.0,0.0,0.0,0.0,0.0,6.8944,6.9702,6.9963,7.0179,7.0386,7.0419,7.0281,7.0109,7.0109,7.0001,6.9816,6.9816,6.9928,7.0073,6.9891,6.989,7.0073,6.9891,6.9816,6.9816,6.9816,6.9816,6.9816,6.9816,6.9816,6.9853,7.08,7.1596,7.2431,0.0,0.0,0.0,0.0,0.0,0.5875,0.5902,0.6276,0.6736,0.0,0.0,0.0,0.0,0.0,0.0,0.8786,0.884,0.9023,0.9306,0.9448,0.9502,0.9541,0.9612,0.9648,0.9685,0.9323,0.977,0.0,0.0,0.0,0.0,0.0,0.0,0.0,1.4322,1.5413,1.7236,1.7612,0.0,0.0,2.3535,2.5717,0.0,0.0,0.0,0.0,0.0,3.5215,3.4349,0.0,3.2299,2.9648,0.0,0.0,0.0,0.0,0.0,0.0,2.5973,0.0,0.0,0.0,0.0,0.0,0.0,0.0,0.0,0.0,0.0,0.0,0.0,0.0,0.0,0.0,0.0,0.0,0.0,0.0,0.0,0.0,0.0,0.0,0.0,0.0,0.0,0.0,6.8033,6.8527,6.8906,6.9659,7.0144,7.0179,7.0179,7.0109,6.9853,6.9891,6.9816,6.9582,6.9739,6.9778,6.9623,6.9622,6.9542,6.9457,6.9416,6.9374,6.9374,6.9542,6.9501,6.9374,6.9374,6.9374,6.9524,7.0992,7.167,7.2046,0.0,0.0,0.5903,0.5732,0.6163,0.6513,0.6562,0.7127,0.7704,0.0,0.0,0.0,0.0,0.0,0.0,0.0,0.9209,0.9311,0.9371,0.9681,0.9725,0.9411,0.9575,0.9665,0.9665,0.9293,0.9727,0.0,0.0,0.0,0.0,0.0,0.0,0.0,0.0,0.0,0.0,0.0,0.0,0.0,2.5003,0.0,0.0,3.1957,3.3877,0.0,0.0,0.0,3.5459,3.5926,3.4192,0.0,0.0,0.0,0.0,0.0,0.0,0.0,0.0,0.0,0.0,0.0,0.0,0.0,0.0,0.0,0.0,0.0,0.0,0.0,0.0,0.0,0.0,0.0,0.0,0.0,0.0,0.0,0.0,0.0,0.0,0.0,0.0,0.0,0.0,6.6287,6.6892,6.75,6.8413,6.9361,6.9928,7.0109,7.0038,6.9928,6.9816,6.9739,6.9582,6.9378,6.9501,6.9542,6.9501,6.9419,6.9374,6.9332,6.9246,6.9203,6.9203,6.9332,6.9332,6.9203,6.9203,6.9428,6.9917,7.1231,7.1907,7.2395,0.0,0.0,0.6386,0.641,0.6796,0.7204,0.7333,0.8058,0.8632,0.0,0.0,0.0,0.0,0.0,0.0,0.0,0.9766,0.9769,0.9554,1.0058,1.0124,0.9544,0.9817,0.9979,1.0015,0.9493,0.9745,0.0,0.0,0.0,0.0,0.0,0.0,0.0,1.4633,1.6103,0.0,0.0,0.0,2.3583,2.7107,2.9337,0.0,0.0,3.4475,0.0,3.6132,3.6015,3.5687,3.711,3.6024,0.0,0.0,0.0,0.0,0.0,2.6149,0.0,0.0,0.0,0.0,0.0,0.0,0.0,0.0,0.0,0.0,0.0,0.0,0.0,0.0,0.0,0.0,0.0,0.0,0.0,0.0,0.0,0.0,0.0,0.0,0.0,0.0,0.0,6.328,6.5069,6.5411,6.6281,6.8027,6.8822,6.9434,6.9885,6.9739,6.9664,6.9778,6.9582,6.9378,6.9203,6.9203,6.9289,6.946,6.9289,6.9289,6.946,6.9289,6.9203,6.9203,6.9203,6.9203,6.9203,6.9203,6.9729,7.0592,7.1419,7.2207,7.3033,0.6112,0.6258,0.6391,0.6416,0.6681,0.6943,0.7104,0.7807,0.8567,0.9354,0.0,0.0,0.0,0.0,0.0,0.0,0.0,1.0238,0.9917,0.9987,1.016,1.0362,1.0429,1.0555,1.0781,1.0667,1.0802,1.1217,0.0,0.0,0.0,0.0,0.0,0.0,0.0,0.0,0.0,0.0,0.0,2.5897,2.8267,0.0,3.2018,3.4115,3.5912,3.7329,3.7833,3.7875,3.7686,0.0,3.6462,3.5678,0.0,0.0,0.0,0.0,0.0,0.0,0.0,0.0,0.0,0.0,0.0,0.0,0.0,0.0,0.0,0.0,0.0,0.0,0.0,0.0,0.0,0.0,0.0,0.0,0.0,0.0,0.0,0.0,0.0,0.0,0.0,0.0,6.2795,6.3493,6.4772,6.5936,6.7033,6.7384,6.7881,6.8639,6.86,6.8902,6.9544,6.9374,6.9246,6.9203,6.9203,6.9203,6.9246,6.9203,6.9203,6.9246,6.9203,6.9203,6.9203,6.9203,6.9203,6.9203,6.9203,6.9729,7.0592,7.1419,7.2207,7.3033,0.6056,0.6235,0.6407,0.6382,0.6967,0.7573,0.7846,0.8791,0.971,0.0,0.0,0.0,0.0,0.0,0.0,0.0,0.0,0.0,1.0496,1.0795,1.0804,1.027,1.0378,1.0428,1.0351,1.0474,1.065,1.0838,0.0,0.0,0.0,0.0,0.0,0.0,0.0,0.0,0.0,0.0,2.4982,2.7729,2.9566,0.0,3.3366,3.5208,3.6523,3.7358,3.7801,3.8033,3.8044,3.7221,3.6763,0.0,0.0,3.4087,3.2971,0.0,2.8937,2.7839,0.0,0.0,0.0,2.8449,0.0,0.0,0.0,0.0,0.0,0.0,0.0,0.0,0.0,0.0,0.0,0.0,0.0,0.0,0.0,0.0,0.0,0.0,0.0,0.0,0.0,0.0,6.1135,6.2968,6.4209,6.5261,6.6124,6.6661,6.7384,6.8256,6.8173,6.8549,6.9501,6.9332,6.9203,6.9203,6.9203,6.9203,6.9203,6.9203,6.9203,6.9203,6.9203,6.9203,6.9203,6.9203,6.9203,6.9203,6.9203,6.9992,7.1156,7.1569,7.247,7.3596,0.5976,0.6116,0.6267,0.6395,0.7229,0.8063,0.8551,0.9743,1.0744,0.0,0.0,0.0,0.0,0.0,0.0,0.0,0.0,0.0,0.0,1.2234,1.1975,1.0777,1.0786,1.0723,1.0543,1.0631,1.0659,1.0629,0.0,0.0,0.0,0.0,0.0,0.0,0.0,0.0,0.0,0.0,0.0,2.8971,0.0,3.2914,3.4763,3.6321,3.694,3.7064,3.7395,3.7685,3.7879,3.7689,0.0,3.7216,3.6921,3.6191,0.0,0.0,0.0,0.0,0.0,0.0,0.0,0.0,0.0,3.0862,0.0,0.0,0.0,0.0,0.0,0.0,0.0,0.0,0.0,0.0,0.0,0.0,0.0,0.0,0.0,0.0,0.0,0.0,0.0,0.0,6.005,6.263,6.3871,6.466,6.5035,6.5861,6.6845,6.795,6.7823,6.8312,6.9419,6.9289,6.9203,6.9203,6.9203,6.9203,6.9203,6.9203,6.9203,6.9203,6.9203,6.9203,6.9203,6.9203,6.9203,6.9241,6.9391,7.0367,7.1719,7.1869,7.2883,7.4197,0.5728,0.5761,0.6002,0.6633,0.6881,0.7267,0.8098,0.9123,1.0463,0.0,0.0,0.0,0.0,0.0,0.0,0.0,0.0,0.0,1.4998,0.0,1.3978,1.3699,1.2997,1.2884,1.3498,1.3077,1.2398,1.1455,0.0,0.0,0.0,0.0,0.0,0.0,1.818,0.0,0.0,0.0,2.8626,0.0,3.2467,3.46,0.0,3.7116,3.793,3.8302,3.771,3.7685,3.7982,0.0,3.9153,3.9313,0.0,3.8546,3.8797,0.0,0.0,0.0,0.0,0.0,0.0,0.0,3.0725,0.0,0.0,0.0,0.0,0.0,0.0,0.0,0.0,0.0,0.0,0.0,0.0,0.0,0.0,0.0,0.0,0.0,0.0,0.0,0.0,0.0,0.0,6.1919,6.4059,6.4772,6.3458,6.4134,6.5339,6.6917,6.6954,6.7664,6.9246,6.9203,6.9203,6.9203,6.9203,6.9203,6.9203,6.9203,6.9203,6.9203,6.9203,6.9203,6.9203,6.9203,6.9203,6.9278,7.0067,7.0893,7.1794,7.2507,7.3371,7.4197,0.5728,0.5914,0.6259,0.6652,0.7227,0.7844,0.8479,0.9905,1.1406,0.0,0.0,0.0,0.0,0.0,0.0,0.0,0.0,1.732,0.0,0.0,0.0,1.5008,1.3799,1.3192,1.3252,1.2509,1.2069,1.2008,1.1489,0.0,0.0,0.0,0.0,0.0,1.9445,0.0,2.5845,0.0,0.0,0.0,0.0,0.0,0.0,3.7402,3.7777,3.7933,3.761,3.7567,3.7748,0.0,3.811,0.0,0.0,0.0,0.0,0.0,0.0,0.0,0.0,0.0,0.0,0.0,0.0,0.0,3.2284,0.0,3.2719,0.0,0.0,0.0,0.0,0.0,0.0,0.0,0.0,0.0,0.0,0.0,0.0,0.0,0.0,0.0,0.0,0.0,0.0,0.0,0.0,6.3796,6.3158,6.3871,6.4847,6.6011,6.6537,6.7326,6.849,6.8978,6.9203,6.9203,6.9203,6.9203,6.9203,6.9203,6.9203,6.9203,6.9203,6.9203,6.9203,6.9203,6.9203,6.9353,7.0668,7.1419,7.1794,7.262,7.3446,7.4197,0.5933,0.6191,0.6529,0.6817,0.7443,0.8254,0.9285,1.084,0.0,0.0,0.0,0.0,1.4739,1.5411,0.0,0.0,1.8644,1.9108,0.0,0.0,1.8238,1.7594,1.5705,0.0,1.4424,1.3195,1.2479,1.2339,1.1734,0.0,0.0,0.0,0.0,0.0,0.0,2.342,2.811,0.0,0.0,3.4138,3.4222,3.5595,3.7723,3.7864,3.7838,3.7796,3.7954,3.8109,3.8201,3.8331,3.8225,0.0,3.9301,0.0,0.0,0.0,0.0,0.0,3.5086,0.0,0.0,0.0,0.0,0.0,0.0,0.0,0.0,0.0,0.0,0.0,0.0,0.0,0.0,0.0,0.0,0.0,0.0,0.0,0.0,0.0,0.0,0.0,0.0,0.0,0.0,0.0,0.0,0.0,6.2745,6.3533,6.4434,6.5486,6.6349,6.7176,6.8002,6.8828,6.9203,6.9203,6.9203,6.9203,6.9203,6.9203,6.9203,6.9203,6.9203,6.9203,6.9203,6.9203,6.9353,6.9691,7.1156,7.1832,7.2132,7.2958,7.3672,7.4197,0.6401,0.6449,0.6634,0.7081,0.7228,0.8053,1.0387,1.1604,0.0,0.0,0.0,0.0,0.0,0.0,0.0,0.0,0.0,2.3724,2.2356,0.0,2.1903,2.2841,1.9897,1.8386,0.0,1.6734,1.4601,1.2389,1.2822,0.0,0.0,0.0,0.0,0.0,0.0,2.2197,2.5006,2.9346,3.2089,3.3652,3.5318,3.711,3.8635,0.0,3.87,3.8555,3.9218,0.0,0.0,4.0388,4.0895,0.0,0.0,0.0,0.0,0.0,0.0,0.0,0.0,0.0,0.0,3.5913,0.0,0.0,0.0,0.0,3.4588,0.0,0.0,0.0,0.0,0.0,0.0,0.0,0.0,0.0,0.0,0.0,0.0,0.0,0.0,0.0,0.0,0.0,0.0,0.0,0.0,0.0,6.1881,6.267,6.3871,6.5448,6.6349,6.7176,6.8002,6.8828,6.9203,6.9203,6.9203,6.9203,6.9203,6.9203,6.9203,6.9203,6.9203,6.9203,6.9203,6.9203,6.9691,7.0555,7.1381,7.217,7.2958,7.3859,7.4197,7.4197,0.7108,0.716,0.7229,0.7494,0.7874,0.8968,1.1209,1.2183,0.0,0.0,0.0,0.0,0.0,1.9144,2.0547,0.0,0.0,2.3303,2.3731,2.2679,0.0,0.0,0.0,1.8932,0.0,0.0,0.0,0.0,0.0,0.0,0.0,0.0,0.0,0.0,0.0,2.2782,0.0,0.0,0.0,0.0,0.0,3.7327,3.8825,0.0,0.0,3.9187,3.9408,3.9565,0.0,3.985,3.9976,4.0258,4.0543,4.1048,4.1326,4.103,4.0786,0.0,0.0,0.0,3.9779,3.8799,0.0,0.0,0.0,0.0,0.0,0.0,0.0,0.0,0.0,0.0,0.0,0.0,0.0,0.0,0.0,0.0,0.0,0.0,0.0,0.0,0.0,0.0,0.0,0.0,0.0,0.0,0.0,6.2332,6.3571,6.466,6.6049,6.6913,6.7176,6.8527,6.9203,6.9203,6.9203,6.9203,6.9203,6.9203,6.9203,6.9203,6.9203,6.9203,6.9203,6.9203,6.9729,7.0592,7.1381,7.2207,7.2996,7.3897,7.4197,7.4197,0.7192,0.7354,0.7629,0.7959,0.8745,0.9969,0.0,0.0,0.0,0.0,1.649,0.0,1.9214,0.0,2.0781,0.0,2.3238,2.3865,2.4967,2.3759,0.0,2.4305,2.2121,0.0,0.0,0.0,0.0,0.0,0.0,1.4499,0.0,0.0,0.0,0.0,0.0,0.0,2.661,0.0,3.2262,0.0,0.0,3.7382,0.0,0.0,3.8831,4.0293,0.0,4.064,4.064,4.064,4.064,4.0736,4.1119,4.1437,4.1721,4.2415,4.2466,4.2255,4.2044,4.221,0.0,4.1163,4.1461,0.0,3.9743,0.0,0.0,0.0,0.0,0.0,0.0,0.0,0.0,0.0,0.0,0.0,0.0,0.0,0.0,0.0,0.0,0.0,0.0,0.0,0.0,0.0,0.0,0.0,0.0,0.0,6.2707,6.3834,6.5486,6.6462,6.68,6.8415,6.9203,6.9203,6.9203,6.9203,6.9203,6.9203,6.9203,6.9203,6.9203,6.9203,6.9203,6.9203,6.9879,7.0968,7.1494,7.2207,7.2996,7.3897,7.4197,7.4122,0.6846,0.7171,0.783,0.0,0.9751,0.0,0.0,0.0,1.5195,0.0,1.8163,1.9173,2.0713,2.1849,2.2587,2.2981,2.4313,0.0,2.5841,2.5011,0.0,0.0,2.5239,2.4232,2.5089,0.0,0.0,0.0,0.0,0.0,0.0,0.0,0.0,0.0,1.8865,0.0,2.7967,2.8587,3.2082,3.7215,3.6606,3.7491,3.909,3.8508,3.9711,4.1778,4.2442,4.2726,4.2726,4.2726,4.2726,4.2631,4.1904,4.2141,4.2749,4.346,4.4212,4.4647,4.3946,4.3853,4.3757,4.3103,0.0,0.0,0.0,0.0,4.0411,0.0,0.0,0.0,0.0,0.0,0.0,0.0,0.0,0.0,0.0,0.0,0.0,0.0,0.0,0.0,0.0,0.0,0.0,0.0,0.0,0.0,0.0,0.0,0.0,6.3045,6.4697,6.5974,6.6762,6.8415,6.9203,6.9203,6.9203,6.9203,6.9203,6.9203,6.9203,6.9203,6.9203,6.9203,6.9203,6.9203,7.0217,7.1719,7.1719,7.2207,7.2996,7.3784,7.4122,7.3972,0.7107,0.789,0.8829,0.0,1.0961,1.2055,0.0,0.0,0.0,0.0,1.8532,1.9879,2.1633,2.2546,2.3391,2.4284,2.4884,0.0,0.0,0.0,0.0,2.5788,2.5094,2.4627,2.4434,2.2771,0.0,1.9592,0.0,0.0,1.6686,0.0,0.0,0.0,0.0,0.0,2.6972,2.8721,3.2197,3.6606,3.6925,3.8165,0.0,0.0,4.1219,4.2552,4.2209,4.2636,4.3453,4.3453,4.3453,4.3421,4.3232,4.2956,4.2842,4.3525,4.3451,4.3416,4.4673,4.4541,4.4224,4.4681,4.4798,4.455,0.0,0.0,0.0,0.0,0.0,0.0,0.0,0.0,0.0,0.0,0.0,0.0,0.0,0.0,0.0,0.0,0.0,0.0,0.0,0.0,0.0,0.0,0.0,0.0,0.0,0.0,0.0,6.3083,6.5298,6.6575,6.68,6.8415,6.9203,6.9203,6.9203,6.9203,6.9203,6.9203,6.9203,6.9203,6.9203,6.9203,6.9203,6.9203,7.0217,7.1719,7.1719,7.2207,7.2845,7.247,7.3146,7.3972,0.7583,0.0,0.0,1.0523,0.0,0.0,1.3691,0.0,0.0,1.8731,1.9722,0.0,2.2601,2.3216,2.371,2.4402,2.4978,0.0,2.5378,0.0,0.0,2.5709,2.5711,2.5734,2.5885,2.4684,0.0,2.24,0.0,0.0,1.8422,0.0,0.0,0.0,0.0,2.4942,0.0,3.1124,3.3939,3.6533,3.7084,0.0,0.0,4.0337,4.1602,4.294,4.2757,4.331,4.4148,4.4148,4.4148,4.4117,4.3801,4.3522,4.3508,4.423,4.4172,4.4161,4.5724,4.5715,4.5432,4.6049,4.632,4.6152,4.4878,4.476,4.4636,0.0,0.0,0.0,0.0,0.0,0.0,0.0,0.0,0.0,0.0,0.0,0.0,0.0,0.0,0.0,0.0,0.0,0.0,0.0,0.0,0.0,0.0,0.0,0.0,6.2482,6.4585,6.6049,6.6762,6.8415,6.9203,6.9203,6.9203,6.9203,6.9203,6.9203,6.9203,6.9203,6.9203,6.9203,6.9241,6.9616,7.033,7.1193,7.1193,7.1869,7.2695,7.1193,7.1681,7.2883,0.0,0.0,0.0,0.0,0.0,0.0,0.0,1.6031,0.0,2.0318,0.0,2.202,2.3236,2.3555,2.3687,2.3627,0.0,2.5501,2.5564,2.5872,2.6147,2.6689,2.6685,2.7105,2.8078,2.6842,0.0,0.0,0.0,0.0,0.0,0.0,0.0,0.0,0.0,0.0,0.0,3.4299,3.6184,0.0,3.7242,3.8144,3.9295,4.0009,4.131,4.2955,4.3723,4.4341,4.4843,4.4843,4.4843,4.4749,4.418,4.4135,4.4409,4.5117,4.5273,4.5565,4.6609,4.6753,4.6743,4.6971,4.7501,4.7582,4.6081,4.6133,4.6309,4.5572,4.4834,4.494,0.0,0.0,0.0,0.0,0.0,0.0,0.0,0.0,0.0,0.0,0.0,0.0,0.0,0.0,0.0,0.0,0.0,0.0,0.0,0.0,0.0,6.1693,6.3421,0.0,6.6913,0.0,6.9166,6.9391,6.9278,6.9203,6.9203,6.9203,6.9203,6.9203,6.9203,6.9203,6.9278,7.0142,7.0555,7.063,7.0517,7.1343,7.232,7.0067,7.0142,7.1156,0.0,0.0,0.0,0.0,0.0,1.475,1.686,1.8598,1.9832,2.0121,2.1316,2.2133,2.2039,2.2872,2.3338,2.2989,2.4247,0.0,0.0,0.0,0.0,2.7016,2.7387,2.7905,2.8402,2.7339,2.6743,0.0,0.0,0.0,0.0,0.0,0.0,0.0,0.0,0.0,3.2876,3.4939,0.0,3.7258,3.7854,3.8522,3.9324,4.0436,4.1424,4.2372,4.4065,4.5059,4.5634,4.5634,4.5634,4.5602,4.5476,4.5033,4.47,4.5107,4.4834,4.4685,4.5731,4.6385,4.6714,4.655,4.7608,4.8345,4.7249,4.7541,4.7889,4.7151,4.6871,4.6695,4.6484,0.0,0.0,0.0,0.0,0.0,0.0,0.0,0.0,0.0,0.0,0.0,0.0,0.0,0.0,0.0,0.0,0.0,0.0,0.0,0.0,0.0,0.0,0.0,0.0,0.0,6.8903,7.0255,6.9541,6.9203,6.9203,6.9203,6.9203,6.9203,6.9203,6.9203,6.9278,7.0142,7.0893,7.1419,7.0743,7.0668,7.078,6.9654,6.9391,6.9616,0.0,0.0,0.0,0.0,0.0,0.0,0.0,2.0058,0.0,2.0499,2.1514,2.2186,2.1913,2.2612,2.3037,2.285,2.4456,2.5386,2.5345,2.6576,2.7305,2.7227,2.7459,0.0,2.8175,2.7924,2.7663,2.7344,0.0,0.0,0.0,0.0,0.0,0.0,0.0,3.1744,0.0,0.0,0.0,3.7196,3.771,3.8553,3.9819,4.1056,4.1941,4.2723,4.4235,4.521,4.5822,4.5772,4.5823,4.5823,4.5823,4.557,4.5286,4.55,4.4992,4.4718,4.5736,4.6067,4.6205,4.6781,4.7967,4.8837,4.8012,4.864,4.9044,4.8153,4.831,4.8205,4.7046,4.6301,0.0,0.0,0.0,0.0,0.0,0.0,0.0,0.0,0.0,0.0,0.0,0.0,0.0,0.0,0.0,0.0,0.0,0.0,0.0,0.0,0.0,0.0,0.0,0.0,0.0,6.9842,6.9428,6.9203,6.9203,6.9203,6.8978,6.8602,6.9015,6.8978,6.864,6.9504,7.0592,7.1606,7.033,7.0104,7.0405,6.9541,6.9203,6.9203,0.0,1.3238,0.0,0.0,1.758,0.0,2.007,2.0807,2.1164,2.113,2.1707,2.2167,2.215,2.2636,2.3052,2.3148,2.4727,2.5643,2.5544,2.7083,2.7872,2.7568,2.7631,2.7861,2.8372,2.8561,2.8444,0.0,0.0,0.0,0.0,0.0,0.0,0.0,0.0,0.0,0.0,0.0,3.5823,3.7331,3.7825,3.888,4.043,4.143,4.2178,4.301,4.4358,4.5248,4.5758,4.6139,4.6266,4.6266,4.6266,4.6139,4.6013,4.6013,4.5507,4.5136,4.5961,4.5872,4.5891,4.69,4.823,4.9159,4.8761,4.9664,5.0354,4.9433,4.9609,4.9504,4.8135,4.7889,0.0,0.0,0.0,0.0,0.0,0.0,0.0,0.0,0.0,0.0,0.0,0.0,0.0,0.0,0.0,0.0,0.0,0.0,0.0,0.0,0.0,6.4434,6.7288,0.0,6.834,0.0,6.9128,6.9053,6.9203,6.9015,6.8602,6.8039,6.849,6.8527,6.8302,6.894,7.0104,7.1306,6.9804,6.9616,7.0142,6.9466,6.9203,6.9203,0.0,0.0,0.0,0.0,0.0,0.0,1.9351,2.0891,2.1873,2.1942,2.215,2.2167,2.215,2.2871,2.3632,2.4009,2.471,2.5605,2.6731,2.7549,2.8206,2.85,2.8545,2.8967,2.998,2.9127,2.9047,0.0,0.0,0.0,0.0,0.0,0.0,0.0,0.0,0.0,0.0,3.5739,3.6929,3.8482,3.8871,3.9886,4.1018,4.1157,4.1593,4.2398,4.4308,4.5026,4.5336,4.7119,4.7688,4.7688,4.7688,4.7245,4.6708,4.6708,4.6234,4.5728,4.5792,4.6275,4.6602,4.6429,4.8042,4.9723,4.9839,5.1055,5.2091,5.1745,5.1189,5.0522,4.9644,4.9469,4.9679,0.0,0.0,0.0,0.0,0.0,0.0,0.0,0.0,0.0,0.0,0.0,0.0,0.0,0.0,0.0,0.0,0.0,0.0,6.2895,0.0,6.4923,6.894,6.7589,0.0,7.0367,6.8828,6.849,6.9203,6.8452,6.8077,6.7964,6.7288,6.7814,6.9091,6.9203,6.9766,7.0517,6.9579,6.9278,6.9316,6.9241,6.9203,6.9203,0.0,0.0,0.0,0.0,0.0,0.0,0.0,2.1092,2.1438,2.2235,2.2975,2.3275,2.2925,2.356,2.4133,2.4813,2.5555,2.637,2.7306,2.8093,2.8685,2.9179,2.8901,2.9172,3.0074,2.9753,2.9759,0.0,0.0,0.0,0.0,0.0,0.0,0.0,0.0,3.494,3.5571,3.6448,3.7535,3.8703,3.9316,3.9996,4.0699,4.1101,4.1647,4.2391,4.3872,4.4877,4.5733,4.7336,4.7917,4.7909,4.7909,4.7688,4.7466,4.7466,4.7277,4.7056,4.7056,4.7277,4.7352,4.7061,4.8291,4.9651,4.985,5.111,5.2354,5.2507,5.2397,5.1891,5.0627,5.0768,5.0873,0.0,0.0,0.0,0.0,0.0,0.0,0.0,0.0,0.0,0.0,0.0,0.0,0.0,0.0,0.0,0.0,0.0,0.0,6.3721,0.0,6.4021,6.7701,6.6612,6.6762,6.8264,6.7589,6.7438,6.7739,6.7438,6.7288,6.7251,6.6913,6.7438,6.8527,6.9015,6.9428,6.9691,6.9353,6.9203,6.9203,6.9203,6.9203,6.9203,1.6043,0.0,1.9033,0.0,2.0361,2.0998,2.1477,2.1147,2.1312,2.2212,2.3267,2.3746,2.326,2.3772,2.4529,2.5197,2.5781,2.6552,2.7505,2.8164,2.8777,2.9467,2.9205,0.0,3.0537,3.0279,3.0296,3.0543,3.1404,0.0,0.0,3.2096,0.0,0.0,3.533,3.5571,3.5888,3.6902,3.7889,3.8767,3.9506,4.0124,4.0767,4.1424,4.1995,4.2681,4.4044,4.5119,4.6092,4.7722,4.823,4.8246,4.8401,4.8351,4.8193,4.8193,4.8035,4.7909,4.7909,4.7909,4.7858,4.769,4.8554,4.9693,5.0559,5.1613,5.2619,5.3136,5.3392,5.312,5.1821,5.1997,5.2067,5.1189,0.0,0.0,0.0,0.0,0.0,0.0,0.0,0.0,0.0,0.0,0.0,0.0,0.0,0.0,0.0,0.0,0.0,0.0,0.0,0.0,0.0,6.5824,6.5936,6.68,6.6537,6.6537,6.6762,6.6537,6.6274,6.6087,6.6575,6.71,6.7739,6.879,6.9203,6.9203,6.9203,6.9203,6.9203,6.9203,6.9203,6.9203,1.6815,1.7945,1.9087,2.0221,2.0384,2.04,2.04,2.1192,2.1778,2.2021,2.2793,2.312,2.2518,2.3538,2.4529,2.5197,2.5294,2.5954,2.7484,2.7579,2.8189,0.0,0.0,3.0164,3.1613,3.0606,3.0644,3.1649,0.0,0.0,2.7672,2.8985,3.1748,3.5683,3.5086,3.5493,3.6578,3.7126,3.7979,3.9169,3.9564,4.0378,4.1453,4.2053,4.2538,4.3222,4.5161,4.5892,4.6237,4.8245,4.8872,4.9035,4.963,4.9426,4.8889,4.8889,4.8415,4.7909,4.7909,4.7909,4.7953,4.8297,4.8957,5.0122,5.2499,5.3044,5.3279,5.3922,5.4198,5.4068,5.3296,5.3155,5.3401,5.4138,0.0,0.0,0.0,0.0,0.0,0.0,0.0,5.3456,5.598,0.0,0.0,0.0,0.0,0.0,0.0,0.0,0.0,6.1806,6.2632,0.0,6.5523,6.5523,6.5936,6.6762,6.5936,6.5974,6.6762,6.5899,6.5073,6.4397,6.6049,6.68,6.6913,6.8565,6.9203,6.9203,6.9203,6.9203,6.9203,6.9203,6.9203,6.9203,1.7652,1.9018,2.0319,2.0632,2.075,2.0852,2.1257,2.1541,2.1962,2.2706,2.3353,2.375,2.3911,2.4332,2.4987,0.0,2.6663,2.7319,0.0,2.886,2.9526,2.9969,3.0259,3.0964,3.2117,3.1854,3.2087,3.2779,0.0,0.0,0.0,3.3319,3.4651,3.6307,3.6117,3.6634,3.7648,3.8255,3.9062,3.9956,3.9955,4.06,4.1508,4.1355,4.2209,4.3446,4.4381,4.5258,4.6109,4.7643,4.824,4.8407,4.9582,4.9773,4.9584,4.9584,4.9457,4.9268,4.9268,4.9268,4.9173,4.8821,4.9309,4.9992,5.0772,5.263,5.4495,5.5444,5.5714,5.5389,5.4173,5.3963,5.3857,5.3576,5.312,0.0,0.0,0.0,0.0,0.0,0.0,5.4428,0.0,5.6689,0.0,0.0,0.0,0.0,0.0,0.0,0.0,0.0,6.267,0.0,6.5486,6.496,6.481,6.5073,6.481,6.481,6.5073,6.481,6.4847,6.5185,6.6312,6.71,6.7701,6.8753,6.9203,6.9203,6.9203,6.9203,6.9203,6.9203,6.9203,6.9203,1.8114,1.9626,2.0925,2.0925,2.1036,2.1219,2.1528,2.1745,2.222,2.3167,2.3618,2.4191,2.502,2.5154,0.0,2.6069,2.6871,2.7563,2.7976,2.9133,3.0002,3.045,3.0963,3.1675,3.2643,0.0,0.0,3.3573,3.3999,3.4786,3.5725,3.6141,3.6605,3.6958,3.6958,3.7452,3.8194,3.8663,3.9308,3.9984,4.0078,4.0576,4.1379,4.1495,4.2314,4.3561,4.4271,4.4977,4.5776,4.7076,4.7649,4.8072,4.9147,4.9661,4.9931,4.9931,4.9931,4.9931,4.9931,4.9931,4.9805,4.9394,4.9546,5.0048,5.057,5.2794,5.4969,5.557,5.5907,5.5809,5.4946,5.477,5.4595,5.4138,5.3787,5.3612,5.3612,0.0,0.0,0.0,0.0,0.0,0.0,5.7205,0.0,0.0,0.0,0.0,0.0,0.0,0.0,6.2857,6.2519,0.0,6.4585,6.4397,6.4284,6.4284,6.4284,6.4284,6.4284,6.4284,6.4735,6.5561,6.6425,6.7251,6.8077,6.8865,6.9203,6.9203,6.9203,6.9203,6.9203,6.9203,6.9203,6.9203,1.845,1.9702,0.0,0.0,2.1258,0.0,2.1481,2.1857,2.251,2.3593,2.3805,2.4386,2.5843,2.6004,2.5964,2.5595,0.0,0.0,0.0,2.8832,2.9864,3.093,3.1495,3.2239,3.3192,3.3203,3.3504,3.403,3.4977,3.6149,3.7443,3.7443,3.7555,3.7582,3.7582,3.7935,3.8477,3.8532,3.8857,3.9516,3.9997,4.054,4.1156,4.2288,4.3009,4.3582,4.4635,4.5138,4.5293,4.6462,4.7336,4.7988,4.8625,4.9309,4.9852,4.9931,4.9931,4.9931,4.9931,4.9931,4.9931,4.9931,4.9931,5.0214,5.1466,5.3335,5.4834,5.4643,5.5166,5.5589,5.5683,5.5613,5.5578,5.5578,5.4911,5.4384,5.4384,0.0,0.0,0.0,0.0,0.0,0.0,5.7914,5.7626,0.0,0.0,0.0,0.0,0.0,6.327,6.0867,6.2294,6.312,6.3195,6.3909,6.4284,6.4284,6.4284,6.4284,6.4284,6.4284,6.4772,6.5636,6.6425,6.7288,6.8152,6.8903,6.9203,6.9203,6.9203,6.9203,6.9203,6.9203,6.9203,6.9203,0.0,0.0,2.0665,2.1565,2.1783,2.1846,2.1846,2.2659,2.3448,2.4076,2.4969,2.5754,2.6389,2.6444,2.6714,2.7226,2.8349,2.9116,2.9268,3.1038,3.1902,3.1476,3.1929,3.2708,3.3821,3.3415,3.3761,3.4878,3.5654,3.6248,3.6704,3.7273,3.7772,3.8206,3.8206,3.8532,3.9129,3.959,4.0014,4.0563,4.0832,4.1442,4.2251,4.2152,4.3034,4.42,4.4434,4.5046,4.5866,4.6668,4.6989,4.7336,4.8573,4.8984,4.9228,4.9741,4.9931,4.9931,4.9931,4.9931,4.9931,4.9931,4.9931,5.0295,5.1782,5.2688,5.3761,5.5416,5.605,5.6571,5.714,5.6771,5.635,5.635,5.5718,5.5227,5.5227,5.5086,0.0,0.0,5.607,5.642,5.6652,5.7959,5.9522,0.0,0.0,0.0,0.0,6.4728,6.4397,6.2557,6.2895,6.3383,6.4021,6.4209,6.4284,6.4284,6.4284,6.4284,6.4284,6.4284,6.5073,6.65,6.6687,6.7589,6.894,6.9128,6.9203,6.9203,6.9203,6.9203,6.9203,6.9203,6.9203,6.9203,1.8822,1.9729,2.0772,2.1818,2.2084,2.2304,2.263,2.3319,2.4047,2.4798,2.5468,2.5992,2.6573,2.6756,2.7378,2.8662,2.9399,2.9982,3.0349,3.2081,3.2831,3.2306,3.3071,3.3727,3.4349,3.4583,3.5059,3.5784,3.6006,3.6468,3.7237,3.7616,3.829,3.921,3.921,3.9563,4.016,4.0485,4.0804,4.1041,4.1366,4.1895,4.241,4.2657,4.3243,4.4087,4.4583,4.5046,4.5595,4.6225,4.6814,4.7508,4.824,4.8903,4.9421,4.9741,4.9931,4.9931,4.9931,4.9931,4.9931,4.9931,4.9931,5.0153,5.1205,5.1804,5.2613,5.4465,5.5206,5.5865,5.7035,5.6877,5.6701,5.7087,5.6806,5.6561,5.6561,5.6561,0.0,5.6561,5.6823,5.7078,5.7326,5.825,5.967,6.1617,0.0,0.0,6.4112,6.4275,6.3944,6.312,6.3458,6.3871,6.4284,6.4284,6.4284,6.4284,6.4284,6.4284,6.4284,6.4284,6.5185,6.68,6.68,6.7701,6.9203,6.9203,6.9203,6.9203,6.9203,6.9203,6.9203,6.9203,6.9203,6.9203,1.9181,1.9967,2.0858,2.1992,2.237,2.2782,2.3239,2.3612,2.4273,2.5308,2.5604,2.5934,2.6445,2.7087,2.8047,2.9647,3.0093,3.0586,3.1381,3.2641,3.3246,3.318,3.4223,3.4877,3.4877,3.5924,3.6472,3.6677,3.6329,3.6963,3.8293,3.8359,3.9108,4.0323,4.0323,4.0621,4.1137,4.1218,4.1245,4.13,4.1896,4.2141,4.229,4.3231,4.3614,4.3804,4.4741,4.511,4.5321,4.5776,4.6726,4.7734,4.7904,4.8738,4.9741,4.9852,4.9931,4.9931,4.9931,4.9931,4.9931,4.9931,4.9931,5.001,5.037,5.0767,5.1557,5.3041,5.3817,5.4707,5.6449,5.6771,5.7122,5.8176,5.8035,5.793,5.8281,0.0,5.779,5.779,5.779,5.7973,5.8436,5.8623,5.9221,6.0298,6.0614,6.1394,0.0,6.299,6.3113,6.3231,6.3946,6.4284,6.4284,6.4284,6.4284,6.4284,6.4284,6.4284,6.4284,6.4434,6.5336,6.68,6.6913,6.7814,6.9203,6.9203,6.9203,6.9203,6.9203,6.9203,6.9203,6.9203,6.9203,6.9203,1.9444,1.9948,2.0594,2.2464,2.2895,2.2927,2.3039,2.3552,2.402,2.4528,2.5207,2.5803,2.6252,2.7567,2.8816,2.9755,3.123,3.2289,3.277,3.3682,3.4119,3.3704,3.4333,3.4978,3.5405,3.601,3.6464,3.6468,3.6972,3.7811,3.8711,3.938,4.0094,4.0974,4.0974,4.1028,4.1137,4.1652,4.1869,4.1924,4.2521,4.2738,4.2861,4.3396,4.3899,4.4303,4.4954,4.5413,4.5776,4.5895,4.6403,4.7163,4.7734,4.8407,4.9147,4.9741,4.9931,4.9931,4.9931,4.9931,4.9931,4.9931,4.9931,4.9931,5.001,5.0292,5.1156,5.3185,5.4022,5.5039,5.7102,5.7526,5.8316,6.0423,5.9089,5.8492,6.0493,0.0,5.779,5.779,5.779,5.7851,5.7912,5.8982,5.988,6.059,6.1775,6.2872,6.3593,6.3808,6.3896,6.3975,6.4169,6.4284,6.4284,6.4284,6.4284,6.4284,6.4284,6.4284,6.4322,6.4998,6.5861,6.6838,6.7513,6.834,6.9203,6.9203,6.9203,6.9203,6.9203,6.9203,6.9203,6.9203,6.9203,6.9203,1.9676,2.016,2.0771,2.2636,2.3022,2.3135,2.3472,2.3697,2.4194,2.5018,2.5628,2.618,2.6713,2.8014,2.9244,3.0439,3.1733,3.2912,3.3748,3.4272,3.4425,3.4207,3.5064,3.5933,3.6873,3.6796,3.6819,3.6819,3.6836,3.7593,3.8774,3.9162,4.0113,4.1598,4.1598,4.1788,4.2086,4.2358,4.2466,4.2493,4.2792,4.29,4.297,4.3423,4.3709,4.3993,4.4583,4.5046,4.5504,4.5504,4.6373,4.7508,4.7819,4.8573,4.9501,4.9821,4.9931,4.9931,4.9931,4.9931,4.9931,4.9931,4.9931,4.9931,4.9931,5.0058,5.0743,5.2638,5.3202,5.4127,5.6523,5.7359,5.8191,5.9826,5.9475,5.9405,6.0493,5.9721,5.9053,5.9053,5.9053,5.9053,5.9053,5.9611,6.0214,6.0819,6.1805,6.2682,6.3299,6.3698,6.3995,6.4121,6.4244,6.4284,6.4284,6.4284,6.4284,6.4284,6.4284,6.4284,6.4322,6.5148,6.5974,6.6838,6.7664,6.8452,6.9203,6.9203,6.9203,6.9203,6.9203,6.9203,6.9203,6.9203,6.9203,6.9203,1.9924,2.027,2.0845,2.2667,2.3022,2.3135,2.3585,2.3809,2.4273,2.5249,2.5957,2.6524,2.7082,2.8558,2.9937,3.1043,3.2176,3.3322,3.4379,3.4534,3.4534,3.4534,3.5511,3.658,3.7761,3.7379,3.7268,3.7372,3.6964,3.7562,3.9158,3.9158,4.0297,4.2222,4.2222,4.2466,4.29,4.29,4.29,4.29,4.29,4.29,4.297,4.3423,4.3586,4.3709,4.4209,4.4676,4.511,4.511,4.6255,4.7649,4.7819,4.8738,4.9661,4.9821,4.9931,4.9931,4.9931,4.9931,4.9931,4.9931,4.9931,4.9931,4.9931,4.9931,5.0338,5.1882,5.2383,5.3177,5.5312,5.6613,5.7744,5.9026,0.0,6.0036,6.0563,6.0317,6.0107,6.0107,6.0107,6.0107,6.0107,6.0107,6.0325,6.0962,6.1451,6.2005,6.2645,6.3121,6.3527,6.3878,6.4125,6.4284,6.4284,6.4284,6.4284,6.4284,6.4284,6.4284,6.4322,6.5336,6.6162,6.6838,6.7851,6.864,6.9203,6.9203,6.9203,6.9203,6.9203,6.9203,6.9203,6.9203,6.9203,6.9203,1.9924,2.027,2.0845,2.2667,2.3022,2.3006,2.3022,2.3585,2.4036,2.4464,2.5552,2.6388,2.6761,2.9297,3.1043,3.1063,3.3071,3.4379,3.4513,3.4534,3.4534,3.4534,3.5157,3.6036,3.7143,3.7096,3.7394,3.7926,3.7878,3.8669,4.0286,4.0286,4.1241,4.2819,4.2819,4.2846,4.29,4.29,4.29,4.29,4.29,4.29,4.297,4.3423,4.3586,4.3709,4.4209,4.4676,4.511,4.511,4.5927,4.7076,4.7734,4.8407,4.9066,4.9741,4.9931,4.9931,4.9931,4.9931,4.9931,4.9931,4.9931,4.9931,4.9931,4.9931,5.0136,5.1027,5.1882,5.2803,5.3649,5.5277,5.7192,5.9494,0.0,0.0,6.1932,6.0984,6.0107,6.0107,6.0107,6.0107,6.0107,6.0107,6.0325,6.0962,6.1022,6.1336,6.1951,6.2093,6.2471,6.3234,6.392,6.4284,6.4284,6.4284,6.4284,6.4284,6.4284,6.4284,6.4359,6.5974,6.6725,6.6875,6.8452,6.9166,6.9203,6.9203,6.9203,6.9203,6.9203,6.9203,6.9203,6.9203,6.9203,6.9203,1.9229,1.9461,2.0026,2.1858,2.2085,2.2312,2.2893,2.3472,2.4066,2.4536,2.5639,2.6632,2.7368,2.9331,3.0882,3.1445,3.3098,3.4207,3.4513,3.4534,3.4624,3.5046,3.5268,3.5927,3.7036,3.7143,3.7441,3.7974,3.7974,3.8792,4.0414,4.0414,4.1345,4.29,4.29,4.29,4.29,4.29,4.29,4.29,4.29,4.29,4.29,4.3067,4.3163,4.3163,4.3355,4.4021,4.4676,4.4676,4.5656,4.6901,4.7163,4.7988,4.9066,4.9661,4.9931,4.9931,4.9931,4.9931,4.9931,4.9931,4.9931,4.9931,4.9931,4.9931,5.0136,5.0951,5.1736,5.2561,5.3448,5.5046,5.6578,5.7576,0.0,5.9299,6.0177,6.0177,6.0107,6.0107,6.0107,6.0107,6.0107,6.0107,6.0234,6.045,6.0782,6.114,6.1336,6.2129,6.2708,6.3036,6.3792,6.4203,6.4284,6.4284,6.4284,6.4284,6.4284,6.4284,6.4359,6.6011,6.68,6.6875,6.849,6.9203,6.9203,6.9203,6.9203,6.9203,6.9203,6.9203,6.9203,6.9203,6.9203,6.9203,1.8765,1.8881,1.9448,2.1274,2.1616,2.1972,2.2893,2.3553,2.4149,2.4479,2.5674,2.6775,2.7386,2.9086,3.0472,3.1341,3.2734,3.3698,3.4043,3.4289,3.4624,3.5046,3.5268,3.5817,3.6796,3.7012,3.7441,3.7974,3.7974,3.8792,4.0414,4.0414,4.1345,4.29,4.29,4.29,4.29,4.29,4.29,4.29,4.29,4.29,4.29,4.29,4.29,4.29,4.3067,4.3642,4.4397,4.4583,4.5504,4.6668,4.6844,4.7819,4.9066,4.9661,4.9931,4.9931,4.9931,4.9931,4.9931,4.9931,4.9931,4.9931,4.9931,4.9931,5.0089,5.0602,5.1484,5.242,5.3112,5.4647,5.5854,5.6003,5.7491,5.8632,5.8632,5.9475,6.0107,6.0107,6.0107,6.0107,6.0107,6.0107,6.0107,6.0107,6.0512,6.0722,6.0722,6.1915,6.2595,6.2608,6.3527,6.4079,6.4162,6.4244,6.4284,6.4284,6.4284,6.4284,6.4359,6.6011,6.68,6.6875,6.849,6.9203,6.9203,6.9203,6.9203,6.9203,6.9203,6.9203,6.9203,6.9203,6.9203,6.9203,1.8765,1.8881,1.9448,2.1274,2.1616,2.1972,2.2893,2.3748,2.43,2.397,2.556,2.6849,2.6867,2.8688,2.9911,3.0353,3.2092,3.3119,3.3119,3.3952,3.4534,3.4534,3.5046,3.5708,3.6277,3.682,3.7334,3.7974,3.7974,3.8792,4.0414,4.0414,4.1345,4.29,4.29,4.29,4.29,4.29,4.29,4.29,4.29,4.29,4.29,4.29,4.29,4.297,4.3423,4.3899,4.449,4.4954,4.5504,4.6075,4.6668,4.7819,4.9066,4.9661,4.9931,4.9931,4.9931,4.9931,4.9931,4.9931,4.9931,4.9931,4.9931,4.9931,4.9931,4.9931,5.1112,5.2279,5.2454,5.3878,5.5053,5.5199,5.665,5.779,5.779,5.9124,6.0072,6.0072,6.0072,6.0072,6.0107,6.0107,6.0107,6.0107,6.0107,6.0107,6.0107,6.1221,6.1915,6.2003,6.3168,6.3823,6.3915,6.4162,6.4284,6.4284,6.4284,6.4284,6.4359,6.6011,6.68,6.6875,6.849,6.9203,6.9203,6.9203,6.9203,6.9203,6.9203,6.9203,6.9203,6.9203,6.9203,6.9203,1.783,1.7948,1.8519,2.0371,2.0716,2.1174,2.278,2.3553,2.4232,2.4851,2.5604,2.6578,2.7767,2.8842,2.9698,3.0315,3.2092,3.3346,3.4065,3.4289,3.4534,3.4534,3.4624,3.529,3.6277,3.6495,3.7012,3.7974,3.7974,3.8792,4.0414,4.0414,4.1345,4.29,4.29,4.29,4.29,4.29,4.29,4.29,4.29,4.29,4.29,4.29,4.29,4.297,4.3423,4.3899,4.449,4.4954,4.5504,4.6135,4.7249,4.7904,4.8407,4.9582,4.9931,4.9931,4.9931,4.9931,4.9931,4.9931,4.9931,4.9931,4.9931,4.9931,5.0058,5.0602,5.1516,5.242,5.3009,5.4171,5.4992,5.5053,5.6134,5.6947,5.6947,5.7825,5.8702,5.9264,5.9334,5.9545,6.0036,6.0107,6.0107,6.0107,6.0107,6.0107,6.0107,6.0843,6.1508,6.1915,6.2745,6.3391,6.3823,6.4079,6.4162,6.4162,6.4244,6.4585,6.5185,6.6274,6.71,6.7701,6.8753,6.9203,6.9203,6.9203,6.9203,6.9203,6.9203,6.9203,6.9203,6.9203,6.9203,6.9203,1.7479,1.7479,1.8064,1.9924,2.027,2.096,2.2667,2.3473,2.4039,2.4687,2.5414,2.6293,2.7597,2.8403,2.9183,2.9747,3.1516,3.3119,3.4401,3.4534,3.4534,3.4534,3.4534,3.4958,3.5927,3.6386,3.6904,3.7655,3.7868,3.8792,4.0414,4.0414,4.1345,4.29,4.29,4.29,4.29,4.29,4.29,4.29,4.29,4.29,4.29,4.29,4.29,4.297,4.3423,4.3804,4.4209,4.4833,4.5685,4.6491,4.7563,4.8072,4.849,4.9582,4.9931,4.9931,4.9931,4.9931,4.9931,4.9931,4.9931,4.9931,4.9931,4.9931,5.0136,5.0951,5.1663,5.2491,5.3348,5.4269,5.493,5.5053,5.5863,5.6535,5.6596,5.7298,5.8105,5.8913,5.9018,5.9299,6.0036,6.0107,6.0107,6.0107,6.0107,6.0107,6.0107,6.0661,6.1279,6.1897,6.2493,6.3121,6.3691,6.391,6.3995,6.4,6.4083,6.4574,6.5399,6.6261,6.7085,6.791,6.8735,6.9109,6.9116,6.9116,6.916,6.9203,6.9203,6.9203,6.9203,6.9203,6.9203,6.9203,1.7479,1.7479,1.8064,1.9924,2.027,2.096,2.2667,2.3292,2.3616,2.4003,2.5087,2.6238,2.6902,2.7821,2.8553,2.9057,3.082,3.2664,3.4401,3.4534,3.4534,3.4534,3.4534,3.4736,3.5378,3.6472,3.7036,3.7143,3.7655,3.8792,4.0414,4.0414,4.1345,4.29,4.29,4.29,4.29,4.29,4.29,4.29,4.29,4.29,4.29,4.29,4.29,4.297,4.3423,4.3586,4.3776,4.4741,4.5837,4.6989,4.7649,4.8407,4.9066,4.9661,4.9931,4.9931,4.9931,4.9931,4.9931,4.9931,4.9931,4.9931,4.9931,4.9931,5.0136,5.1027,5.1704,5.2457,5.3515,5.4269,5.4904,5.5139,5.5828,5.6344,5.649,5.7122,5.7895,5.8702,5.8843,5.9194,5.9931,6.0072,6.0107,6.0107,6.0107,6.0107,6.0107,6.06,6.1221,6.1897,6.2391,6.2929,6.3602,6.3647,6.378,6.3873,6.3915,6.4401,6.5335,6.6082,6.6866,6.7763,6.8585,6.8929,6.8983,6.8983,6.9072,6.916,6.916,6.916,6.916,6.9203,6.9203,6.9203,1.7479,1.7479,1.8064,1.9924,2.027,2.096,2.2667,2.3424,2.4102,2.4998,2.5718,2.6733,2.7955,2.8217,2.8904,3.0001,3.1747,3.3254,3.4401,3.4534,3.4534,3.4534,3.4534,3.4736,3.5378,3.6145,3.6712,3.7143,3.7655,3.8792,4.0414,4.0414,4.1345,4.29,4.29,4.29,4.29,4.29,4.29,4.29,4.29,4.29,4.29,4.29,4.29,4.297,4.3423,4.3586,4.3776,4.4741,4.5627,4.6491,4.7563,4.8407,4.9066,4.9661,4.9931,4.9931,4.9931,4.9931,4.9931,4.9931,4.9931,4.9931,4.9931,4.9931,5.026,5.1704,5.2065,5.263,5.4042,5.4557,5.4842,5.4992,5.5279,5.5539,5.5694,5.5894,5.628,5.7017,5.7684,5.8386,5.9159,5.9756,6.0107,6.0107,6.0107,6.0107,6.0107,6.0199,6.0782,6.1842,6.2005,6.2581,6.3602,6.3158,6.3252,6.3823,6.3873,6.47,6.6157,6.6306,6.7203,6.8622,6.8846,6.8921,6.8929,6.8929,6.8929,6.8975,6.9027,6.9027,6.9072,6.916,6.9203,6.9203,1.7479,1.7479,1.8064,1.9924,2.027,2.096,2.2667,2.3247,2.3811,2.4855,2.5629,2.6646,2.7831,2.8436,2.9343,3.0937,3.2322,3.348,3.4423,3.4534,3.4534,3.4534,3.4534,3.4624,3.4958,3.5598,3.6254,3.7143,3.7655,3.8792,4.0414,4.0414,4.1345,4.29,4.29,4.29,4.29,4.29,4.29,4.29,4.29,4.29,4.29,4.29,4.29,4.2873,4.3163,4.3423,4.3681,4.4181,4.5417,4.6755,4.7362,4.8407,4.9501,4.9821,4.9931,4.9931,4.9931,4.9931,4.9931,4.9931,4.9931,4.9931,4.9931,4.9931,5.0338,5.1921,5.2208,5.27,5.4205,5.4592,5.4717,5.4904,5.4992,5.5139,5.5354,5.5448,5.5788,5.6526,5.6982,5.7684,5.8878,5.9685,6.0107,6.0107,6.0107,6.0107,6.0107,6.0107,6.0538,6.1451,6.1451,6.1897,6.2818,6.2479,6.2493,6.2917,6.3168,6.4244,6.5838,6.6147,6.7133,6.8697,6.8697,6.8782,6.8791,6.8791,6.8875,6.8921,6.8929,6.8975,6.8975,6.902,6.9109,6.9116,1.7479,1.7479,1.8064,1.9924,2.027,2.096,2.2667,2.3135,2.3457,2.4187,2.5405,2.651,2.7275,2.8564,3.0138,3.1632,3.2778,3.3706,3.4401,3.4534,3.4534,3.4534,3.4534,3.4513,3.4624,3.5157,3.5927,3.6904,3.7548,3.8687,4.0211,4.0211,4.1045,4.2679,4.2679,4.2776,4.29,4.29,4.29,4.29,4.29,4.29,4.29,4.29,4.29,4.29,4.29,4.3163,4.3519,4.3586,4.5115,4.7016,4.7189,4.8377,4.9852,4.9931,4.9931,4.9931,4.9931,4.9931,4.9931,4.9931,4.9931,4.9931,4.9931,4.9931,5.0338,5.1921,5.2208,5.27,5.4205,5.4494,5.4592,5.478,5.4904,5.5053,5.5199,5.5354,5.5659,5.635,5.6631,5.7368,5.8878,5.9685,6.0107,6.0107,6.0107,6.0107,6.0107,6.0107,6.0388,6.0962,6.1022,6.1279,6.1897,6.1787,6.1732,6.1732,6.2287,6.3525,6.5206,6.5681,6.6887,6.8506,6.8506,6.8554,6.865,6.865,6.8697,6.8791,6.8875,6.8875,6.8875,6.8884,6.8975,6.9027,1.7479,1.7479,1.8064,1.9924,2.027,2.096,2.2667,2.3472,2.3825,2.3987,2.5611,2.6885,2.692,2.9661,3.1516,3.1747,3.3367,3.4401,3.4513,3.4534,3.4534,3.4534,3.4534,3.4736,3.5268,3.5378,3.5708,3.6386,3.6904,3.7974,3.9312,3.9312,4.0236,4.1895,4.1895,4.2289,4.29,4.29,4.29,4.29,4.29,4.29,4.29,4.29,4.29,4.29,4.29,4.297,4.3067,4.3423,4.4776,4.6373,4.7016,4.8293,4.9661,4.9852,4.9931,4.9931,4.9931,4.9931,4.9931,4.9931,4.9931,4.9931,4.9931,4.9931,5.0338,5.1921,5.2208,5.27,5.4205,5.4494,5.4592,5.478,5.4842,5.4869,5.5139,5.5199,5.5329,5.5648,5.6842,5.8,5.8913,5.9685,6.0107,6.0107,6.0107,6.0107,6.0107,6.0107,6.0388,6.0962,6.1022,6.1279,6.1897,6.1394,6.114,6.114,6.1732,6.3109,6.5206,6.5257,6.6482,6.8506,6.8506,6.8506,6.8506,6.8506,6.8506,6.8554,6.865,6.8697,6.8744,6.8892,6.8983,6.9027,1.7479,1.7479,1.8064,1.9924,2.027,2.096,2.2667,2.3247,2.3424,2.3618,2.507,2.6249,2.6667,2.9737,3.1747,3.1747,3.348,3.4534,3.4534,3.4534,3.4534,3.4534,3.4534,3.4624,3.4847,3.4958,3.54,3.6277,3.682,3.7868,3.9233,3.9233,4.0058,4.1696,4.1696,4.219,4.29,4.29,4.29,4.29,4.29,4.29,4.29,4.29,4.29,4.29,4.29,4.29,4.297,4.3776,4.4932,4.6285,4.7276,4.8573,4.9613,4.9852,4.9931,4.9931,4.9931,4.9931,4.9931,4.9931,4.9931,4.9931,4.9931,4.9931,5.0338,5.1921,5.2208,5.27,5.4205,5.4494,5.4529,5.4655,5.4717,5.4842,5.493,5.5079,5.5259,5.5507,5.6455,5.7263,5.7614,5.8773,5.9475,5.9475,5.9861,6.0107,6.0107,6.0107,6.0199,6.0512,6.0512,6.06,6.0867,6.06,6.0512,6.0512,6.1245,6.2651,6.4694,6.5396,6.6753,6.8506,6.8506,6.8506,6.8506,6.8506,6.8506,6.8506,6.8554,6.8554,6.8602,6.8884,6.8929,6.8975]},{"header":{"parameterUnit":"m.s-1","parameterCategory":1,"la1":30.6,"la2":28.766,"lo1":-90.7593,"lo2":-88.6598,"dx":0.0162,"dy":0.0183,"nx":116,"ny":114,"refTime":"2023-01-09T06:00:00:Z","depth":0,"parameterNumber":3,"parameterNumberName":"V-component_of_WINDS"},"data":[0.0,0.0,0.0,0.0,0.0,0.0,0.0,0.0,0.0,0.0,0.0,0.0,0.0,0.0,0.0,0.0,0.0,0.0,0.0,0.0,0.0,0.0,0.0,0.0,0.0,0.0,0.0,0.0,0.0,0.0,0.0,0.0,0.0,0.0,0.0,0.0,0.0,0.0,0.0,0.0,0.0,0.0,0.0,0.0,0.0,0.0,0.0,0.0,0.0,0.0,0.0,0.0,0.0,0.0,0.0,0.0,0.0,0.0,0.0,0.0,0.0,0.0,0.0,0.0,0.0,0.0,0.0,0.0,0.0,0.0,0.0,0.0,0.0,0.0,0.0,0.0,0.0,0.0,0.0,0.0,0.0,0.0,0.0,0.0,0.0,0.0,0.0,0.0,0.0,0.0,0.0,0.0,0.0,0.0,0.0,0.0,0.0,0.0,0.0,0.0,0.0,0.0,0.0,0.0,0.0,0.0,0.0,0.0,0.0,0.0,0.0,0.0,0.0,0.0,0.0,0.0,0.0,0.0,0.0,0.0,0.0,0.0,0.0,0.0,0.0,0.0,0.0,0.0,0.0,0.0,0.0,0.0,0.0,0.0,0.0,0.0,0.0,0.0,0.0,0.0,0.0,0.0,0.0,0.0,0.0,0.0,0.0,0.0,0.0,0.0,0.0,0.0,0.0,0.0,0.0,0.0,0.0,0.0,0.0,0.0,0.0,0.0,0.0,0.0,0.0,0.0,0.0,0.0,0.0,0.0,0.0,0.0,0.0,0.0,0.0,0.0,0.0,0.0,0.0,0.0,0.0,0.0,0.0,0.0,0.0,0.0,0.0,0.0,0.0,0.0,0.0,0.0,0.0,0.0,0.0,0.0,0.0,0.0,0.0,0.0,0.0,0.0,0.0,0.0,0.0,0.0,0.0,0.0,0.0,0.0,0.0,0.0,0.0,0.0,0.0,0.0,0.0,0.0,0.0,0.0,0.0,0.0,0.0,0.0,0.0,0.0,0.0,0.0,0.0,0.0,0.0,0.0,0.0,0.0,0.0,0.0,0.0,0.0,0.0,0.0,0.0,0.0,0.0,0.0,0.0,0.0,0.0,0.0,0.0,0.0,0.0,0.0,0.0,0.0,0.0,0.0,0.0,0.0,0.0,0.0,0.0,0.0,0.0,0.0,0.0,0.0,0.0,0.0,0.0,0.0,0.0,0.0,0.0,0.0,0.0,0.0,0.0,0.0,0.0,0.0,0.0,0.0,0.0,0.0,0.0,0.0,0.0,0.0,0.0,0.0,0.0,0.0,0.0,0.0,0.0,0.0,0.0,0.0,0.0,0.0,0.0,0.0,0.0,0.0,0.0,0.0,0.0,0.0,0.0,0.0,0.0,0.0,0.0,0.0,0.0,0.0,0.0,0.0,0.0,0.0,0.0,0.0,0.0,0.0,0.0,0.0,0.0,0.0,0.0,0.0,0.0,0.0,0.0,0.0,0.0,0.0,0.0,0.0,0.0,0.0,0.0,0.0,0.0,0.0,0.0,0.0,0.0,0.0,0.0,0.0,0.0,0.0,0.0,0.0,0.0,0.0,0.0,0.0,0.0,0.0,0.0,0.0,0.0,0.0,0.0,0.0,0.0,0.0,0.0,0.0,0.0,0.0,0.0,0.0,0.0,0.0,0.0,0.0,0.0,0.0,0.0,0.0,0.0,0.0,0.0,0.0,0.0,0.0,0.0,0.0,0.0,0.0,0.0,0.0,0.0,0.0,0.0,0.0,0.0,0.0,0.0,0.0,0.0,0.0,0.0,0.0,0.0,0.0,0.0,0.0,0.0,0.0,0.0,0.0,0.0,0.0,0.0,0.0,0.0,0.0,0.0,0.0,0.0,0.0,0.0,0.0,0.0,0.0,0.0,0.0,0.0,0.0,0.0,0.0,0.0,0.0,0.0,0.0,0.0,0.0,0.0,0.0,0.0,0.0,0.0,0.0,0.0,0.0,0.0,0.0,0.0,0.0,0.0,0.0,0.0,0.0,0.0,0.0,0.0,0.0,0.0,0.0,0.0,0.0,0.0,0.0,0.0,0.0,0.0,0.0,0.0,0.0,0.0,0.0,0.0,0.0,0.0,0.0,0.0,0.0,0.0,0.0,0.0,0.0,0.0,0.0,0.0,0.0,0.0,0.0,0.0,0.0,0.0,0.0,0.0,0.0,0.0,0.0,0.0,0.0,0.0,0.0,0.0,0.0,0.0,0.0,0.0,0.0,0.0,0.0,0.0,0.0,0.0,0.0,0.0,0.0,0.0,0.0,0.0,0.0,0.0,0.0,0.0,0.0,0.0,0.0,0.0,0.0,0.0,0.0,0.0,0.0,0.0,0.0,0.0,0.0,0.0,0.0,0.0,0.0,0.0,0.0,0.0,0.0,0.0,0.0,0.0,0.0,0.0,0.0,0.0,0.0,0.0,0.0,0.0,0.0,0.0,0.0,0.0,0.0,0.0,0.0,0.0,0.0,0.0,0.0,0.0,0.0,0.0,0.0,0.0,0.0,0.0,0.0,0.0,0.0,0.0,0.0,0.0,0.0,0.0,0.0,0.0,0.0,0.0,0.0,0.0,0.0,0.0,0.0,0.0,0.0,0.0,0.0,0.0,0.0,0.0,0.0,0.0,0.0,0.0,0.0,0.0,0.0,0.0,0.0,0.0,0.0,0.0,0.0,0.0,0.0,0.0,0.0,0.0,0.0,0.0,0.0,0.0,0.0,0.0,0.0,0.0,0.0,0.0,0.0,0.0,0.0,0.0,0.0,0.0,0.0,0.0,0.0,0.0,0.0,0.0,0.0,0.0,0.0,0.0,0.0,0.0,0.0,0.0,0.0,0.0,0.0,0.0,0.0,0.0,0.0,0.0,0.0,0.0,0.0,0.0,0.0,0.0,0.0,0.0,0.0,0.0,0.0,0.0,0.0,0.0,0.0,0.0,0.0,0.0,0.0,0.0,0.0,0.0,0.0,0.0,0.0,0.0,0.0,0.0,0.0,0.0,0.0,0.0,0.0,0.0,0.0,0.0,0.0,0.0,0.0,0.0,0.0,0.0,0.0,0.0,0.0,0.0,0.0,0.0,0.0,0.0,0.0,0.0,0.0,0.0,0.0,0.0,0.0,0.0,0.0,0.0,0.0,0.0,0.0,0.0,0.0,0.0,0.0,0.0,0.0,0.0,0.0,0.0,0.0,0.0,0.0,0.0,0.0,0.0,0.0,0.0,0.0,0.0,0.0,0.0,0.0,0.0,0.0,0.0,0.0,0.0,0.0,0.0,0.0,0.0,0.0,0.0,0.0,0.0,0.0,0.0,0.0,0.0,0.0,0.0,0.0,0.0,0.0,0.0,0.0,0.0,0.0,0.0,0.0,0.0,0.0,0.0,0.0,0.0,0.0,0.0,0.0,0.0,0.0,0.0,0.0,0.0,0.0,0.0,0.0,0.0,0.0,0.0,0.0,0.0,0.0,0.0,0.0,0.0,0.0,0.0,0.0,0.0,0.0,0.0,0.0,0.0,0.0,0.0,0.0,0.0,0.0,0.0,0.0,0.0,0.0,0.0,0.0,0.0,0.0,0.0,0.0,0.0,0.0,0.0,0.0,0.0,0.0,0.0,0.0,0.0,0.0,0.0,0.0,0.0,0.0,0.0,0.0,0.0,0.0,0.0,0.0,0.0,0.0,0.0,0.0,0.0,0.0,0.0,0.0,0.0,0.0,0.0,0.0,0.0,0.0,0.0,0.0,0.0,0.0,0.0,0.0,0.0,0.0,0.0,0.0,0.0,0.0,0.0,0.0,0.0,0.0,0.0,0.0,0.0,0.0,0.0,0.0,0.0,0.0,0.0,0.0,0.0,0.0,0.0,0.0,0.0,0.0,0.0,0.0,0.0,0.0,0.0,0.0,0.0,0.0,0.0,0.0,0.0,0.0,0.0,0.0,0.0,0.0,0.0,0.0,0.0,0.0,0.0,0.0,0.0,0.0,0.0,0.0,0.0,0.0,0.0,0.0,0.0,0.0,0.0,0.0,0.0,0.0,0.0,0.0,0.0,0.0,0.0,0.0,0.0,0.0,0.0,0.0,0.0,0.0,0.0,0.0,0.0,0.0,0.0,0.0,0.0,0.0,0.0,0.0,0.0,0.0,0.0,0.0,0.0,0.0,0.0,0.0,0.0,0.0,0.0,0.0,0.0,0.0,0.0,0.0,0.0,0.0,0.0,0.0,0.0,0.0,0.0,0.0,0.0,0.0,0.0,0.0,0.0,0.0,0.0,0.0,0.0,0.0,0.0,0.0,0.0,0.0,0.0,0.0,0.0,0.0,0.0,0.0,0.0,0.0,0.0,0.0,0.0,0.0,0.0,0.0,0.0,0.0,0.0,0.0,0.0,0.0,0.0,0.0,0.0,0.0,0.0,0.0,0.0,0.0,0.0,0.0,0.0,0.0,0.0,0.0,0.0,0.0,0.0,0.0,0.0,0.0,0.0,0.0,0.0,0.0,0.0,0.0,0.0,0.0,0.0,0.0,0.0,0.0,0.0,0.0,0.0,0.0,0.0,0.0,0.0,0.0,0.0,0.0,0.0,0.0,0.0,0.0,0.0,0.0,0.0,0.0,0.0,0.0,0.0,0.0,0.0,0.0,0.0,0.0,0.0,0.0,0.0,0.0,0.0,0.0,0.0,0.0,0.0,0.0,0.0,0.0,0.0,0.0,0.0,0.0,0.0,0.0,0.0,0.0,0.0,0.0,0.0,0.0,0.0,0.0,0.0,0.0,0.0,0.0,0.0,0.0,0.0,0.0,0.0,0.0,0.0,0.0,0.0,0.0,0.0,0.0,0.0,0.0,0.0,0.0,0.0,0.0,0.0,0.0,0.0,0.0,0.0,0.0,0.0,0.0,0.0,0.0,0.0,0.0,0.0,0.0,0.0,0.0,0.0,0.0,0.0,0.0,0.0,0.0,0.0,0.0,0.0,0.0,0.0,0.0,0.0,0.0,0.0,0.0,0.0,0.0,0.0,0.0,0.0,0.0,0.0,0.0,0.0,0.0,0.0,0.0,0.0,0.0,0.0,0.0,0.0,0.0,0.0,0.0,0.0,0.0,0.0,0.0,0.0,0.0,0.0,0.0,0.0,0.0,0.0,0.0,0.0,0.0,0.0,0.0,0.0,0.0,0.0,0.0,0.0,0.0,0.0,0.0,0.0,0.0,0.0,0.0,0.0,0.0,0.0,0.0,0.0,0.0,0.0,0.0,0.0,0.0,0.0,0.0,0.0,0.0,0.0,0.0,0.0,0.0,0.0,0.0,0.0,0.0,0.0,0.0,0.0,0.0,0.0,0.0,0.0,0.0,0.0,0.0,0.0,0.0,0.0,0.0,0.0,0.0,0.0,0.0,0.0,0.0,0.0,0.0,0.0,0.0,0.0,0.0,0.0,0.0,0.0,0.0,0.0,0.0,0.0,0.0,0.0,0.0,0.0,0.0,0.0,0.0,0.0,0.0,0.0,0.0,0.0,0.0,0.0,0.0,0.0,0.0,0.0,0.0,0.0,0.0,0.0,0.0,0.0,0.0,0.0,0.0,0.0,0.0,0.0,0.0,0.0,0.0,0.0,0.0,0.0,0.0,0.0,0.0,0.0,0.0,0.0,0.0,0.0,0.0,0.0,0.0,0.0,0.0,0.0,0.0,0.0,0.0,0.0,0.0,0.0,0.0,0.0,0.0,0.0,0.0,0.0,0.0,0.0,0.0,0.0,0.0,0.0,0.0,0.0,0.0,0.0,0.0,0.0,0.0,0.0,0.0,0.0,0.0,0.0,0.0,0.0,0.0,0.0,0.0,0.0,0.0,0.0,0.0,0.0,0.0,0.0,0.0,0.0,0.0,0.0,0.0,0.0,0.0,0.0,0.0,0.0,0.0,0.0,0.0,0.0,0.0,0.0,0.0,0.0,0.0,0.0,0.0,0.0,0.0,0.0,0.0,0.0,0.0,0.0,0.0,0.0,0.0,0.0,0.0,0.0,0.0,0.0,0.0,0.0,0.0,0.0,0.0,0.0,0.0,0.0,0.0,0.0,0.0,0.0,0.0,0.0,0.0,0.2238,0.0,0.0,0.0,0.0,0.0,0.0,0.0,0.0,0.0,0.0,0.0,0.0,0.0,0.0,0.0,0.0,0.0,0.0,0.0,0.0,0.0,0.0,0.0,0.0,0.5741,0.5536,0.5517,0.5939,0.0,0.0,0.0,0.0,0.0,0.0,0.0,0.0,0.0,0.0,0.0,0.0,1.015,1.0577,0.908,0.7507,0.0,0.0,0.0,0.0,0.0,0.0,0.0,0.0,0.0,0.0,0.0,0.0,0.0,0.0,0.0,0.0,0.0,0.0,0.0,0.0,0.0,0.0,0.0,0.0,0.0,0.0,0.0,0.0,0.0,0.0,0.0,0.0,0.0,0.0,0.0,0.0,0.0,0.0,0.0,0.0,0.0,0.0,0.0,0.0,0.0,0.0,0.0,0.0,0.0,0.0,0.0,0.0,0.0,0.0,0.0,0.0,0.0,0.0,0.0,0.0,0.0,0.0,0.0,0.0,0.0,0.0,0.0,0.0,0.0,0.0,0.0,0.0,0.278,0.0,0.0,0.0,0.0,0.0,0.0,0.0,0.0,0.0,0.0,0.0,0.0,0.0,0.0,0.0,0.0,0.0,0.0,0.0,0.0,0.0,0.5787,0.6337,0.6307,0.6307,0.6573,0.7007,0.7257,0.7175,0.0,0.0,0.0,0.0,0.0,0.0,0.9646,0.0,0.0,0.0,0.0,0.0,1.3715,0.0,0.0,0.0,0.0,0.0,0.0,0.0,0.0,0.0,0.0,0.0,0.0,0.0,0.0,0.0,0.0,0.0,0.0,0.0,0.0,0.0,0.0,0.0,0.0,0.0,0.0,0.0,0.0,0.0,0.0,0.0,0.0,0.0,0.0,0.0,0.0,0.0,0.0,0.0,0.0,0.0,0.0,0.0,0.0,0.0,0.0,0.0,0.0,0.0,0.0,0.0,0.0,0.0,0.0,0.0,0.0,0.0,0.0,0.0,0.0,0.0,0.0,0.0,0.0,0.0,0.0,0.1461,0.1467,0.1467,0.1564,0.197,0.2509,0.3281,0.3807,0.4177,0.0,0.0,0.0,0.0,0.0,0.0,0.0,0.0,0.0,0.0,0.0,0.0,0.0,0.0,0.0,0.0,0.0,0.0,0.0,0.0,0.6242,0.7078,0.7119,0.7205,0.7343,0.8286,0.8845,0.8721,0.9668,0.0,0.0,0.0,0.0,0.9808,1.127,1.1796,0.0,0.0,0.0,1.6217,1.6399,0.0,0.0,0.0,0.0,0.0,0.0,0.0,0.0,0.0,0.0,0.0,0.0,0.0,0.0,0.0,0.0,0.0,0.0,0.0,0.0,0.0,0.0,0.0,0.0,0.0,0.0,0.0,0.0,0.0,0.0,0.0,0.0,0.0,0.0,0.0,0.0,0.0,0.0,0.0,0.0,0.0,0.0,0.0,0.0,0.0,0.0,0.1178,0.0659,0.0,0.0,0.0,0.0,0.0,0.0,0.0,0.0,0.0,0.0,0.0,0.0,0.0,0.141,0.1418,0.1478,0.151,0.1515,0.1568,0.1592,0.1594,0.2226,0.2757,0.3281,0.466,0.0,0.3603,0.5072,0.0,0.0,0.0,0.0,0.0,0.0,0.0,0.0,0.0,0.0,0.0,0.0,0.0,0.0,0.0,0.0,0.0,0.0,0.0,0.0,0.0,0.9546,1.0123,1.0762,1.1705,1.2098,1.182,0.0,0.0,0.0,0.0,1.3405,1.2945,1.4062,1.5031,0.0,1.6826,1.8057,1.9244,0.0,0.0,0.0,0.0,0.0,0.0,0.0,0.0,0.0,0.0,0.0,0.0,0.0,0.0,0.0,0.0,0.0,0.0,0.0,0.0,0.0,0.0,0.0,0.0,0.0,0.0,0.0,0.0,0.0,0.0,0.0,0.0,0.0,0.0,0.0,0.0,0.0,0.0,0.0,0.0,0.0,0.0,0.0,0.0,0.0,0.0,0.1391,0.1348,0.1145,0.1209,0.127,0.0,0.0,0.0,0.0,0.0,0.0,0.0,0.0,0.0,0.1464,0.1479,0.151,0.1562,0.159,0.161,0.1626,0.1654,0.1666,0.1666,0.2309,0.2737,0.3055,0.4286,0.4475,0.4057,0.5717,0.6058,0.5641,0.0,0.0,0.0,0.0,0.5374,0.4839,0.0,0.0,0.0,0.0,0.0,0.0,0.0,0.0,0.0,0.0,0.0,0.0,1.032,1.2117,1.3417,1.3955,1.4642,1.498,1.4837,0.0,0.0,0.0,1.6126,1.6053,1.5611,1.6404,1.7591,0.0,0.0,0.0,0.0,0.0,0.0,0.0,0.0,0.0,0.0,0.0,0.0,0.0,0.0,0.0,0.0,0.0,0.0,0.0,0.0,0.0,0.0,0.0,0.0,0.0,0.0,0.0,0.0,0.0,0.0,0.0,0.0,0.0,0.0,0.0,0.0,0.0,0.0,0.0,0.0,0.0,0.0,0.0,0.0,0.0,0.0,0.0,0.0,0.0,0.0,0.1241,0.1313,0.1403,0.1408,0.1322,0.0,0.0,0.0,0.0,0.0,0.0,0.1457,0.1474,0.1506,0.156,0.1568,0.1605,0.1673,0.1673,0.1684,0.1704,0.1704,0.1704,0.1704,0.2356,0.2681,0.2898,0.4124,0.48,0.5002,0.6127,0.6594,0.6676,0.6443,0.6388,0.6294,0.6366,0.596,0.5494,0.0,0.0,0.0,0.0,0.0,0.0,0.0,0.0,0.0,0.0,0.0,1.1417,1.059,1.4357,1.6605,1.5733,1.6021,1.6491,1.7103,0.0,0.0,1.7076,1.7826,1.7731,1.6659,1.745,1.8701,0.0,0.0,0.0,0.0,0.0,0.0,0.0,0.0,0.0,0.0,0.0,0.0,0.0,0.0,0.0,0.0,0.0,0.0,0.0,0.0,0.0,0.0,0.0,0.0,0.0,0.0,0.0,0.0,0.0,0.0,0.0,0.0,0.0,0.0,0.0,0.0,0.0,0.0,0.0,0.0,0.0,0.0,0.0,0.0,0.0,0.0,0.0,0.0,0.0,0.0,0.0,0.0,0.1384,0.143,0.0,0.0,0.0,0.0,0.1429,0.1459,0.1491,0.152,0.1576,0.1622,0.1654,0.1681,0.1697,0.1703,0.1703,0.1703,0.1704,0.1704,0.1704,0.1705,0.2386,0.2948,0.3491,0.4909,0.5782,0.634,0.6629,0.6149,0.5452,0.7056,0.6634,0.532,0.6146,0.6001,0.5477,0.0,0.0,0.0,0.6257,0.6034,0.5905,0.6127,0.5859,0.6029,0.724,1.0203,1.2634,1.3809,1.7623,1.9964,1.9633,1.9729,1.9773,1.9755,0.0,0.0,0.0,0.0,2.1041,2.0872,2.1629,2.2473,0.0,0.0,0.0,0.0,0.0,0.0,0.0,0.0,0.0,0.0,0.0,0.0,0.0,0.0,0.0,0.0,0.0,0.0,0.0,0.0,0.0,0.0,0.0,0.0,0.0,0.0,0.0,0.0,0.0,0.0,0.0,0.0,0.0,0.0,0.0,0.0,0.0,0.0,0.0,0.0,0.0,0.0,0.0,0.0,0.0,0.0,0.0,0.0,0.0,0.0,0.0,0.0,0.1509,0.1474,0.0,0.1494,0.1512,0.1531,0.155,0.158,0.161,0.1639,0.1662,0.1678,0.1689,0.1699,0.1723,0.1763,0.1763,0.1782,0.1821,0.1821,0.1821,0.1821,0.2517,0.2868,0.3095,0.4811,0.5728,0.597,0.7343,0.7558,0.7089,0.768,0.7639,0.7381,0.7698,0.7273,0.6479,0.0,0.0,0.0,0.6563,0.6456,0.64,0.6547,0.6403,0.7017,0.9101,1.195,1.4691,1.7112,2.0827,2.3024,2.2781,2.2251,2.2091,2.2396,0.0,0.0,0.0,0.0,0.0,0.0,2.4471,2.4784,0.0,0.0,0.0,0.0,0.0,0.0,0.0,0.0,0.0,0.0,0.0,0.0,0.0,0.0,0.0,1.8988,0.0,0.0,0.0,0.0,0.0,0.0,0.0,0.0,0.0,0.0,0.0,0.0,0.0,0.0,0.0,0.0,0.0,0.0,0.0,0.0,0.0,0.0,0.0,0.0,0.0,0.0,0.0,0.0,0.0,0.0,0.0,0.0,0.0,0.0,0.0,0.2283,0.2085,0.1807,0.1568,0.1558,0.1592,0.1625,0.1644,0.1665,0.1685,0.1703,0.1723,0.1735,0.1735,0.1755,0.1785,0.1825,0.1825,0.1846,0.1885,0.1885,0.1885,0.1887,0.2605,0.3085,0.3559,0.5123,0.5971,0.6455,0.7807,0.854,0.8724,0.8537,0.8667,0.8834,0.8834,0.8474,0.7867,0.0,0.0,0.6754,0.6888,0.7013,0.7106,0.713,0.7102,0.8312,1.1708,1.4866,1.7741,2.0301,2.3804,2.5635,2.4895,2.342,2.3227,2.4865,2.3138,0.0,0.0,0.0,0.0,2.6295,2.5593,0.0,0.0,0.0,0.0,0.0,0.0,0.0,0.0,0.0,0.0,0.0,0.0,0.0,0.0,0.0,0.0,2.152,0.0,0.0,0.0,0.0,0.0,0.0,0.0,0.0,0.0,0.0,0.0,0.0,0.0,0.0,0.0,0.0,0.0,0.0,0.0,0.0,0.0,0.0,0.0,0.0,0.0,0.0,0.0,0.0,0.0,0.0,0.0,0.0,0.0,0.3868,0.3765,0.3597,0.3155,0.2283,0.1754,0.1622,0.1776,0.1811,0.1813,0.1813,0.1708,0.1816,0.1765,0.1798,0.1798,0.1855,0.1887,0.1887,0.1888,0.1889,0.1889,0.1891,0.1891,0.1892,0.2641,0.3625,0.4951,0.5762,0.6785,0.8016,0.8144,0.8952,1.0204,0.9697,0.9488,0.9494,0.9494,0.9494,0.9239,0.705,0.6969,0.7058,0.729,0.7214,0.7287,0.7831,0.8393,0.9936,1.3251,1.6706,1.9767,2.2129,2.4734,2.5936,2.4981,2.4173,2.4019,2.4681,0.0,0.0,0.0,0.0,0.0,0.0,0.0,0.0,0.0,0.0,0.0,0.0,0.0,0.0,0.0,0.0,0.0,0.0,0.0,0.0,0.0,0.0,0.0,2.4165,0.0,0.0,0.0,0.0,0.0,0.0,0.0,0.0,0.0,0.0,0.0,0.0,0.0,0.0,0.0,0.0,0.0,0.0,0.0,0.0,0.0,0.0,0.0,0.0,0.0,0.0,0.0,0.0,0.0,0.0,0.0,0.0,0.652,0.5403,0.4153,0.3384,0.3213,0.3071,0.2912,0.2936,0.3806,0.4404,0.4402,0.3642,0.3124,0.3203,0.2312,0.1861,0.1861,0.1877,0.1896,0.1918,0.194,0.1962,0.1982,0.2004,0.2015,0.2142,0.3449,0.424,0.4628,0.7034,0.8383,0.9039,1.0313,1.0781,1.0649,1.0122,1.0545,1.1538,1.1538,1.0517,0.8991,0.7318,0.7241,0.7411,0.7842,0.773,0.7876,0.8845,0.9401,1.1268,1.562,1.8085,2.0795,2.4395,2.6079,2.6747,2.6212,2.5555,2.5541,2.6495,0.0,0.0,0.0,0.0,0.0,0.0,0.0,0.0,0.0,0.0,0.0,0.0,0.0,0.0,0.0,0.0,0.0,0.0,0.0,0.0,0.0,0.0,0.0,2.5143,2.4147,2.2936,2.1629,1.9807,1.8476,1.7326,1.569,0.0,0.0,0.0,0.0,0.0,0.0,0.0,0.0,0.0,0.0,0.0,0.0,0.0,0.0,0.0,0.0,0.0,0.0,0.0,0.0,0.0,0.0,0.0,0.0,0.6936,0.7485,0.7003,0.5622,0.4696,0.4751,0.4404,0.4262,0.4337,0.5025,0.5214,0.4786,0.4113,0.3459,0.3056,0.2385,0.1924,0.1924,0.1948,0.1969,0.1986,0.2004,0.2022,0.2038,0.2696,0.2974,0.3122,0.4586,0.5274,0.0,0.7526,0.8649,0.9332,1.0826,1.1575,0.0,0.0,0.0,0.0,0.0,1.0241,0.8657,0.7724,0.7694,0.7938,0.8505,0.8588,0.8972,1.0064,1.0409,1.256,1.8238,1.9197,2.1331,2.6622,2.7473,2.7727,2.7794,2.7127,2.7364,0.0,0.0,0.0,0.0,0.0,0.0,0.0,0.0,0.0,0.0,0.0,0.0,0.0,0.0,0.0,0.0,0.0,0.0,0.0,0.0,0.0,0.0,0.0,0.0,2.5342,2.4305,2.3678,2.3077,2.0736,1.993,1.9669,1.8035,0.0,0.0,0.0,0.0,0.0,0.0,0.0,0.0,0.0,0.0,0.0,0.0,0.0,0.0,0.0,0.0,0.0,0.0,0.0,0.0,0.0,0.0,0.0,0.0,0.7898,0.8275,0.8289,0.7486,0.6878,0.6769,0.6003,0.5617,0.5717,0.5921,0.5549,0.4588,0.4366,0.3785,0.2611,0.0,0.0,0.0,0.0,0.2578,0.2578,0.2583,0.2585,0.2585,0.3886,0.4568,0.4757,0.609,0.6535,0.6484,0.7397,0.8265,0.9365,1.0184,1.1483,1.2735,1.2,1.1151,1.0316,1.004,0.9348,0.8521,0.8316,0.8691,0.9293,0.9297,1.0258,1.1054,1.1142,1.2295,1.4856,1.957,2.0894,2.3007,2.7138,2.7886,2.7879,2.7363,2.7662,2.7933,0.0,0.0,0.0,0.0,0.0,0.0,0.0,0.0,0.0,0.0,0.0,0.0,0.0,0.0,0.0,0.0,0.0,0.0,0.0,0.0,0.0,0.0,0.0,0.0,2.7182,2.6479,2.5653,2.4789,2.3537,2.2744,2.1996,2.0087,1.9328,1.8702,1.5644,0.0,0.0,0.0,0.0,0.0,0.0,0.0,0.0,0.0,0.0,0.0,0.0,0.0,0.0,0.0,0.0,0.0,0.0,0.0,0.0,0.7622,0.8032,0.8309,0.8425,0.8434,0.8144,0.7144,0.6968,0.6969,0.7185,0.8037,0.858,0.8479,0.7616,0.7099,0.6941,0.5934,0.5485,0.5485,0.5514,0.5529,0.5529,0.5595,0.5628,0.5631,0.0,0.0,0.6254,0.6672,0.689,0.677,0.6998,0.8321,1.0179,1.0352,1.1226,1.235,1.2928,1.2956,1.2536,1.0593,0.9902,0.9348,0.9918,1.0072,1.0435,1.0524,1.1203,1.1874,1.242,1.3302,1.5255,1.9097,2.0727,2.2708,2.5768,2.7397,2.8167,2.8044,2.9034,0.0,0.0,0.0,0.0,0.0,0.0,0.0,0.0,0.0,0.0,0.0,0.0,0.0,0.0,0.0,0.0,0.0,0.0,0.0,0.0,0.0,0.0,0.0,0.0,0.0,2.8517,2.6612,2.5841,2.5574,2.411,2.3465,2.3166,2.1793,2.0798,1.975,1.7825,1.637,1.4839,0.0,0.0,0.0,0.0,0.0,0.0,0.0,0.0,0.0,0.0,0.0,0.0,0.0,0.0,0.661,0.0,0.0,0.7602,0.7918,0.824,0.854,0.8689,0.8906,0.8792,0.8048,0.8158,0.8431,0.8642,0.9202,0.942,0.8836,0.8346,0.7817,0.7239,0.6704,0.6369,0.6369,0.641,0.63,0.63,0.6345,0.6394,0.6573,0.7341,0.7442,0.6848,0.8494,0.7865,0.5908,0.7963,0.8848,0.9136,1.1089,1.2344,1.2984,1.3682,1.3082,1.1804,1.0671,1.029,1.006,1.183,1.1698,1.1734,1.1753,1.2041,1.2635,1.3546,1.3979,1.5298,1.8286,1.9851,2.1602,2.4091,2.6355,2.8,2.877,0.0,0.0,0.0,0.0,0.0,0.0,0.0,0.0,0.0,0.0,0.0,0.0,0.0,0.0,0.0,0.0,0.0,0.0,0.0,0.0,0.0,0.0,0.0,0.0,0.0,0.0,2.9142,2.6595,2.5942,2.6127,2.4202,2.3698,2.377,2.3075,2.1945,2.077,2.0156,1.8528,1.6446,1.4529,1.3266,0.0,0.0,0.0,0.0,0.0,0.0,0.0,0.0,0.0,0.6474,0.6863,0.6938,0.7114,0.7563,0.7713,0.7945,0.833,0.8581,0.8804,0.896,0.913,0.9211,0.9123,0.932,0.953,0.968,0.9829,0.9464,0.8574,0.8701,0.8258,0.7226,0.7196,0.7252,0.7252,0.7195,0.7245,0.7263,0.7263,0.7319,0.7556,0.8812,0.8799,0.787,1.0031,0.9104,0.5859,0.9066,0.9501,0.8334,1.2102,1.3722,1.3854,1.3987,1.278,1.0819,1.0529,1.0596,1.054,1.3552,1.3748,1.3587,1.2502,1.3495,1.4345,1.4087,1.4731,1.6086,1.841,1.8865,2.0241,2.3594,2.4818,2.6313,2.8763,0.0,0.0,0.0,0.0,0.0,0.0,0.0,0.0,0.0,0.0,0.0,0.0,0.0,0.0,0.0,0.0,0.0,0.0,0.0,0.0,0.0,0.0,0.0,0.0,0.0,0.0,2.8661,2.7921,2.7604,2.7285,2.532,2.466,2.4542,2.3605,2.3077,2.2453,2.0862,1.9938,1.8748,1.5105,0.0,1.3404,1.0533,0.9092,0.0,0.8982,0.7866,0.6897,0.0,0.0,0.749,0.7805,0.7865,0.7918,0.8187,0.8235,0.8336,0.8615,0.8804,0.896,0.911,0.9374,0.9598,0.9707,0.9754,0.9829,0.9985,1.0141,1.0236,0.9996,1.0128,1.0207,1.0071,1.0215,1.0161,1.0161,1.0174,1.0245,1.0373,1.0373,1.0444,1.0718,1.0994,1.1147,1.1018,1.0117,0.9497,0.9153,1.0048,1.0197,1.0197,1.2763,1.3831,1.3698,1.3089,1.2621,1.2289,1.1101,1.0816,1.053,1.3991,1.4163,1.4121,1.3488,1.4005,1.4519,1.4501,1.4858,1.5691,1.7337,1.79,1.9079,2.1488,2.3979,2.6425,2.8757,2.9793,0.0,3.0268,0.0,0.0,0.0,0.0,0.0,0.0,0.0,0.0,0.0,0.0,0.0,0.0,0.0,0.0,0.0,0.0,0.0,0.0,0.0,0.0,0.0,0.0,0.0,2.9923,2.8538,2.7973,2.7591,2.5698,2.4728,0.0,0.0,2.288,2.2056,2.1135,2.0159,1.8858,1.6154,1.4912,0.0,1.1787,0.0,0.0,0.0,1.0139,0.9334,0.9569,0.9092,0.8733,0.8871,0.8507,0.8194,0.8255,0.8411,0.8567,0.0,0.8906,0.9117,0.9266,0.9469,0.9693,0.9924,1.0032,1.0114,1.0175,1.0317,1.0439,1.0527,1.0677,1.0792,1.088,1.0941,1.0975,1.0975,1.0975,1.1009,1.107,1.1158,1.128,1.143,1.1579,1.1286,1.0534,1.0897,1.1101,1.1002,1.0243,1.0589,1.1579,1.3086,1.3604,1.3687,1.3065,1.2906,1.2733,1.1208,1.0895,1.0666,1.4163,1.4229,1.4255,1.4109,1.4131,1.4281,1.4623,1.4773,1.5222,1.6146,1.6757,1.7805,1.9624,2.3221,2.6096,2.7585,2.8976,2.9903,0.0,0.0,0.0,0.0,0.0,0.0,0.0,0.0,0.0,0.0,0.0,0.0,0.0,0.0,0.0,0.0,0.0,0.0,0.0,0.0,0.0,0.0,0.0,0.0,3.0895,2.9002,2.8103,2.7657,2.5759,2.4608,0.0,0.0,2.276,2.1467,2.1356,2.0232,1.8544,1.6436,1.4715,1.3327,1.2581,0.0,0.0,1.1919,1.1589,1.101,1.0896,1.0382,0.9816,0.9518,0.9029,0.8685,0.8426,0.854,0.8723,0.8764,0.9022,0.9252,0.9367,0.9585,0.9829,1.008,1.0249,1.0371,1.046,1.0561,1.0663,1.0772,1.0921,1.1056,1.1158,1.1165,1.1165,1.1165,1.1165,1.1206,1.1287,1.1396,1.1552,1.1742,1.1843,1.1373,1.0451,1.1704,1.2182,1.2182,1.0956,1.1321,1.2498,1.3261,1.3479,1.3274,1.2797,1.2333,1.1837,1.0422,1.0112,1.0343,1.4293,1.4293,1.4255,1.4109,1.3949,1.3939,1.4367,1.4631,1.4916,1.5197,1.5254,1.6209,1.8662,2.2362,2.4666,2.472,2.7583,2.9467,2.9617,2.9311,0.0,0.0,0.0,0.0,0.0,0.0,0.0,0.0,0.0,0.0,0.0,0.0,0.0,0.0,0.0,0.0,0.0,0.0,0.0,0.0,0.0,0.0,3.0955,2.9504,2.8465,2.7419,2.5511,0.0,0.0,0.0,2.3172,2.1176,2.1515,2.0367,0.0,1.5225,1.3023,0.0,0.0,0.0,1.1557,1.1882,1.1522,1.1057,1.0566,1.0782,1.0812,0.9485,0.9533,0.9524,0.8654,0.8608,0.8757,0.8906,0.9184,0.9374,0.9381,0.9761,1.0093,1.0256,1.0399,1.0602,0.0,1.0934,1.0934,1.0941,1.1077,1.1158,1.1165,1.1165,1.1165,1.1165,1.1165,1.1307,1.1599,1.1613,1.1762,1.2047,1.2054,1.2135,1.2284,1.2427,1.2488,1.2488,1.2488,1.2649,1.3112,1.3575,1.3274,1.2501,1.1714,1.063,0.9387,0.8141,0.8448,0.9226,1.4293,1.4293,1.4281,1.4167,1.4141,1.4144,1.4259,1.4298,1.4503,1.4932,1.5527,0.0,0.0,0.0,0.0,0.0,2.5522,2.7211,2.8775,2.8969,0.0,0.0,0.0,0.0,0.0,0.0,0.0,0.0,0.0,0.0,0.0,0.0,0.0,0.0,0.0,0.0,0.0,0.0,0.0,0.0,0.0,0.0,3.0896,2.9055,2.7895,2.6973,0.0,0.0,0.0,0.0,0.0,0.0,2.1232,2.0703,1.972,1.6312,1.4241,1.3074,0.0,0.0,1.2649,1.2893,1.302,1.2942,1.2774,1.2416,1.193,1.0794,1.0004,0.9517,0.9384,0.8821,0.8764,0.9567,0.9525,0.9381,0.9381,0.9768,1.0107,1.0263,1.0405,0.0,0.0,0.0,0.0,1.1226,1.1287,1.1355,1.1457,1.1552,1.1565,1.147,1.1653,1.1762,1.1762,1.1959,1.2115,1.2216,1.2311,1.2379,1.2433,1.2481,1.2501,1.2501,1.2501,1.2656,1.312,1.2656,1.2501,1.2347,1.063,0.9853,0.9231,0.7989,0.7876,0.8247,0.0,1.4293,1.4281,1.4167,1.4216,0.0,0.0,0.0,0.0,0.0,0.0,0.0,0.0,0.0,0.0,0.0,0.0,2.5319,2.7221,0.0,0.0,0.0,0.0,0.0,0.0,0.0,0.0,0.0,0.0,0.0,0.0,0.0,0.0,0.0,0.0,0.0,0.0,0.0,0.0,0.0,0.0,0.0,3.0419,2.845,2.7006,0.0,0.0,0.0,0.0,0.0,0.0,0.0,2.108,1.9925,1.8284,1.627,1.4628,1.3341,0.0,1.3266,1.3326,1.3592,1.3845,1.4002,1.3809,1.346,1.2898,1.1849,1.1141,1.0706,1.0431,0.9709,0.9573,1.0664,1.0032,0.9435,0.9946,0.9954,1.0046,1.0256,1.0453,1.069,0.0,0.0,0.0,1.1375,1.1443,1.1538,1.1687,1.1735,1.1762,1.1775,1.1911,1.1986,1.1993,1.2189,1.2318,1.2366,1.2461,1.2501,1.2501,1.2501,1.2501,1.2501,1.2501,1.2501,1.2656,1.2656,1.2347,1.1876,1.063,0.9853,0.9236,0.8033,0.7611,0.766,0.0,0.0,1.4268,0.0,0.0,0.0,0.0,0.0,0.0,0.0,0.0,0.0,0.0,0.0,0.0,0.0,0.0,0.0,2.514,0.0,0.0,0.0,0.0,0.0,0.0,0.0,0.0,0.0,0.0,0.0,0.0,0.0,0.0,0.0,0.0,0.0,0.0,0.0,0.0,0.0,0.0,0.0,2.9448,2.753,0.0,0.0,0.0,0.0,0.0,0.0,0.0,2.0507,2.108,1.8166,1.4697,1.5262,1.4061,1.2602,1.329,1.3495,1.3556,1.3809,1.4075,1.4147,1.3652,1.393,1.3933,1.2636,1.2844,1.2905,0.0,0.0,1.0866,1.1873,1.0389,0.9667,1.0847,1.0346,0.9944,0.0,0.0,0.0,0.0,0.0,0.0,1.1402,0.0,1.1687,1.1816,1.1714,1.1775,1.204,1.1932,1.1999,1.2284,1.2298,1.2366,1.2501,1.2501,1.2501,1.2501,1.2501,1.2501,1.2501,1.2501,1.2192,1.1882,1.312,1.2649,1.1244,1.125,1.0474,0.9407,0.826,0.7827,0.7823,0.0,0.0,0.0,0.0,0.0,0.0,0.0,0.0,0.0,0.0,0.0,0.0,0.0,0.0,0.0,0.0,0.0,0.0,0.0,0.0,0.0,0.0,0.0,0.0,0.0,0.0,0.0,0.0,0.0,0.0,0.0,0.0,0.0,0.0,0.0,0.0,0.0,0.0,0.0,0.0,0.0,0.0,2.728,0.0,0.0,0.0,0.0,0.0,0.0,0.0,0.0,1.9535,2.0213,1.8679,1.6573,1.641,1.5361,1.3978,1.3334,1.323,1.3242,1.3302,1.3664,1.3966,1.3833,1.4063,1.398,1.2844,1.2499,1.2323,0.0,0.0,0.0,1.1511,1.0385,0.0,0.9838,0.9854,0.0,1.0256,0.0,1.0839,1.1131,1.1301,0.0,0.0,1.1694,1.1748,1.1681,1.1959,1.2047,1.1898,1.2176,1.2318,1.2291,1.2393,1.2467,1.2501,1.2501,1.2501,1.2501,1.2501,1.2501,1.2501,1.2501,1.1876,1.094,1.203,1.156,1.0308,1.063,1.0849,1.0931,1.0335,0.9822,0.9303,0.0,0.0,0.0,0.0,0.0,0.0,0.0,0.0,0.0,0.0,0.0,0.0,0.0,0.0,0.0,0.0,0.0,0.0,0.0,0.0,0.0,0.0,0.0,0.0,0.0,0.0,0.0,0.0,0.0,0.0,0.0,0.0,0.0,0.0,0.0,0.0,0.0,0.0,0.0,0.0,0.0,0.0,0.0,0.0,0.0,0.0,0.0,0.0,0.0,0.0,0.0,1.9412,1.958,1.8323,1.6598,1.646,0.0,1.3931,1.3585,1.3306,1.3181,1.3411,1.3688,1.3906,1.3906,1.4014,1.3969,1.3488,1.3125,0.0,1.3233,0.0,0.0,0.0,0.0,0.0,1.0252,1.0095,0.9985,0.0,1.0575,0.0,1.1131,1.1362,1.1525,0.0,1.1748,1.1823,1.1816,1.2054,1.2169,1.2128,1.2311,1.24,1.2386,1.2461,1.2501,1.2501,1.2501,1.2501,1.2501,1.2501,1.2501,1.2501,0.0,1.1876,1.0946,1.2251,1.2122,1.1335,1.1566,1.1956,1.2344,1.145,1.0918,1.0705,0.0,0.0,0.0,0.0,0.0,0.0,0.0,0.0,0.0,0.0,1.4775,1.473,0.0,0.0,0.0,0.0,0.0,0.0,0.0,0.0,0.0,0.0,0.0,0.0,0.0,0.0,0.0,0.0,0.0,0.0,0.0,0.0,0.0,0.0,0.0,0.0,0.0,0.0,0.0,0.0,0.0,0.0,0.0,0.0,0.0,0.0,0.0,0.0,0.0,0.0,1.8841,1.9674,1.9195,1.7594,1.5944,1.6041,1.4796,1.3493,1.3735,1.3481,1.329,1.3737,1.3906,1.3954,1.3918,1.393,1.4014,1.4208,0.0,1.3819,1.3865,1.269,1.1875,1.2822,0.0,0.9853,1.116,1.0314,0.9863,1.0399,1.0636,1.086,1.1138,1.1443,1.1626,1.1647,1.1762,1.1891,1.2026,1.2067,1.2216,1.2494,1.2379,1.2379,1.2501,1.2501,1.2501,1.2501,1.2501,1.2501,1.2656,1.2501,1.2501,1.2656,0.0,0.0,1.1423,1.3283,1.3504,1.2725,1.304,1.3436,1.3792,1.2306,1.203,1.2219,0.0,0.0,0.0,0.0,0.0,0.0,0.0,0.0,0.0,0.0,1.5732,1.473,0.0,0.0,0.0,0.0,0.0,0.0,0.0,0.0,0.0,0.0,0.0,0.0,0.0,0.0,0.0,0.0,0.0,0.0,0.0,0.0,0.0,0.0,0.0,0.0,0.0,0.0,0.0,0.0,0.0,0.0,0.0,0.0,0.0,0.0,0.0,0.0,0.0,0.0,1.837,1.8863,1.915,1.8416,1.7188,1.6535,1.5928,1.513,1.3677,1.3322,1.3471,1.3841,1.4105,1.4266,1.4247,1.4264,0.0,0.0,1.3778,1.3614,1.3865,1.2709,1.1788,1.1774,1.0814,0.0,0.0,0.0,1.0059,0.0,0.0,0.0,0.0,0.0,0.0,0.0,0.0,1.1843,1.187,1.2115,1.2325,1.2494,1.2474,1.2474,1.2501,1.2501,1.2501,1.2501,1.2501,1.2656,1.2965,1.2656,1.2656,1.2965,1.2965,0.0,1.0952,1.344,1.3654,1.2403,1.4003,1.4953,1.54,1.4784,1.4222,1.3679,0.0,0.0,0.0,0.0,0.0,0.0,0.0,1.6798,1.7638,2.0065,1.9454,1.8478,1.7644,1.6317,1.5652,0.0,0.0,0.0,0.0,0.0,0.0,0.0,0.0,0.0,0.0,0.0,0.0,0.0,0.0,0.0,0.0,0.0,0.0,0.0,0.0,0.0,0.0,0.0,0.0,0.0,0.0,0.0,0.0,0.0,0.0,0.0,0.0,0.0,0.0,0.0,1.762,1.8155,1.8683,1.8006,1.691,1.6255,1.595,1.5403,1.4047,1.376,1.3907,1.4056,1.4279,1.4403,1.4142,0.0,0.0,0.0,1.332,1.3031,1.2797,1.1788,0.0,1.0489,0.9962,0.9532,0.9544,0.0,0.0,0.0,0.0,0.0,0.0,0.0,0.0,0.0,0.0,1.1823,1.206,1.2277,1.2433,1.2501,1.2501,1.2501,1.2501,1.2501,1.2501,1.2501,1.2656,1.2965,1.312,1.312,1.3274,1.3428,1.3428,0.0,1.2353,1.4005,1.426,1.3648,1.4708,1.5512,1.591,1.542,1.5147,1.4878,0.0,0.0,0.0,0.0,0.0,0.0,0.0,1.8864,1.9928,2.3215,2.3595,2.2995,2.1438,1.8472,1.6689,0.0,0.0,0.0,0.0,0.0,0.0,0.0,0.0,0.0,0.0,0.0,0.0,0.0,0.0,0.0,0.0,0.0,0.0,0.0,0.0,0.0,0.0,0.0,0.0,0.0,0.0,0.0,0.0,0.0,0.0,0.0,0.0,0.0,0.0,0.0,1.6941,1.7388,1.8013,1.7417,1.6459,1.5959,1.582,1.5676,1.4615,1.4372,1.4371,1.4415,1.4608,1.4651,1.4138,1.4022,0.0,0.0,1.2951,1.256,1.2021,0.0,1.0659,0.0,0.9579,0.9478,0.9828,0.9909,1.008,0.0,0.0,0.0,0.0,0.0,0.0,0.0,0.0,0.0,1.2223,1.2406,1.2501,1.2501,1.2501,1.2501,1.2501,1.2501,1.2501,1.2501,1.2965,1.312,1.3274,1.3583,1.3744,1.3898,1.3898,0.0,0.0,1.4735,1.5034,1.5066,1.5412,1.5719,1.5883,1.5711,1.5546,1.5381,0.0,0.0,0.0,0.0,0.0,0.0,0.0,2.021,2.2773,2.6238,2.6488,2.634,2.6412,2.2136,1.8833,0.0,0.0,0.0,0.0,0.0,0.0,0.0,0.0,0.0,0.0,0.0,0.0,0.0,0.0,0.0,0.0,0.0,0.0,0.0,0.0,0.0,0.0,0.0,0.0,0.0,0.0,0.0,0.0,0.0,0.0,0.0,0.0,0.0,0.0,0.0,0.0,1.6365,1.7187,1.7292,1.7007,1.6104,0.0,0.0,1.5026,1.4591,1.4705,1.5021,1.5042,1.4905,1.4358,0.0,0.0,1.3015,1.2691,1.268,1.2615,0.0,0.0,0.0,0.0,1.0681,0.0,1.0126,0.9815,1.0249,0.0,0.0,0.0,0.0,0.0,0.0,0.0,0.0,1.2094,1.2345,1.2501,1.2501,1.2501,1.2501,1.2501,1.2501,1.2501,1.2501,1.2965,1.3274,1.359,1.3737,1.3898,1.4368,1.4368,0.0,0.0,1.5208,1.5512,1.5553,1.5739,1.6048,1.6048,1.5883,1.5216,1.4217,0.0,0.0,0.0,0.0,0.0,0.0,1.9383,2.1027,2.331,2.7159,2.8297,2.8672,2.8567,2.5333,2.2085,1.9317,0.0,0.0,0.0,0.0,0.0,0.0,0.0,0.0,0.0,0.0,0.0,2.0898,0.0,0.0,0.0,0.0,0.0,0.0,0.0,0.0,0.0,0.0,0.0,0.0,0.0,0.0,0.0,0.0,0.0,0.0,0.0,0.0,0.0,0.0,0.0,0.0,1.5687,1.5938,0.0,0.0,1.6096,1.6477,1.515,1.506,1.5376,1.5376,1.5337,1.5047,1.4282,0.0,1.3449,1.2444,1.2242,1.2063,1.1455,0.0,0.0,0.0,0.0,0.0,1.1376,0.0,1.0016,0.0,0.0,0.0,0.0,0.0,0.0,0.0,0.0,0.0,1.2522,1.2498,1.2501,1.2501,1.2501,1.2501,1.2501,1.2501,1.2656,1.2811,1.3274,1.3744,1.4053,1.4353,1.4507,1.4814,1.4814,0.0,0.0,1.5366,1.5512,1.5553,1.591,1.6048,1.6048,1.6048,1.5216,1.388,0.0,0.0,0.0,0.0,0.0,1.712,2.0023,2.1518,2.3694,2.7418,2.9047,2.9811,2.9657,2.6773,2.3949,2.1636,1.7677,0.0,0.0,0.0,0.0,0.0,0.0,0.0,0.0,0.0,1.857,2.0011,2.014,2.0178,0.0,0.0,0.0,0.0,0.0,0.0,0.0,0.0,0.0,0.0,0.0,0.0,0.0,0.0,0.0,0.0,0.0,0.0,0.0,0.0,0.0,0.0,0.0,0.0,0.0,0.0,1.5604,1.6063,1.5297,1.5417,1.5737,1.5642,1.5365,1.4955,0.0,0.0,1.2945,1.2074,1.1805,1.1567,1.0908,0.0,0.0,0.0,0.0,1.0538,1.1812,1.0747,1.0547,0.0,0.0,0.0,0.0,0.0,0.0,0.0,0.0,0.0,0.0,1.2754,1.2762,1.2656,1.2656,1.2656,1.2501,1.2656,1.2811,1.312,1.3583,1.3898,1.4368,1.4814,1.4968,1.4968,0.0,0.0,0.0,1.5301,1.5431,1.5472,1.5829,1.5967,1.5975,1.6024,1.4878,1.3383,0.0,0.0,0.0,0.0,0.0,0.0,1.9514,2.1789,2.4226,2.72,2.8663,2.9551,2.9872,2.5904,2.3633,2.4643,1.9665,0.0,0.0,0.0,0.0,0.0,0.0,0.0,0.0,0.0,1.8241,1.9109,1.9841,2.0122,1.9982,1.992,1.987,0.0,0.0,0.0,0.0,0.0,0.0,0.0,0.0,0.0,0.0,0.0,0.0,0.0,0.0,0.0,0.0,0.0,0.0,0.0,0.0,0.0,0.0,0.0,1.5088,1.596,1.5494,1.5605,1.5832,1.5832,1.5206,1.4615,0.0,0.0,0.0,1.1961,1.1617,1.154,1.1462,1.1745,0.0,0.0,0.0,0.0,0.0,0.0,0.0,0.0,0.0,0.0,0.0,0.0,0.0,0.0,0.0,0.0,0.0,1.3258,1.3413,1.3112,1.312,1.2965,1.2501,1.2965,1.312,1.312,1.3583,1.3898,1.4368,1.4814,1.4968,0.0,0.0,0.0,0.0,1.5163,1.5244,1.5277,1.5634,1.5772,1.5796,1.5975,1.4383,1.2056,0.0,0.0,0.0,0.0,0.0,0.0,0.0,1.9383,2.1507,2.3018,2.4842,2.6281,2.7151,2.481,2.3347,2.379,1.9219,0.0,0.0,0.0,0.0,0.0,0.0,0.0,0.0,1.9132,2.0278,2.17,2.2477,2.2767,2.2509,2.2559,2.2161,2.1427,2.0718,0.0,0.0,0.0,0.0,0.0,0.0,0.0,0.0,0.0,0.0,0.0,0.0,0.0,0.0,0.0,0.0,0.0,0.0,0.0,0.0,1.3084,1.3663,1.4233,1.4656,1.4723,1.4683,1.4883,1.4322,1.3652,1.3365,0.0,0.0,0.0,0.0,0.0,0.0,1.1132,1.0958,1.0952,0.0,0.0,0.0,0.0,0.0,0.0,0.0,0.0,0.0,0.0,0.0,0.0,0.0,0.0,0.0,1.3446,1.3302,1.3575,1.3583,1.3428,1.3274,1.3428,1.3744,1.4053,1.4053,1.4361,1.4814,1.4968,0.0,0.0,0.0,0.0,0.0,1.5301,1.5431,1.5463,1.5821,1.5459,1.4639,1.4691,1.3052,1.0726,0.0,0.0,0.0,0.0,0.0,0.0,0.0,1.7953,1.9318,2.0558,2.1826,2.3281,2.4998,2.3304,2.2461,2.3524,1.9686,0.0,0.0,0.0,0.0,0.0,0.0,0.0,1.9536,2.0077,2.136,2.3387,2.3852,2.3967,2.3762,2.3824,2.3284,2.2233,2.1648,2.1152,0.0,0.0,0.0,0.0,0.0,0.0,1.608,0.0,0.0,0.0,0.0,0.0,0.0,0.0,0.0,0.0,0.0,0.0,0.0,0.0,1.2541,1.27,1.3851,1.4135,1.4135,1.4309,1.3658,1.3024,0.0,0.0,0.0,0.0,0.0,0.0,0.0,0.0,1.0624,1.0355,1.0483,0.0,0.0,0.0,0.0,0.0,0.0,0.0,0.0,0.0,0.0,0.0,0.0,0.0,0.0,1.369,1.3852,1.4191,1.4053,1.3898,1.3744,1.3898,1.4053,1.4368,1.4368,1.4669,1.4968,1.4968,0.0,0.0,0.0,0.0,0.0,1.5212,1.5309,1.5342,1.5707,1.5023,1.3888,1.4002,1.2382,1.006,0.0,0.0,0.0,0.0,0.0,0.0,0.0,1.7207,1.7756,1.9428,1.956,2.05,2.3077,2.1318,2.0938,2.3342,0.0,0.0,0.0,0.0,0.0,0.0,0.0,0.0,2.0359,2.0585,2.1889,2.4373,2.4486,2.4418,2.414,2.4301,2.3724,2.2652,2.2653,2.1918,0.0,0.0,0.0,0.0,0.0,0.0,0.0,0.0,0.0,0.0,0.0,0.0,0.0,0.0,0.0,0.0,0.0,0.0,0.0,0.0,0.0,0.0,0.0,1.3707,1.3961,1.3988,1.3316,1.2672,0.0,0.0,0.0,0.0,0.0,0.0,0.0,0.0,1.0742,0.9677,1.0167,0.0,0.0,0.0,0.0,0.0,0.0,0.0,0.0,0.0,0.0,0.0,0.0,0.0,0.0,1.4284,1.4586,1.4935,1.4661,1.4207,1.3744,1.4207,1.4368,1.4368,1.4368,1.4669,1.4968,1.4968,0.0,0.0,0.0,0.0,0.0,1.4984,1.4992,1.5041,1.5382,1.4563,1.3486,1.376,1.221,0.9893,0.0,0.0,0.0,0.0,0.0,0.0,0.0,0.0,0.0,0.0,1.752,1.809,1.8906,1.8903,1.8934,0.0,0.0,0.0,0.0,0.0,0.0,0.0,0.0,0.0,2.1441,2.3242,2.4849,2.6196,2.8018,2.8464,2.7576,2.8349,2.7428,2.5061,2.4345,2.2461,0.0,0.0,0.0,0.0,0.0,0.0,0.0,0.0,0.0,0.0,1.3615,1.3204,0.0,0.0,0.0,0.0,0.0,0.0,0.0,0.0,1.0972,1.0531,1.1396,0.0,1.2772,1.2999,1.2632,1.2218,0.0,0.0,0.0,0.0,0.0,0.0,0.0,0.0,0.0,0.0,0.0,0.0,0.0,0.0,0.0,0.0,0.0,0.0,0.0,0.0,0.0,0.0,0.0,0.0,0.0,1.4432,1.4538,1.4765,1.4903,1.4814,1.4661,1.4814,1.4814,1.4814,1.4814,1.4968,1.4968,1.4968,0.0,0.0,0.0,0.0,1.4976,1.5114,1.526,1.5398,1.548,1.4216,1.2453,1.2414,1.065,0.8562,0.0,0.0,0.0,0.0,0.0,0.0,0.0,0.0,0.0,0.0,0.0,1.6491,1.7001,1.7386,0.0,0.0,0.0,0.0,0.0,0.0,0.0,0.0,0.0,2.1835,2.3462,2.4756,2.6212,2.7887,2.9159,2.9653,2.9383,2.9546,2.856,2.6547,2.4215,2.2045,0.0,0.0,0.0,0.0,0.0,0.0,0.0,0.0,0.0,0.0,1.3715,1.3207,0.0,1.2631,1.2313,1.1943,0.0,0.0,0.0,0.0,1.0251,1.0047,1.0635,1.1236,1.181,1.2238,1.2078,1.1913,1.2191,0.0,0.0,0.0,0.0,0.0,0.0,0.0,0.0,0.0,0.0,0.0,0.0,0.0,0.0,0.0,0.0,0.0,0.0,0.0,0.0,0.0,0.0,0.0,0.0,1.4562,1.4643,1.4822,1.4919,1.4968,1.4968,1.4968,1.4968,1.4968,1.4968,1.4968,1.4968,1.4968,1.4968,0.0,0.0,0.0,1.4976,1.5074,1.5171,1.5268,1.5358,1.3946,1.1861,1.1794,1.0251,0.8056,0.0,0.0,0.0,0.0,0.0,0.0,0.0,0.0,0.0,0.0,0.0,0.0,0.0,0.0,0.0,0.0,0.0,0.0,0.0,0.0,0.0,0.0,2.0789,2.2258,2.543,2.5683,2.6877,2.9171,2.961,2.9973,3.0318,2.9837,2.8798,2.7214,2.3264,2.1222,0.0,0.0,0.0,0.0,1.6779,0.0,0.0,0.0,0.0,0.0,0.0,0.0,0.0,1.2585,1.2339,1.1982,1.1104,0.0,0.0,0.0,0.0,0.0,1.0376,1.0742,1.1129,1.1717,1.1832,1.1795,0.0,0.0,0.0,0.0,0.0,0.0,0.0,0.0,0.0,0.0,0.0,0.0,0.0,0.0,0.0,0.0,0.0,0.0,0.0,0.0,0.0,0.0,0.0,0.0,0.0,1.4708,1.4773,1.4919,1.4952,1.4968,1.4968,1.4968,1.4968,1.4968,1.4968,1.4968,1.4968,1.4968,1.4968,0.0,0.0,0.0,1.4968,1.4968,1.4984,1.5017,1.5147,1.3749,1.1838,1.1641,1.034,0.8716,0.0,0.0,0.0,0.0,0.0,0.0,0.0,0.0,0.0,0.0,0.0,0.0,0.0,0.0,0.0,0.0,0.0,0.0,0.0,0.0,0.0,2.2496,2.2537,2.3468,2.5457,2.6801,2.8016,2.9028,3.1704,3.2281,3.0897,3.2201,3.0696,2.673,2.2752,2.0859,2.0488,1.8437,0.0,0.0,0.0,0.0,0.0,0.0,0.0,0.0,0.0,0.0,0.0,1.1867,1.1305,1.0785,1.0179,0.0,0.0,0.0,0.0,0.0,0.9953,1.0581,1.1129,1.1717,1.2051,1.2318,0.0,0.0,0.0,0.0,0.0,0.0,0.0,0.0,0.0,0.0,0.0,0.0,0.0,0.0,0.0,0.0,0.0,0.0,0.0,0.0,0.0,0.0,0.0,0.0,0.0,1.4708,1.4724,1.4749,1.4887,1.4968,1.4968,1.4968,1.4968,1.4968,1.4968,1.4968,1.4968,1.4968,1.4968,0.0,0.0,1.4968,1.4968,1.4968,1.5057,1.5187,1.5057,1.435,1.3253,1.1886,1.1403,1.1386,0.0,0.0,0.0,0.0,0.0,0.0,0.0,0.0,0.0,0.0,0.0,0.0,0.0,0.0,0.0,0.0,0.0,0.0,0.0,0.0,2.049,2.3519,2.3109,2.4075,2.6799,2.8032,2.9429,3.1034,3.2958,3.3675,3.3202,3.2392,2.9994,2.6249,2.3365,2.1429,2.0206,1.856,1.7517,1.6952,0.0,0.0,0.0,0.0,0.0,0.0,0.0,0.0,0.0,0.0,1.1591,1.0905,0.9884,0.0,0.0,0.0,0.0,0.0,0.9991,1.0546,1.1141,1.215,1.2692,0.0,0.0,0.0,0.0,0.0,0.0,0.0,0.0,0.0,0.0,0.0,0.0,0.0,0.0,0.0,0.0,0.0,0.0,0.0,0.0,0.0,0.0,0.0,0.0,0.0,0.0,0.0,1.4846,1.4846,1.4927,1.4968,1.4968,1.4968,1.4968,1.4968,1.4968,1.4968,1.4968,1.4968,1.4968,1.4968,0.0,1.4968,1.4968,1.4968,1.5017,1.5082,1.5,1.4392,1.3394,1.2147,1.1745,1.1697,0.0,0.0,0.0,0.0,0.0,0.0,0.0,0.0,0.0,0.0,0.0,0.0,0.0,0.0,0.0,0.0,0.0,0.0,0.0,1.8935,2.0746,2.3744,2.312,2.4514,2.8452,2.9168,3.0674,3.3028,3.4181,3.4732,3.4715,3.1869,2.8891,2.5924,2.3826,2.1888,1.9993,1.8661,1.7656,1.685,0.0,0.0,0.0,0.0,0.0,0.0,0.0,0.0,0.0,0.0,0.0,0.0,0.0,0.0,0.0,0.8452,0.8733,0.9617,1.0292,1.0953,1.1723,0.0,0.0,0.0,0.0,0.0,0.0,0.0,0.0,0.0,0.0,0.0,0.0,0.0,0.0,0.0,0.0,0.0,0.0,0.0,0.0,0.0,0.0,0.0,0.0,0.0,0.0,0.0,0.0,0.0,1.4968,1.4968,1.4968,1.4968,1.4968,1.4968,1.4968,1.4968,1.4968,1.4968,1.4968,1.4968,1.4968,1.4968,1.4968,1.4968,1.4968,1.4968,1.4968,1.4968,1.4968,1.4268,1.3169,1.2842,1.2211,1.1481,0.0,0.0,0.0,0.0,0.0,0.0,0.0,0.0,0.0,0.0,0.0,0.0,0.0,0.0,0.0,0.0,0.0,0.0,0.0,1.9876,2.1068,2.2808,2.2776,2.5022,3.0035,3.0138,3.1257,3.3655,3.5625,3.5677,3.3817,3.0987,2.8359,2.5901,2.3458,2.1513,1.9993,1.8661,1.7524,1.6596,1.6297,0.0,0.0,0.0,0.0,0.0,0.0,0.0,0.0,0.0,0.0,0.0,0.0,0.0,0.9113,0.8348,0.9141,1.0437,1.0911,1.2095,0.0,0.0,0.0,0.0,0.0,0.0,0.0,0.0,0.0,0.0,0.0,0.0,0.0,0.0,0.0,0.0,0.0,0.0,0.0,0.0,0.0,0.0,0.0,0.0,0.0,0.0,0.0,0.0,0.0,0.0,0.0,1.4968,1.4968,1.4968,1.4968,1.4968,1.4968,1.4968,1.4968,1.4968,1.4968,1.4968,1.4968,1.4968,1.4968,1.4968,1.4968,1.4968,1.4968,1.4968,1.4968,1.4199,1.3317,1.4758,1.3663,1.1646,0.0,0.0,0.0,0.0,0.0,0.0,0.0,0.0,0.0,0.0,0.0,0.0,0.0,0.0,0.0,0.0,0.0,0.0,0.0,2.0051,2.183,2.3457,2.3485,2.55,2.9878,3.0682,3.2409,3.5324,3.591,3.5094,3.2926,3.0585,2.8049,2.5385,2.4196,2.2147,1.9497,1.882,1.769,1.6355,1.6052,1.5595,0.0,0.0,0.0,0.0,0.0,0.0,0.0,0.0,1.1073,0.9982,0.9053,0.899,0.9206,0.8767,0.952,1.0697,1.1546,1.2699,0.0,0.0,0.0,0.0,0.0,0.0,0.0,0.0,0.0,0.0,0.0,0.0,0.0,0.0,0.0,0.0,0.0,0.0,0.0,0.0,0.0,0.0,0.0,0.0,0.0,0.0,0.0,0.0,0.0,0.0,0.0,1.4968,1.4968,1.4968,1.4968,1.4968,1.4968,1.4968,1.4968,1.4968,1.4968,1.4968,1.4968,1.4968,1.4968,1.4968,1.4968,1.4968,1.4968,1.4968,1.4968,1.4724,1.4524,1.5136,1.4664,1.3683,0.0,0.0,0.0,0.0,0.0,0.0,0.0,0.0,0.0,0.0,0.0,0.0,0.0,0.0,0.0,0.0,0.0,0.0,1.7722,2.0096,2.215,2.3525,2.3683,2.5394,2.8881,3.0148,3.2348,3.5622,3.5175,3.388,3.1738,2.9605,2.7414,2.5241,2.4289,2.2225,1.952,1.889,1.7686,1.6136,1.5826,1.5359,0.0,0.0,0.0,0.0,0.0,0.0,0.0,0.0,1.1073,0.9982,0.9133,0.899,0.9112,0.9175,1.0144,1.1458,1.2452,1.3546,0.0,0.0,0.0,0.0,0.0,0.0,0.0,0.0,0.0,0.0,0.0,0.0,0.0,0.0,0.0,0.0,0.0,0.0,0.0,0.0,0.0,0.0,0.0,0.0,0.0,0.0,0.0,0.0,0.0,0.0,0.0,0.0,1.4968,1.4968,1.4968,1.4968,1.4968,1.4968,1.4968,1.4968,1.4968,1.4968,1.4968,1.4968,1.4968,1.4968,1.4968,1.4968,1.4968,1.4968,1.4968,1.5041,1.5155,1.5155,1.5155,1.5015,0.0,0.0,0.0,0.0,0.0,0.0,0.0,0.0,1.5618,1.6481,1.6592,0.0,0.0,0.0,0.0,0.0,0.0,0.0,1.7684,2.0081,2.1845,2.264,2.3169,2.4542,2.7015,2.8386,3.0709,3.4093,3.3405,3.2116,3.0229,2.7967,2.6447,0.0,0.0,0.0,2.0173,1.8841,1.7453,1.6083,1.5711,1.509,1.4406,0.0,0.0,0.0,0.0,0.0,0.0,0.0,1.0733,0.927,0.907,0.8877,0.8809,0.9351,1.0945,1.2731,1.3711,0.0,0.0,0.0,0.0,0.0,0.0,0.0,0.0,0.0,0.0,0.0,0.0,0.0,0.0,0.0,0.0,0.0,0.0,0.0,0.0,0.0,0.0,0.0,0.0,0.0,0.0,0.0,0.0,0.0,0.0,0.0,0.0,0.0,1.4968,1.4968,1.4968,1.4968,1.4968,1.4968,1.4968,1.4968,1.4968,1.4968,1.4968,1.4968,1.4968,1.4968,1.4968,1.4968,1.4968,1.4968,1.4968,1.4968,1.4968,1.4968,1.4968,1.4968,0.0,0.0,0.0,0.0,0.0,0.0,0.0,0.0,1.5397,1.5655,1.5705,0.0,0.0,0.0,0.0,0.0,0.0,0.0,1.7425,1.9779,2.1479,2.2248,2.2966,2.412,2.5857,2.6991,2.9192,3.2538,3.2008,3.0831,2.8984,2.7499,2.5981,2.454,0.0,0.0,1.8933,1.8377,1.7212,1.5711,1.5329,1.4876,1.4374,0.0,0.0,0.0,0.0,0.0,0.0,0.0,0.0,0.0,0.935,0.9136,0.9251,0.9754,1.0858,1.216,1.3594,0.0,0.0,0.0,0.0,0.0,0.0,0.0,0.0,0.0,0.0,0.0,0.0,0.0,0.0,0.0,0.0,0.0,0.0,0.0,0.0,0.0,0.0,0.0,0.0,0.0,0.0,0.0,0.0,0.0,0.0,0.0,0.0,0.0,1.4968,1.4968,1.4968,1.4968,1.4968,1.4968,1.4968,1.4968,1.4968,1.4968,1.4968,1.4968,1.4968,1.4968,1.4968,1.4968,1.4968,1.4968,1.4968,1.4968,1.4968,1.4968,1.4968,1.4968,0.0,0.0,0.0,0.0,0.0,0.0,1.5371,1.5295,1.5272,1.5253,1.5236,1.5422,0.0,0.0,0.0,1.5727,1.678,1.7368,1.7288,1.9623,2.1153,2.1502,2.22,2.3144,2.4382,2.5171,2.6697,2.9047,2.9316,2.8752,2.7353,2.632,0.0,2.4248,0.0,2.1582,1.9121,1.8555,1.7264,1.5677,1.537,1.4957,1.4466,0.0,0.0,0.0,0.0,0.0,0.0,0.0,0.0,0.0,0.9487,0.9248,0.9501,1.0546,1.156,1.2789,1.4926,0.0,0.0,0.0,0.0,0.0,0.0,0.0,0.0,0.0,0.0,0.0,0.0,0.0,0.0,0.0,0.0,0.0,0.0,0.0,0.0,0.0,0.0,0.0,0.0,0.0,0.0,0.0,0.0,0.0,0.0,0.0,0.0,0.0,1.4968,1.4968,1.4968,1.4968,1.4968,1.4968,1.4968,1.4968,1.4968,1.4968,1.4968,1.4968,1.4968,1.4968,1.4968,1.4968,1.4968,1.4968,1.4968,1.4968,1.4968,1.4968,1.4968,1.4968,0.0,0.0,0.0,0.0,0.0,0.0,1.5292,1.5241,1.5196,1.518,1.5146,1.5092,0.0,0.0,0.0,1.4871,1.6281,1.7181,1.7256,1.9401,2.0658,2.0574,2.1129,2.1862,2.2713,2.3123,2.3745,2.4496,2.6007,2.6349,2.5569,0.0,2.445,2.4317,0.0,2.148,2.0162,1.9015,1.75,1.5876,1.5661,1.5195,1.4577,1.4471,0.0,0.0,0.0,0.0,0.0,0.0,0.0,0.0,0.9448,0.9333,0.969,1.1345,1.2599,1.4018,0.0,0.0,0.0,0.0,0.0,0.0,0.0,0.0,0.0,0.0,0.0,0.0,0.0,0.0,0.0,0.0,0.0,0.0,0.0,0.0,0.0,0.0,0.0,0.0,0.0,0.0,0.0,0.0,0.0,0.0,0.0,0.0,0.0,1.4968,1.4968,1.4968,1.4968,1.4968,1.4968,0.0,1.4968,1.4968,1.4968,1.4968,1.4968,1.4968,1.4968,1.4968,1.4968,1.4968,1.4968,1.4968,1.4968,1.4968,1.4968,1.4968,1.4968,1.4968,0.0,0.0,0.0,0.0,0.0,0.0,1.5313,1.525,1.5168,1.5146,1.5113,1.5071,1.4935,1.4917,0.0,1.4671,1.5562,1.6324,1.6808,1.7833,1.8935,2.0083,2.0859,2.1335,2.1497,2.1966,2.2522,2.3069,2.4765,2.5245,0.0,0.0,0.0,2.3362,0.0,2.1406,0.0,1.8433,1.7252,1.6327,1.5145,1.4598,1.437,1.3728,1.3367,0.0,0.0,0.0,0.0,0.0,0.0,0.0,0.9588,0.9589,1.0021,1.0414,1.1575,0.0,0.0,0.0,0.0,0.0,0.0,0.0,0.0,0.0,0.0,0.0,0.0,0.0,0.0,0.0,0.0,0.0,0.0,0.0,0.0,0.0,0.0,0.0,0.0,0.0,0.0,0.0,0.0,0.0,0.0,0.0,0.0,0.0,0.0,1.4968,1.4968,1.4968,1.4968,1.4968,1.4968,0.0,1.4968,1.4968,1.4968,1.4968,1.4968,1.4968,1.4968,1.4968,1.4968,1.4968,1.4968,1.4968,1.4968,1.4968,1.4968,1.4968,1.4968,1.4984,0.0,0.0,0.0,0.0,0.0,0.0,0.0,0.0,1.5075,1.5018,1.4973,1.4917,1.4831,1.4747,0.0,0.0,1.5564,1.6365,1.6646,1.7651,1.8538,1.9172,1.9477,1.9759,2.0035,2.0316,2.0931,2.1907,2.2873,2.334,0.0,0.0,0.0,2.22,0.0,2.1332,0.0,0.0,1.7944,1.6838,1.5742,1.5053,1.4603,1.3922,1.3353,1.2861,1.2473,0.0,0.0,0.0,0.0,0.0,0.0,0.0,1.0241,1.0917,1.1807,0.0,0.0,0.0,0.0,0.0,0.0,0.0,0.0,0.0,0.0,0.0,0.0,0.0,0.0,0.0,0.0,0.0,0.0,0.0,0.0,0.0,0.0,0.0,0.0,0.0,0.0,0.0,0.0,0.0,0.0,0.0,0.0,1.4968,1.4968,1.4968,1.4968,1.4968,1.4968,1.4968,1.4968,1.4968,1.4968,1.4968,1.4968,1.4968,1.4968,1.4968,1.4968,1.4968,1.4968,1.4968,1.4968,1.4968,1.4968,1.4968,1.4968,1.4968,1.4968,1.4992,0.0,0.0,0.0,0.0,0.0,0.0,0.0,0.0,0.0,1.4863,1.4831,1.4747,1.4648,1.4556,1.4441,0.0,0.0,0.0,1.654,1.7947,1.8624,1.8293,1.8078,1.8256,1.8813,1.8903,1.9593,2.0849,2.0933,0.0,0.0,0.0,0.0,2.1055,0.0,0.0,0.0,0.0,0.0,0.0,1.6518,1.5738,1.4929,1.4396,1.3627,1.2841,1.2603,1.2196,1.1711,1.1474,0.0,0.0,0.0,0.0,1.0339,1.1437,0.0,0.0,0.0,0.0,0.0,0.0,0.0,0.0,0.0,0.0,0.0,0.0,0.0,0.0,0.0,0.0,0.0,0.0,0.0,0.0,0.0,0.0,0.0,0.0,0.0,0.0,0.0,0.0,0.0,0.0,0.0,0.0,1.4968,1.4968,1.4968,1.4968,1.4968,1.4968,1.4968,1.4968,1.4968,1.4968,1.4968,1.4968,1.4968,1.4968,1.4968,1.4968,1.4968,1.4968,1.4968,1.4968,1.4968,1.4968,1.4968,1.4968,1.4968,1.4968,1.4968,1.5,0.0,0.0,0.0,0.0,0.0,0.0,0.0,0.0,0.0,0.0,1.4708,1.4637,1.4439,1.4356,1.4295,1.4245,1.4952,1.5671,1.6299,0.0,0.0,1.8307,1.8225,1.8281,1.8563,1.8944,1.9258,1.9464,1.9932,0.0,0.0,0.0,0.0,0.0,0.0,0.0,0.0,0.0,0.0,0.0,0.0,1.556,1.4937,1.4387,1.4094,1.3824,1.2579,1.239,1.2537,1.1378,1.0909,0.0,0.0,0.0,0.0,1.0138,0.0,0.0,0.0,0.0,0.0,0.0,0.0,0.0,0.0,0.0,0.0,0.0,0.0,0.0,0.0,0.0,0.0,0.0,0.0,0.0,0.0,0.0,0.0,0.0,0.0,0.0,0.0,0.0,0.0,0.0,0.0,0.0,1.4968,1.4968,1.4968,1.4968,1.4968,1.4968,1.4968,1.4968,1.4968,1.4968,1.4968,1.4968,1.4968,1.4968,1.4968,1.4968,1.4968,1.4968,1.4968,1.4968,1.4968,1.4968,1.4968,1.4968,1.4968,1.4968,1.4968,1.5017,0.0,0.0,0.0,0.0,0.0,0.0,0.0,0.0,0.0,0.0,0.0,1.4785,1.4925,1.501,1.4971,1.4823,1.5751,1.6624,1.7151,1.7658,1.7915,1.7958,1.7915,1.7992,1.81,1.83,1.8609,1.9018,1.9263,0.0,0.0,1.9901,1.972,0.0,0.0,0.0,0.0,0.0,0.0,0.0,0.0,1.6481,1.6279,1.5593,1.5101,1.4697,1.3819,1.3174,1.2579,1.1625,1.1281,1.1102,1.0253,0.0,0.0,0.0,0.0,0.0,0.0,0.0,0.0,0.0,0.0,0.0,0.0,0.0,0.0,0.0,0.0,0.0,0.0,0.0,0.0,0.0,0.0,0.0,0.0,0.0,0.0,0.0,0.0,0.0,0.0,0.0,0.0,0.0,0.0,1.4968,1.4968,1.4968,1.4968,1.4968,1.4968,1.4968,1.4968,1.4968,1.4968,1.4968,1.4968,1.4968,1.4968,1.4968,1.4968,1.4968,1.4968,1.4968,1.4968,1.4968,1.4968,1.4968,1.4968,1.4968,1.4968,1.4968,1.5033,1.5155,0.0,0.0,0.0,0.0,0.0,0.0,0.0,0.0,0.0,0.0,0.0,1.4766,1.5076,0.0,0.0,0.0,1.6517,1.7546,1.7967,1.7927,1.7805,1.7794,1.7772,1.7772,1.7794,1.7794,1.8065,1.8606,0.0,0.0,1.9709,1.9106,1.8812,0.0,1.9375,0.0,0.0,0.0,0.0,0.0,0.0,0.0,1.7698,1.7144,1.6754,1.6314,1.5359,1.4339,1.3256,1.2424,1.1944,1.1552,1.0744,1.0563,0.0,0.0,0.0,0.0,0.0,0.0,0.0,0.0,0.0,0.0,0.0,0.0,0.0,0.0,0.0,0.0,0.0,0.0,0.0,0.0,0.0,0.0,0.0,0.0,0.0,0.0,0.0,0.0,0.0,0.0,0.0,0.0,0.0,1.4968,1.4968,1.4968,1.4968,1.4968,1.4968,1.4968,1.4968,1.4968,1.4968,1.4968,1.4968,1.4968,1.4968,1.4968,1.4968,1.4968,1.4968,1.4968,1.4968,1.4968,1.4968,1.4968,1.4968,1.4968,1.4968,1.4968,1.5082,1.526,0.0,0.0,0.0,0.0,0.0,0.0,0.0,0.0,0.0,0.0,0.0,1.4451,1.4268,1.4941,1.5296,1.4956,1.65,1.7697,1.8238,1.8252,1.8184,1.7983,1.7983,0.0,1.7794,1.7794,1.7828,0.0,0.0,0.0,1.8943,1.8619,1.8592,1.8872,1.8268,1.7349,1.6276,0.0,0.0,0.0,0.0,0.0,0.0,0.0,1.923,1.9353,1.7033,0.0,1.5308,1.3951,1.2847,1.2042,1.183,1.1688,1.15,0.0,0.0,0.0,0.0,0.0,0.0,0.0,0.0,0.0,0.0,0.0,0.0,0.0,0.0,0.0,0.0,0.0,0.0,0.0,0.0,0.0,0.0,0.0,0.0,0.0,0.0,0.0,0.0,0.0,0.0,0.0,0.0,1.4968,1.4968,1.4968,1.4968,1.4968,1.4968,1.4968,1.4968,1.4968,1.4968,1.4968,1.4968,1.4968,1.4968,1.4968,1.4968,1.4968,1.4968,1.4968,1.4968,1.4968,1.4968,1.4968,1.4968,1.4968,1.4968,1.4968,1.5082,1.526,0.0,0.0,0.0,0.0,0.0,0.0,0.0,0.0,0.0,0.0,0.0,0.0,0.0,1.6766,1.6868,1.6654,1.7559,1.8108,1.8044,1.8057,1.7787,1.7194,1.716,1.7182,1.7203,1.7203,0.0,0.0,0.0,1.7741,1.8322,1.7985,1.8007,1.8301,1.8153,1.7822,1.7343,1.6836,0.0,0.0,0.0,0.0,0.0,0.0,0.0,0.0,0.0,0.0,0.0,1.5468,1.4324,1.3361,1.2403,1.196,1.1771,1.1351,1.1144,0.0,0.0,0.0,0.0,0.0,0.0,0.0,0.0,0.0,0.0,0.0,0.0,0.0,0.0,0.0,0.0,0.0,0.0,0.0,0.0,0.0,0.0,0.0,0.0,0.0,0.0,0.0,0.0,0.0,0.0,0.0,1.4968,1.4968,1.4968,1.4968,1.4968,1.5275,1.5727,1.5275,1.5275,1.5727,1.5275,1.5267,1.5727,1.5727,1.6033,1.6492,1.6492,1.6186,1.5727,1.5727,1.6033,1.6492,1.6492,1.6492,1.6501,1.6789,1.6805,1.7002,0.0,0.0,0.0,0.0,0.0,0.0,0.0,0.0,0.0,0.0,0.0,0.0,0.0,0.0,1.8141,1.8003,1.8301,1.8348,1.8057,1.8014,1.7586,1.6715,1.6627,1.6648,1.6745,1.6238,0.0,0.0,0.0,0.0,0.0,0.0,1.7546,1.7809,1.7558,0.0,0.0,0.0,0.0,1.7998,0.0,0.0,2.1763,0.0,0.0,0.0,0.0,0.0,0.0,0.0,0.0,0.0,0.0,1.3116,1.2469,1.1469,0.0,0.0,0.0,0.0,0.0,0.0,0.0,0.0,0.0,0.0,0.0,0.0,0.0,0.0,0.0,0.0,0.0,0.0,0.0,0.0,0.0,0.0,0.0,0.0,0.0,0.0,0.0,0.0,0.0,0.0,0.0,0.0,1.588,1.5573,1.5267,1.4968,1.4968,1.542,1.6186,1.5727,1.588,1.6644,1.6033,1.588,1.6186,1.6492,1.6797,1.695,1.7255,1.7102,1.6644,1.6644,1.695,1.7407,1.7407,1.7407,1.7426,1.7653,1.7851,1.8059,0.0,0.0,0.0,0.0,0.0,0.0,0.0,0.0,0.0,0.0,0.0,0.0,0.0,0.0,0.0,1.8842,1.8673,1.8483,1.8328,1.8246,1.7714,1.6673,1.6541,1.6475,1.6387,1.494,0.0,0.0,0.0,0.0,0.0,0.0,1.7212,0.0,1.6362,1.6457,1.7432,0.0,1.681,1.8252,0.0,2.1728,2.3327,0.0,0.0,0.0,2.3694,2.2012,0.0,0.0,0.0,0.0,0.0,0.0,0.0,0.0,0.0,0.0,0.0,0.0,0.0,0.0,0.0,0.0,0.0,0.0,0.0,0.0,0.0,0.0,0.0,0.0,0.0,0.0,0.0,0.0,0.0,0.0,0.0,0.0,0.0,0.0,0.0,0.0,0.0,0.0,0.0,1.719,1.7379,1.6635,1.588,1.5122,1.4968,1.542,1.6186,1.6186,1.6644,1.7407,1.7407,1.695,1.6339,1.7102,1.694,1.6339,1.7102,1.7407,1.7407,1.7407,1.7407,1.7407,1.7407,1.7407,1.7578,1.7817,1.8017,1.8059,0.0,0.0,0.0,0.0,0.0,1.8217,1.8864,1.9606,2.0278,0.0,0.0,0.0,0.0,0.0,0.0,1.9734,1.9624,1.9239,1.8363,1.8246,1.7776,1.6863,1.6733,1.6712,1.669,1.6313,1.6504,0.0,0.0,0.0,0.0,0.0,0.0,0.0,1.5698,1.596,1.7236,1.6567,0.0,0.0,2.0914,2.2454,0.0,0.0,0.0,0.0,0.0,2.3088,2.22,0.0,2.0182,1.8526,0.0,0.0,0.0,0.0,0.0,0.0,1.1092,0.0,0.0,0.0,0.0,0.0,0.0,0.0,0.0,0.0,0.0,0.0,0.0,0.0,0.0,0.0,0.0,0.0,0.0,0.0,0.0,0.0,0.0,0.0,0.0,0.0,0.0,0.0,1.7912,1.7722,1.718,1.6563,1.6033,1.588,1.588,1.6186,1.7093,1.7102,1.7407,1.8319,1.7711,1.7559,1.8006,1.8168,1.8471,1.8936,1.9088,1.9239,1.9239,1.8471,1.8623,1.9239,1.9239,1.9239,1.9281,1.9688,1.9876,1.998,0.0,0.0,1.8167,1.818,1.9109,1.9899,2.0047,2.13,2.2218,0.0,0.0,0.0,0.0,0.0,0.0,0.0,2.0443,1.9967,1.8898,1.8697,1.81,1.6891,1.6753,1.6657,1.6657,1.6015,1.603,0.0,0.0,0.0,0.0,0.0,0.0,0.0,0.0,0.0,0.0,0.0,0.0,0.0,2.2024,0.0,0.0,2.5648,2.6113,0.0,0.0,0.0,2.3358,2.2998,2.1574,0.0,0.0,0.0,0.0,0.0,0.0,0.0,0.0,0.0,0.0,0.0,0.0,0.0,0.0,0.0,0.0,0.0,0.0,0.0,0.0,0.0,0.0,0.0,0.0,0.0,0.0,0.0,0.0,0.0,0.0,0.0,0.0,0.0,0.0,1.8383,1.8394,1.8244,1.7693,1.7294,1.695,1.6186,1.6492,1.695,1.7407,1.7711,1.8319,1.9077,1.8623,1.8471,1.8623,1.8926,1.9239,1.939,1.9693,1.9844,1.9844,1.939,1.939,1.9844,1.9844,1.9908,2.0048,2.0425,2.0619,2.0759,0.0,0.0,1.9653,1.9727,2.0916,2.1686,2.1147,2.2756,2.3878,0.0,0.0,0.0,0.0,0.0,0.0,0.0,2.1306,2.0831,1.9808,1.9425,1.855,1.713,1.6749,1.6608,1.6586,1.5118,1.4864,0.0,0.0,0.0,0.0,0.0,0.0,0.0,1.5624,1.6103,0.0,0.0,0.0,2.1328,2.3357,2.4835,0.0,0.0,2.6935,0.0,2.6493,2.5453,2.4071,2.433,2.3061,0.0,0.0,0.0,0.0,0.0,1.3037,0.0,0.0,0.0,0.0,0.0,0.0,0.0,0.0,0.0,0.0,0.0,0.0,0.0,0.0,0.0,0.0,0.0,0.0,0.0,0.0,0.0,0.0,0.0,0.0,0.0,0.0,0.0,1.9347,1.8812,1.8756,1.8693,1.8387,1.8441,1.7957,1.6456,1.7065,1.7531,1.7559,1.8319,1.9077,1.9844,1.9844,1.9542,1.8774,1.9542,1.9542,1.8774,1.9542,1.9844,1.9844,1.9844,1.9844,1.9844,1.9844,1.9994,2.0242,2.0479,2.0705,2.0942,1.8673,1.9119,1.9815,2.0504,2.0871,2.1689,2.3603,2.3503,2.386,2.5527,0.0,0.0,0.0,0.0,0.0,0.0,0.0,2.2336,2.0674,1.9813,1.9107,1.8597,1.7794,1.7309,1.7169,1.6825,1.6319,1.5654,0.0,0.0,0.0,0.0,0.0,0.0,0.0,0.0,0.0,0.0,0.0,2.3834,2.4464,0.0,2.5697,2.606,2.6332,2.6504,2.6124,2.5788,2.53,0.0,2.3679,2.2949,0.0,0.0,0.0,0.0,0.0,0.0,0.0,0.0,0.0,0.0,0.0,0.0,0.0,0.0,0.0,0.0,0.0,0.0,0.0,0.0,0.0,0.0,0.0,0.0,0.0,0.0,0.0,0.0,0.0,0.0,0.0,0.0,1.9198,1.8356,1.8573,1.8907,1.8905,1.8371,1.803,1.7911,1.8061,1.814,1.8309,1.9239,1.9693,1.9844,1.9844,1.9844,1.9693,1.9844,1.9844,1.9693,1.9844,1.9844,1.9844,1.9844,1.9844,1.9844,1.9844,1.9994,2.0242,2.0479,2.0705,2.0942,1.9061,1.9332,2.0015,2.1372,2.1764,2.2469,2.4148,2.4485,2.4808,0.0,0.0,0.0,0.0,0.0,0.0,0.0,0.0,0.0,2.2129,2.1417,2.0534,1.9314,1.8722,1.8246,1.7749,1.7176,1.6558,1.5918,0.0,0.0,0.0,0.0,0.0,0.0,0.0,0.0,0.0,0.0,2.2692,2.5187,2.5588,0.0,2.7383,2.7138,2.7149,2.7267,2.6715,2.6385,2.6025,2.487,2.4218,0.0,0.0,2.13,1.9909,0.0,1.6122,1.5037,0.0,0.0,0.0,1.2741,0.0,0.0,0.0,0.0,0.0,0.0,0.0,0.0,0.0,0.0,0.0,0.0,0.0,0.0,0.0,0.0,0.0,0.0,0.0,0.0,0.0,0.0,1.9276,1.8205,1.8412,1.8713,1.8961,1.8643,1.8371,1.8289,1.8746,1.8849,1.8623,1.939,1.9844,1.9844,1.9844,1.9844,1.9844,1.9844,1.9844,1.9844,1.9844,1.9844,1.9844,1.9844,1.9844,1.9844,1.9844,2.007,2.0404,2.0522,2.078,2.1103,1.9699,1.9697,2.0182,2.1939,2.2582,2.3251,2.4487,2.5382,2.578,0.0,0.0,0.0,0.0,0.0,0.0,0.0,0.0,0.0,0.0,2.3753,2.2522,2.0813,1.9969,1.9246,1.854,1.7263,1.6413,1.6059,0.0,0.0,0.0,0.0,0.0,0.0,0.0,0.0,0.0,0.0,0.0,2.6086,0.0,2.7864,2.9429,2.8633,2.8474,2.8441,2.7545,2.688,2.64,2.5782,0.0,2.4168,2.3977,2.2725,0.0,0.0,0.0,0.0,0.0,0.0,0.0,0.0,0.0,1.366,0.0,0.0,0.0,0.0,0.0,0.0,0.0,0.0,0.0,0.0,0.0,0.0,0.0,0.0,0.0,0.0,0.0,0.0,0.0,0.0,1.9078,1.8107,1.8315,1.8541,1.8649,1.8885,1.8852,1.8525,1.9128,1.9266,1.8926,1.9542,1.9844,1.9844,1.9844,1.9844,1.9844,1.9844,1.9844,1.9844,1.9844,1.9844,1.9844,1.9844,1.9844,1.9854,1.9898,2.0177,2.0565,2.0608,2.0899,2.1276,1.9814,1.9763,2.0263,2.1868,2.2159,2.3225,2.6281,2.5943,2.5896,0.0,0.0,0.0,0.0,0.0,0.0,0.0,0.0,0.0,2.8965,0.0,2.5347,2.5099,2.2175,2.0322,1.9825,1.8165,1.6678,1.548,0.0,0.0,0.0,0.0,0.0,0.0,1.8826,0.0,0.0,0.0,2.6002,0.0,2.7243,2.8649,0.0,2.9391,2.9237,2.9523,2.7777,2.688,2.6595,0.0,2.6409,2.553,0.0,2.4556,2.4008,0.0,0.0,0.0,0.0,0.0,0.0,0.0,1.4246,0.0,0.0,0.0,0.0,0.0,0.0,0.0,0.0,0.0,0.0,0.0,0.0,0.0,0.0,0.0,0.0,0.0,0.0,0.0,0.0,0.0,0.0,1.7755,1.8369,1.8573,1.8196,1.839,1.8581,1.903,1.9041,1.9402,1.9693,1.9844,1.9844,1.9844,1.9844,1.9844,1.9844,1.9844,1.9844,1.9844,1.9844,1.9844,1.9844,1.9844,1.9844,1.9865,2.0091,2.0328,2.0587,2.0791,2.1039,2.1276,1.9976,2.0126,2.0961,2.2637,2.2747,2.3614,2.6488,2.7031,2.7536,0.0,0.0,0.0,0.0,0.0,0.0,0.0,0.0,3.1086,0.0,0.0,0.0,2.5479,2.3425,2.174,2.0504,1.8372,1.7157,1.6913,1.5455,0.0,0.0,0.0,0.0,0.0,2.0049,0.0,2.3891,0.0,0.0,0.0,0.0,0.0,0.0,2.909,2.8081,2.8197,2.7451,2.7044,2.6926,0.0,2.6685,0.0,0.0,0.0,0.0,0.0,0.0,0.0,0.0,0.0,0.0,0.0,0.0,0.0,1.4969,0.0,1.4482,0.0,0.0,0.0,0.0,0.0,0.0,0.0,0.0,0.0,0.0,0.0,0.0,0.0,0.0,0.0,0.0,0.0,0.0,0.0,0.0,1.8293,1.811,1.8315,1.8595,1.8928,1.9079,1.9305,1.9639,1.9779,1.9844,1.9844,1.9844,1.9844,1.9844,1.9844,1.9844,1.9844,1.9844,1.9844,1.9844,1.9844,1.9844,1.9887,2.0264,2.0479,2.0587,2.0823,2.106,2.1276,2.069,2.0899,2.1695,2.3199,2.3252,2.397,2.6589,2.8057,0.0,0.0,0.0,0.0,3.1788,3.1772,0.0,0.0,3.3121,3.2765,0.0,0.0,3.0055,2.802,2.5881,0.0,2.2212,1.9747,1.8156,1.754,1.6003,0.0,0.0,0.0,0.0,0.0,0.0,2.2814,2.5871,0.0,0.0,3.0738,3.041,3.1216,3.2219,2.945,2.7998,2.7461,2.7575,2.7561,2.7501,2.7721,2.7266,0.0,2.6885,0.0,0.0,0.0,0.0,0.0,1.9851,0.0,0.0,0.0,0.0,0.0,0.0,0.0,0.0,0.0,0.0,0.0,0.0,0.0,0.0,0.0,0.0,0.0,0.0,0.0,0.0,0.0,0.0,0.0,0.0,0.0,0.0,0.0,0.0,0.0,1.7992,1.8218,1.8476,1.8778,1.9025,1.9262,1.9499,1.9736,1.9844,1.9844,1.9844,1.9844,1.9844,1.9844,1.9844,1.9844,1.9844,1.9844,1.9844,1.9844,1.9887,1.9984,2.0404,2.0597,2.0684,2.092,2.1125,2.1276,2.214,2.2126,2.2397,2.316,2.3279,2.4244,2.7059,2.8721,0.0,0.0,0.0,0.0,0.0,0.0,0.0,0.0,0.0,3.6013,3.5777,0.0,3.3889,3.5004,3.0348,2.713,0.0,2.3138,2.0004,1.6441,1.7093,0.0,0.0,0.0,0.0,0.0,0.0,2.1718,2.3014,2.7008,2.9276,3.0168,3.0701,3.0456,3.0049,0.0,2.9965,2.8012,2.8494,0.0,0.0,2.9075,2.8768,0.0,0.0,0.0,0.0,0.0,0.0,0.0,0.0,0.0,0.0,1.7613,0.0,0.0,0.0,0.0,1.6129,0.0,0.0,0.0,0.0,0.0,0.0,0.0,0.0,0.0,0.0,0.0,0.0,0.0,0.0,0.0,0.0,0.0,0.0,0.0,0.0,0.0,1.7744,1.797,1.8315,1.8767,1.9025,1.9262,1.9499,1.9736,1.9844,1.9844,1.9844,1.9844,1.9844,1.9844,1.9844,1.9844,1.9844,1.9844,1.9844,1.9844,1.9984,2.0231,2.0468,2.0694,2.092,2.1179,2.1276,2.1276,2.3805,2.379,2.3646,2.3236,2.4056,2.55,2.7743,2.9413,0.0,0.0,0.0,0.0,0.0,3.5077,3.5588,0.0,0.0,3.6055,3.6195,3.4923,0.0,0.0,0.0,2.8739,0.0,0.0,0.0,0.0,0.0,0.0,0.0,0.0,0.0,0.0,0.0,2.2683,0.0,0.0,0.0,0.0,0.0,3.1599,3.0882,0.0,0.0,2.8471,2.8632,2.8614,0.0,2.882,2.8779,2.8451,2.8521,2.8343,2.8006,2.6901,2.5983,0.0,0.0,0.0,2.1039,1.9876,0.0,0.0,0.0,0.0,0.0,0.0,0.0,0.0,0.0,0.0,0.0,0.0,0.0,0.0,0.0,0.0,0.0,0.0,0.0,0.0,0.0,0.0,0.0,0.0,0.0,0.0,0.0,1.7873,1.8229,1.8541,1.8939,1.9187,1.9262,1.965,1.9844,1.9844,1.9844,1.9844,1.9844,1.9844,1.9844,1.9844,1.9844,1.9844,1.9844,1.9844,1.9994,2.0242,2.0468,2.0705,2.0931,2.119,2.1276,2.1276,2.4676,2.4629,2.4381,2.3617,2.504,2.6841,0.0,0.0,0.0,0.0,3.381,0.0,3.5572,0.0,3.5814,0.0,3.6653,3.6574,3.7015,3.5896,0.0,3.5529,3.2951,0.0,0.0,0.0,0.0,0.0,0.0,1.8811,0.0,0.0,0.0,0.0,0.0,0.0,2.5809,0.0,2.9954,0.0,0.0,3.2495,0.0,0.0,2.9796,2.9274,0.0,2.9527,2.9527,2.9527,2.9527,2.9461,2.933,2.9015,2.8674,2.8207,2.7054,2.5767,2.452,2.3277,0.0,2.1087,2.0671,0.0,1.9384,0.0,0.0,0.0,0.0,0.0,0.0,0.0,0.0,0.0,0.0,0.0,0.0,0.0,0.0,0.0,0.0,0.0,0.0,0.0,0.0,0.0,0.0,0.0,0.0,0.0,1.7981,1.8304,1.8778,1.9058,1.9155,1.9618,1.9844,1.9844,1.9844,1.9844,1.9844,1.9844,1.9844,1.9844,1.9844,1.9844,1.9844,1.9844,2.0037,2.035,2.05,2.0705,2.0931,2.119,2.1276,2.1254,2.4896,2.4804,2.4645,0.0,2.6255,0.0,0.0,0.0,3.3341,0.0,3.4891,3.5683,3.6797,3.6363,3.6323,3.7136,3.7261,0.0,3.8311,3.708,0.0,0.0,3.5879,3.3816,3.4062,0.0,0.0,0.0,0.0,0.0,0.0,0.0,0.0,0.0,1.9793,0.0,2.6539,2.7247,2.9917,3.3509,3.296,3.3023,3.3386,3.2744,3.1588,3.0354,3.0836,3.1042,3.1042,3.1042,3.1042,3.0973,3.0445,2.9645,2.897,2.9314,2.7359,2.5004,2.4737,2.3195,2.1579,2.1139,0.0,0.0,0.0,0.0,1.971,0.0,0.0,0.0,0.0,0.0,0.0,0.0,0.0,0.0,0.0,0.0,0.0,0.0,0.0,0.0,0.0,0.0,0.0,0.0,0.0,0.0,0.0,0.0,0.0,1.8078,1.8552,1.8918,1.9144,1.9618,1.9844,1.9844,1.9844,1.9844,1.9844,1.9844,1.9844,1.9844,1.9844,1.9844,1.9844,1.9844,2.0134,2.0565,2.0565,2.0705,2.0931,2.1157,2.1254,2.1211,2.6525,2.6425,2.658,0.0,2.8554,2.9465,0.0,0.0,0.0,0.0,3.6371,3.7387,3.8431,3.8085,3.7985,3.8487,3.7775,0.0,0.0,0.0,0.0,3.683,3.5838,3.4685,3.3477,3.0773,0.0,2.5882,0.0,0.0,2.1167,0.0,0.0,0.0,0.0,0.0,2.639,2.7615,3.0024,3.296,3.3247,3.3617,0.0,0.0,3.2641,3.2065,3.1807,3.1693,3.157,3.157,3.157,3.1547,3.141,3.0924,3.0278,2.9635,2.8623,2.7526,2.6446,2.5586,2.464,2.3383,2.3073,2.2699,0.0,0.0,0.0,0.0,0.0,0.0,0.0,0.0,0.0,0.0,0.0,0.0,0.0,0.0,0.0,0.0,0.0,0.0,0.0,0.0,0.0,0.0,0.0,0.0,0.0,0.0,0.0,1.8089,1.8724,1.909,1.9155,1.9618,1.9844,1.9844,1.9844,1.9844,1.9844,1.9844,1.9844,1.9844,1.9844,1.9844,1.9844,1.9844,2.0134,2.0565,2.0565,2.0705,2.0888,2.078,2.0974,2.1211,2.8299,0.0,0.0,2.9922,0.0,0.0,3.2254,0.0,0.0,3.7365,3.8087,0.0,3.9948,3.9413,3.9072,3.9242,3.8832,0.0,3.8525,0.0,0.0,3.7408,3.655,3.5911,3.5464,3.2756,0.0,2.9193,0.0,0.0,2.3579,0.0,0.0,0.0,0.0,2.5382,0.0,2.9794,3.1649,3.333,3.3537,0.0,0.0,3.3847,3.3539,3.3549,3.2957,3.2488,3.2076,3.2076,3.2076,3.2053,3.1823,3.1476,3.0891,3.0541,2.9654,2.8679,2.7882,2.7063,2.623,2.5133,2.4629,2.4025,2.2743,2.2195,2.165,0.0,0.0,0.0,0.0,0.0,0.0,0.0,0.0,0.0,0.0,0.0,0.0,0.0,0.0,0.0,0.0,0.0,0.0,0.0,0.0,0.0,0.0,0.0,0.0,1.7916,1.8519,1.8939,1.9144,1.9618,1.9844,1.9844,1.9844,1.9844,1.9844,1.9844,1.9844,1.9844,1.9844,1.9844,1.9854,1.9962,2.0167,2.0414,2.0414,2.0608,2.0845,2.0414,2.0554,2.0899,0.0,0.0,0.0,0.0,0.0,0.0,0.0,3.6006,0.0,3.945,0.0,4.0138,4.107,4.0391,3.9815,3.9714,0.0,4.0028,4.0127,3.9088,3.8764,3.9198,3.7584,3.7137,3.8119,3.514,0.0,0.0,0.0,0.0,0.0,0.0,0.0,0.0,0.0,0.0,0.0,3.2407,3.3595,0.0,3.3828,3.4345,3.5227,3.4474,3.451,3.4785,3.4006,3.3262,3.2581,3.2581,3.2581,3.2512,3.2099,3.1627,3.124,3.1591,3.0537,2.9168,2.9125,2.837,2.7396,2.6846,2.606,2.5167,2.4245,2.3379,2.2586,2.2227,2.1867,2.1919,0.0,0.0,0.0,0.0,0.0,0.0,0.0,0.0,0.0,0.0,0.0,0.0,0.0,0.0,0.0,0.0,0.0,0.0,0.0,0.0,0.0,1.769,1.8186,0.0,1.9187,0.0,1.9833,1.9898,1.9865,1.9844,1.9844,1.9844,1.9844,1.9844,1.9844,1.9844,1.9865,2.0113,2.0231,2.0253,2.0221,2.0457,2.0737,2.0091,2.0113,2.0404,0.0,0.0,0.0,0.0,0.0,3.6508,3.8544,3.9211,3.9347,3.9068,4.0516,4.1409,4.1016,4.105,4.0832,4.0222,3.9568,0.0,0.0,0.0,0.0,3.7875,3.8042,3.7712,3.6848,3.5151,3.4229,0.0,0.0,0.0,0.0,0.0,0.0,0.0,0.0,0.0,3.1748,3.2867,0.0,3.3695,3.4084,3.4685,3.5253,3.4996,3.5223,3.5554,3.4583,3.3801,3.3155,3.3155,3.3155,3.3132,3.304,3.2718,3.2179,3.1878,3.1247,3.0568,3.0556,3.0701,3.0627,2.9513,2.8465,2.7353,2.5788,2.4485,2.3357,2.2997,2.286,2.2775,2.2672,0.0,0.0,0.0,0.0,0.0,0.0,0.0,0.0,0.0,0.0,0.0,0.0,0.0,0.0,0.0,0.0,0.0,0.0,0.0,0.0,0.0,0.0,0.0,0.0,0.0,1.9758,2.0145,1.9941,1.9844,1.9844,1.9844,1.9844,1.9844,1.9844,1.9844,1.9865,2.0113,2.0328,2.0479,2.0285,2.0264,2.0296,1.9973,1.9898,1.9962,0.0,0.0,0.0,0.0,0.0,0.0,0.0,4.0674,0.0,4.0892,4.1997,4.2618,4.2319,4.2305,4.2208,4.1866,4.1312,4.1023,4.0956,4.0729,4.0102,3.9065,3.8854,0.0,3.756,3.6722,3.5888,3.4999,0.0,0.0,0.0,0.0,0.0,0.0,0.0,3.2444,0.0,0.0,0.0,3.4686,3.4706,3.5173,3.5696,3.5532,3.5821,3.6168,3.4872,3.4379,3.4217,3.3561,3.3292,3.3292,3.3292,3.3109,3.2902,3.2605,3.2241,3.175,3.1728,3.1661,3.146,3.0525,2.9828,2.8767,2.675,2.5591,2.472,2.3616,2.3562,2.3511,2.2946,2.2333,0.0,0.0,0.0,0.0,0.0,0.0,0.0,0.0,0.0,0.0,0.0,0.0,0.0,0.0,0.0,0.0,0.0,0.0,0.0,0.0,0.0,0.0,0.0,0.0,0.0,2.0027,1.9908,1.9844,1.9844,1.9844,1.9779,1.9671,1.979,1.9779,1.9682,1.993,2.0242,2.0533,2.0167,2.0102,2.0188,1.9941,1.9844,1.9844,0.0,3.7124,0.0,0.0,4.019,0.0,4.1842,4.196,4.2219,4.2847,4.3301,4.3506,4.3471,4.3484,4.3354,4.3081,4.2828,4.2468,4.1888,4.1704,4.1322,4.0679,3.9831,3.924,3.8872,3.8247,3.7406,0.0,0.0,0.0,0.0,0.0,0.0,0.0,0.0,0.0,0.0,0.0,3.5049,3.5737,3.5272,3.5627,3.6243,3.6174,3.6504,3.6734,3.5284,3.5035,3.527,3.3985,3.3614,3.3614,3.3614,3.3522,3.343,3.343,3.3063,3.2643,3.2632,3.2419,3.1984,3.1338,3.0874,2.9977,2.7728,2.6825,2.5934,2.4378,2.4196,2.4145,2.3477,2.3357,0.0,0.0,0.0,0.0,0.0,0.0,0.0,0.0,0.0,0.0,0.0,0.0,0.0,0.0,0.0,0.0,0.0,0.0,0.0,0.0,0.0,1.8476,1.9295,0.0,1.9596,0.0,1.9822,1.9801,1.9844,1.979,1.9671,1.951,1.9639,1.965,1.9585,1.9768,2.0102,2.0447,2.0016,1.9962,2.0113,1.9919,1.9844,1.9844,0.0,0.0,0.0,0.0,0.0,0.0,4.3208,4.4047,4.4353,4.3533,4.3471,4.3506,4.3471,4.3935,4.3752,4.2652,4.2159,4.1988,4.2162,4.182,4.1426,4.1082,4.0956,4.061,3.9966,3.8653,3.8027,0.0,0.0,0.0,0.0,0.0,0.0,0.0,0.0,0.0,0.0,3.4967,3.5197,3.5885,3.5463,3.5913,3.6933,3.6895,3.7286,3.7675,3.6525,3.6137,3.6062,3.5025,3.4647,3.4647,3.4647,3.4326,3.3935,3.3935,3.3591,3.3224,3.3269,3.3467,3.3549,3.251,3.1949,3.1071,2.9065,2.7865,2.6828,2.5518,2.4967,2.4641,2.4213,2.4127,2.423,0.0,0.0,0.0,0.0,0.0,0.0,0.0,0.0,0.0,0.0,0.0,0.0,0.0,0.0,0.0,0.0,0.0,0.0,1.8035,0.0,1.8616,1.9768,1.9381,0.0,2.0177,1.9736,1.9639,1.9844,1.9628,1.9521,1.9488,1.9295,1.9445,1.9811,1.9844,2.0005,2.0221,1.9951,1.9865,1.9876,1.9854,1.9844,1.9844,0.0,0.0,0.0,0.0,0.0,0.0,0.0,4.447,4.4695,4.5089,4.4848,4.4473,4.4039,4.4544,4.468,4.3858,4.3384,4.3032,4.2861,4.2443,4.2328,4.2654,4.166,4.1087,4.1015,3.9844,3.8958,0.0,0.0,0.0,0.0,0.0,0.0,0.0,0.0,3.5711,3.5416,3.5974,3.6089,3.5934,3.6823,3.7297,3.7457,3.7828,3.833,3.8675,3.747,3.749,3.7867,3.6486,3.5457,3.4808,3.4808,3.4647,3.4486,3.4486,3.4349,3.4188,3.4188,3.4349,3.4245,3.3106,3.242,3.1479,2.951,2.8331,2.7254,2.6179,2.5697,2.5309,2.4693,2.4761,2.4812,0.0,0.0,0.0,0.0,0.0,0.0,0.0,0.0,0.0,0.0,0.0,0.0,0.0,0.0,0.0,0.0,0.0,0.0,1.8272,0.0,1.8358,1.9413,1.9101,1.9144,1.9575,1.9381,1.9338,1.9424,1.9338,1.9295,1.9284,1.9187,1.9338,1.965,1.979,1.9908,1.9984,1.9887,1.9844,1.9844,1.9844,1.9844,1.9844,4.1792,0.0,4.4839,0.0,4.4938,4.5549,4.5282,4.5092,4.5187,4.5796,4.5664,4.5373,4.4921,4.5183,4.5177,4.4763,4.4429,4.3972,4.3383,4.2958,4.3067,4.3686,4.2494,0.0,4.2224,4.1107,4.0022,3.9093,3.9657,0.0,0.0,3.6277,0.0,0.0,3.6585,3.6515,3.6203,3.6902,3.7071,3.6949,3.7984,3.8243,3.8016,3.8629,3.899,3.911,3.8287,3.8536,3.902,3.7453,3.6344,3.5538,3.5327,3.5129,3.5014,3.5014,3.49,3.4808,3.4808,3.4808,3.4612,3.3704,3.3215,3.2425,3.0379,2.935,2.8422,2.6928,2.633,2.5908,2.5275,2.536,2.5395,2.4967,0.0,0.0,0.0,0.0,0.0,0.0,0.0,0.0,0.0,0.0,0.0,0.0,0.0,0.0,0.0,0.0,0.0,0.0,0.0,0.0,0.0,1.8875,1.8907,1.9155,1.9079,1.9079,1.9144,1.9079,1.9004,1.895,1.909,1.9241,1.9424,1.9725,1.9844,1.9844,1.9844,1.9844,1.9844,1.9844,1.9844,1.9844,4.4382,4.4696,4.524,4.5686,4.5784,4.582,4.582,4.6234,4.6177,4.515,4.5466,4.587,4.6168,4.5701,4.5177,4.4763,4.4708,4.4282,4.335,4.329,4.3408,0.0,0.0,4.3684,4.3712,4.2319,4.1225,4.0509,0.0,0.0,3.2257,3.1082,3.2876,3.695,3.6332,3.6754,3.7878,3.7451,3.7979,3.8999,3.8542,3.8485,3.8655,3.9215,3.915,3.8747,3.9086,3.9195,3.8969,3.7863,3.7501,3.7287,3.6557,3.591,3.552,3.552,3.5175,3.4808,3.4808,3.4808,3.468,3.4133,3.428,3.3967,3.1701,3.1245,3.0451,2.7623,2.6727,2.6371,2.5994,2.5925,2.6045,2.6405,0.0,0.0,0.0,0.0,0.0,0.0,0.0,1.9986,1.8459,0.0,0.0,0.0,0.0,0.0,0.0,0.0,0.0,1.7723,1.7959,0.0,1.8789,1.8789,1.8907,1.9144,1.8907,1.8918,1.9144,1.8896,1.8659,1.8466,1.8939,1.9155,1.9187,1.9661,1.9844,1.9844,1.9844,1.9844,1.9844,1.9844,1.9844,1.9844,4.5986,4.6199,4.6453,4.6614,4.6605,4.656,4.6376,4.646,4.6565,4.6555,4.6584,4.6864,4.7439,4.6741,4.6261,0.0,4.5949,4.5243,0.0,4.4229,4.4399,4.4431,4.4234,4.4221,4.4408,4.3245,4.2389,4.1955,0.0,0.0,0.0,3.5265,3.5883,3.7597,3.74,3.7606,3.8144,3.8422,3.8386,3.8249,3.9093,3.955,3.9735,4.0286,4.0583,4.087,4.0667,4.0572,4.0436,3.8926,3.8372,3.8161,3.6688,3.6162,3.6025,3.6025,3.5933,3.5795,3.5795,3.5795,3.5726,3.5146,3.4527,3.3879,3.313,3.1937,3.0363,2.825,2.7626,2.7315,2.6422,2.6319,2.6268,2.6131,2.5908,0.0,0.0,0.0,0.0,0.0,0.0,2.1166,0.0,1.8556,0.0,0.0,0.0,0.0,0.0,0.0,0.0,0.0,1.797,0.0,1.8778,1.8627,1.8584,1.8659,1.8584,1.8584,1.8659,1.8584,1.8595,1.8692,1.9015,1.9241,1.9413,1.9714,1.9844,1.9844,1.9844,1.9844,1.9844,1.9844,1.9844,1.9844,4.7189,4.7089,4.6998,4.6998,4.7247,4.738,4.724,4.7441,4.7652,4.7764,4.763,4.7736,4.832,4.781,0.0,4.7273,4.6777,4.6099,4.5208,4.5077,4.5114,4.5144,4.4841,4.4819,4.5136,0.0,0.0,4.2971,4.1428,3.9841,3.831,3.7918,3.7906,3.8271,3.8271,3.8445,3.8866,3.9172,3.9137,3.8951,4.0078,4.0576,4.0486,4.1314,4.1764,4.1883,4.1646,4.1576,4.1398,3.9853,3.9104,3.8582,3.7203,3.658,3.6277,3.6277,3.6277,3.6277,3.6277,3.6277,3.6185,3.5887,3.5341,3.4558,3.379,3.2194,3.0313,2.8774,2.8027,2.7522,2.6799,2.6713,2.6628,2.6405,2.6234,2.6148,2.6148,0.0,0.0,0.0,0.0,0.0,0.0,1.9837,0.0,0.0,0.0,0.0,0.0,0.0,0.0,1.8024,1.7927,0.0,1.8519,1.8466,1.8433,1.8433,1.8433,1.8433,1.8433,1.8433,1.8562,1.8799,1.9047,1.9284,1.9521,1.9747,1.9844,1.9844,1.9844,1.9844,1.9844,1.9844,1.9844,1.9844,4.8065,4.7565,0.0,0.0,4.7747,0.0,4.8247,4.8806,4.911,4.8643,4.8539,4.8644,4.886,4.8907,4.8574,4.7885,0.0,0.0,0.0,4.5917,4.5767,4.5856,4.5612,4.5617,4.5896,4.4871,4.406,4.3556,4.1683,4.0147,3.8943,3.8943,3.8889,3.8917,3.8917,3.9283,3.9845,3.9901,4.0238,4.0742,4.1418,4.1435,4.1156,4.2288,4.245,4.2086,4.2172,4.2092,4.1868,4.0567,3.9544,3.8687,3.782,3.6989,3.6386,3.6277,3.6277,3.6277,3.6277,3.6277,3.6277,3.6277,3.6277,3.5817,3.4065,3.2206,3.0395,2.9361,2.8108,2.7263,2.7158,2.7124,2.7107,2.7107,2.6782,2.6525,2.6525,0.0,0.0,0.0,0.0,0.0,0.0,2.1222,2.0407,0.0,0.0,0.0,0.0,0.0,1.8142,1.7453,1.7863,1.8099,1.8121,1.8326,1.8433,1.8433,1.8433,1.8433,1.8433,1.8433,1.8573,1.8821,1.9047,1.9295,1.9542,1.9758,1.9844,1.9844,1.9844,1.9844,1.9844,1.9844,1.9844,1.9844,0.0,0.0,4.8389,4.8722,4.8925,4.9067,4.9067,4.887,4.8886,4.9363,4.9005,4.8951,4.9631,4.9735,4.9457,4.8865,4.8855,4.8219,4.6612,4.7566,4.7744,4.6666,4.7114,4.7148,4.655,4.5782,4.46,4.2879,4.193,4.0792,3.9533,3.9106,3.9114,3.9564,3.9564,3.9901,4.0519,4.0997,4.1075,4.0919,4.1915,4.2356,4.2436,4.3082,4.3034,4.2683,4.2722,4.219,4.1298,4.0389,3.9955,3.9544,3.795,3.7418,3.7096,3.6472,3.6277,3.6277,3.6277,3.6277,3.6277,3.6277,3.6277,3.6041,3.4928,3.4053,3.2784,3.0876,2.9959,2.9136,2.8179,2.7689,2.7484,2.7484,2.7176,2.6936,2.6936,2.6867,0.0,0.0,2.57,2.4826,2.4193,2.2539,2.1371,0.0,0.0,0.0,0.0,1.8867,1.8466,1.7938,1.8035,1.8175,1.8358,1.8412,1.8433,1.8433,1.8433,1.8433,1.8433,1.8433,1.8659,1.9068,1.9122,1.9381,1.9768,1.9822,1.9844,1.9844,1.9844,1.9844,1.9844,1.9844,1.9844,1.9844,4.9679,4.9452,4.9235,4.9293,4.9603,4.9804,4.9657,4.9725,4.9855,5.001,4.9716,4.9664,4.9976,5.0321,5.0163,4.9396,4.9416,4.8927,4.7638,4.847,4.8673,4.7896,4.7895,4.7722,4.7277,4.6523,4.5279,4.3603,4.291,4.1951,4.0637,4.0339,4.0349,4.0603,4.0603,4.0969,4.1587,4.1924,4.1887,4.1764,4.2649,4.3006,4.3157,4.3408,4.3432,4.3136,4.2679,4.219,4.1597,4.0896,4.016,3.9337,3.8372,3.7524,3.6904,3.6472,3.6277,3.6277,3.6277,3.6277,3.6277,3.6277,3.6277,3.6105,3.5357,3.4615,3.3518,3.1287,3.0287,2.9392,2.8127,2.7741,2.7655,2.7843,2.7706,2.7586,2.7586,2.7586,0.0,2.7586,2.6951,2.6313,2.5673,2.4426,2.3204,2.2123,0.0,0.0,1.9296,1.8887,1.8487,1.8099,1.8196,1.8315,1.8433,1.8433,1.8433,1.8433,1.8433,1.8433,1.8433,1.8433,1.8692,1.9155,1.9155,1.9413,1.9844,1.9844,1.9844,1.9844,1.9844,1.9844,1.9844,1.9844,1.9844,1.9844,5.0629,5.0366,5.0046,4.9686,5.0245,5.0574,5.0409,5.0925,5.1176,5.0759,5.0523,5.0354,5.0264,5.0676,5.0598,4.9586,4.9591,4.9427,4.8787,4.9082,4.9289,4.9192,4.8424,4.8004,4.8004,4.7029,4.6058,4.489,4.4267,4.3278,4.2158,4.2045,4.1938,4.1755,4.1755,4.2064,4.2598,4.2683,4.2711,4.2767,4.3385,4.3638,4.3602,4.361,4.3614,4.3423,4.2457,4.2065,4.1895,4.1398,4.0262,3.9,3.8792,3.7737,3.6472,3.6386,3.6277,3.6277,3.6277,3.6277,3.6277,3.6277,3.6277,3.6168,3.5598,3.4891,3.3642,3.1556,3.0294,2.9241,2.7991,2.7689,2.786,2.8374,2.8306,2.8254,2.8426,0.0,2.8186,2.8186,2.8186,2.7807,2.6631,2.6408,2.5138,2.2545,2.1912,2.099,0.0,1.8958,1.8545,1.828,1.8336,1.8433,1.8433,1.8433,1.8433,1.8433,1.8433,1.8433,1.8433,1.8476,1.8735,1.9155,1.9187,1.9445,1.9844,1.9844,1.9844,1.9844,1.9844,1.9844,1.9844,1.9844,1.9844,1.9844,5.1323,5.1297,5.1294,5.1357,5.1422,5.1494,5.1444,5.1383,5.1511,5.2006,5.1115,5.0641,5.1245,5.0772,5.0164,4.9521,5.0222,5.0199,4.9044,5.0172,5.0584,4.9969,4.9491,4.9038,4.8731,4.7356,4.6462,4.626,4.5657,4.4863,4.4141,4.3545,4.2995,4.243,4.243,4.2486,4.2598,4.3132,4.3357,4.3413,4.4031,4.4256,4.4191,4.3776,4.3328,4.297,4.2289,4.1796,4.1398,4.1324,4.0694,3.975,3.9,3.8161,3.7203,3.6472,3.6277,3.6277,3.6277,3.6277,3.6277,3.6277,3.6277,3.6277,3.6168,3.5708,3.4668,3.2752,3.1663,3.0509,2.8782,2.8369,2.8443,2.947,2.8819,2.8528,2.9504,0.0,2.8186,2.8186,2.8186,2.806,2.7933,2.7035,2.5882,2.4173,2.2943,2.1495,2.0051,1.9356,1.8927,1.8798,1.8552,1.8433,1.8433,1.8433,1.8433,1.8433,1.8433,1.8433,1.8444,1.8638,1.8885,1.9165,1.9359,1.9596,1.9844,1.9844,1.9844,1.9844,1.9844,1.9844,1.9844,1.9844,1.9844,1.9844,5.2279,5.2178,5.2064,5.175,5.1708,5.1658,5.1505,5.1402,5.1299,5.1294,5.1123,5.1106,5.1315,5.1062,5.0909,5.066,5.0783,5.068,5.0269,5.0811,5.1038,5.0714,5.0077,4.9457,4.8711,4.7738,4.7127,4.7127,4.6517,4.5604,4.4604,4.4264,4.3776,4.3076,4.3076,4.3273,4.3582,4.3863,4.3975,4.4003,4.4312,4.4425,4.4303,4.3804,4.3519,4.3232,4.2679,4.219,4.1696,4.1696,4.0668,3.9337,3.8896,3.795,3.6796,3.6363,3.6277,3.6277,3.6277,3.6277,3.6277,3.6277,3.6277,3.6277,3.6277,3.6036,3.5202,3.2892,3.2125,3.1093,2.88,2.8442,2.8697,2.9179,2.9008,2.8974,2.9504,2.9128,2.8802,2.8802,2.8802,2.8802,2.8802,2.8274,2.7441,2.5973,2.4501,2.2969,2.1333,2.0237,1.9413,1.8993,1.8573,1.8433,1.8433,1.8433,1.8433,1.8433,1.8433,1.8433,1.8444,1.8681,1.8918,1.9165,1.9402,1.9628,1.9844,1.9844,1.9844,1.9844,1.9844,1.9844,1.9844,1.9844,1.9844,1.9844,5.2937,5.2806,5.2581,5.1822,5.1708,5.1658,5.1454,5.135,5.1176,5.092,5.122,5.15,5.1474,5.152,5.1592,5.1664,5.1243,5.1067,5.121,5.1199,5.1199,5.1199,5.048,4.9661,4.8769,4.8275,4.7916,4.7835,4.7311,4.6386,4.5047,4.5047,4.4559,4.3722,4.3722,4.3975,4.4425,4.4425,4.4425,4.4425,4.4425,4.4425,4.4303,4.3804,4.3586,4.3519,4.3067,4.2582,4.2065,4.2065,4.0743,3.9104,3.8896,3.7737,3.658,3.6363,3.6277,3.6277,3.6277,3.6277,3.6277,3.6277,3.6277,3.6277,3.6277,3.6277,3.5576,3.3212,3.2416,3.148,2.9101,2.8535,2.8633,2.8948,0.0,2.9282,2.9539,2.9419,2.9316,2.9316,2.9316,2.9316,2.9316,2.9316,2.8774,2.7302,2.6084,2.4738,2.2956,2.1734,2.0641,1.9529,1.8843,1.8433,1.8433,1.8433,1.8433,1.8433,1.8433,1.8433,1.8444,1.8735,1.8972,1.9165,1.9456,1.9682,1.9844,1.9844,1.9844,1.9844,1.9844,1.9844,1.9844,1.9844,1.9844,1.9844,5.2937,5.2806,5.2581,5.1822,5.1708,5.1672,5.1708,5.1454,5.1546,5.2166,5.1815,5.179,5.2521,5.2047,5.1664,5.1698,5.1415,5.121,5.1167,5.1199,5.1199,5.1199,5.0679,5.0058,4.9291,4.9228,4.8953,4.8543,4.8481,4.7752,4.6344,4.6344,4.5602,4.434,4.434,4.4369,4.4425,4.4425,4.4425,4.4425,4.4425,4.4425,4.4303,4.3804,4.3586,4.3519,4.3067,4.2582,4.2065,4.2065,4.1172,3.9853,3.9,3.8161,3.7311,3.6472,3.6277,3.6277,3.6277,3.6277,3.6277,3.6277,3.6277,3.6277,3.6277,3.6277,3.5927,3.458,3.3212,3.1727,3.0353,2.9083,2.8515,2.9501,0.0,0.0,3.0206,2.9744,2.9316,2.9316,2.9316,2.9316,2.9316,2.9316,2.8774,2.7302,2.7169,2.6352,2.4873,2.4303,2.3202,2.1158,1.939,1.8433,1.8433,1.8433,1.8433,1.8433,1.8433,1.8433,1.8455,1.8918,1.9133,1.9176,1.9628,1.9833,1.9844,1.9844,1.9844,1.9844,1.9844,1.9844,1.9844,1.9844,1.9844,1.9844,5.3193,5.3109,5.2857,5.2126,5.203,5.1933,5.1722,5.1505,5.1317,5.144,5.1424,5.1709,5.2295,5.1579,5.1396,5.2334,5.1211,5.0714,5.1167,5.1199,5.1092,5.0755,5.0602,5.0136,4.9372,4.9291,4.9015,4.8604,4.8604,4.7904,4.6491,4.6491,4.5718,4.4425,4.4425,4.4425,4.4425,4.4425,4.4425,4.4425,4.4425,4.4425,4.4425,4.4209,4.4115,4.4115,4.3926,4.3259,4.2582,4.2582,4.1471,4.0058,3.975,3.8687,3.7311,3.658,3.6277,3.6277,3.6277,3.6277,3.6277,3.6277,3.6277,3.6277,3.6277,3.6277,3.5927,3.4692,3.3438,3.2052,3.0548,2.9269,2.8518,2.8706,0.0,2.8922,2.935,2.935,2.9316,2.9316,2.9316,2.9316,2.9316,2.9316,2.9053,2.851,2.77,2.6902,2.6352,2.4317,2.2669,2.1859,1.9808,1.8714,1.8433,1.8433,1.8433,1.8433,1.8433,1.8433,1.8455,1.8928,1.9155,1.9176,1.9639,1.9844,1.9844,1.9844,1.9844,1.9844,1.9844,1.9844,1.9844,1.9844,1.9844,1.9844,5.3359,5.3318,5.3072,5.2325,5.2185,5.2078,5.1722,5.1683,5.1494,5.1034,5.1494,5.1987,5.2329,5.1673,5.1731,5.2942,5.163,5.0913,5.1434,5.1317,5.1092,5.0755,5.0602,5.0214,4.9501,4.934,4.9015,4.8604,4.8604,4.7904,4.6491,4.6491,4.5718,4.4425,4.4425,4.4425,4.4425,4.4425,4.4425,4.4425,4.4425,4.4425,4.4425,4.4425,4.4425,4.4425,4.4209,4.3642,4.2873,4.2679,4.1696,4.0389,4.0185,3.8896,3.7311,3.658,3.6277,3.6277,3.6277,3.6277,3.6277,3.6277,3.6277,3.6277,3.6277,3.6277,3.6059,3.5268,3.3754,3.2281,3.1129,2.9517,2.8306,2.7922,2.8351,2.8597,2.8597,2.9008,2.9316,2.9316,2.9316,2.9316,2.9316,2.9316,2.9316,2.9316,2.8378,2.7833,2.7833,2.4858,2.3092,2.2942,2.0641,1.9133,1.8854,1.8573,1.8433,1.8433,1.8433,1.8433,1.8455,1.8928,1.9155,1.9176,1.9639,1.9844,1.9844,1.9844,1.9844,1.9844,1.9844,1.9844,1.9844,1.9844,1.9844,1.9844,5.3359,5.3318,5.3072,5.2325,5.2185,5.2078,5.1722,5.2109,5.2113,5.1405,5.2116,5.2695,5.2729,5.2563,5.2867,5.3649,5.2627,5.1987,5.1987,5.154,5.1199,5.1199,5.0755,5.0292,4.9931,4.9533,4.9097,4.8604,4.8604,4.7904,4.6491,4.6491,4.5718,4.4425,4.4425,4.4425,4.4425,4.4425,4.4425,4.4425,4.4425,4.4425,4.4425,4.4425,4.4425,4.4303,4.3804,4.3328,4.2776,4.2289,4.1696,4.1123,4.0389,3.8896,3.7311,3.658,3.6277,3.6277,3.6277,3.6277,3.6277,3.6277,3.6277,3.6277,3.6277,3.6277,3.6277,3.6277,3.4314,3.2509,3.2301,2.9865,2.79,2.7521,2.7937,2.8186,2.8186,2.8837,2.9299,2.9299,2.9299,2.9299,2.9316,2.9316,2.9316,2.9316,2.9316,2.9316,2.9316,2.662,2.4858,2.4424,2.1596,1.997,1.9541,1.8854,1.8433,1.8433,1.8433,1.8433,1.8455,1.8928,1.9155,1.9176,1.9639,1.9844,1.9844,1.9844,1.9844,1.9844,1.9844,1.9844,1.9844,1.9844,1.9844,1.9844,5.3678,5.3639,5.3404,5.2725,5.259,5.2408,5.1772,5.1683,5.167,5.1809,5.1354,5.1605,5.3056,5.2301,5.2225,5.3581,5.2627,5.1842,5.1466,5.1317,5.1199,5.1199,5.1092,5.0634,4.9931,4.9773,4.934,4.8604,4.8604,4.7904,4.6491,4.6491,4.5718,4.4425,4.4425,4.4425,4.4425,4.4425,4.4425,4.4425,4.4425,4.4425,4.4425,4.4425,4.4425,4.4303,4.3804,4.3328,4.2776,4.2289,4.1696,4.0997,3.9647,3.8792,3.8161,3.6688,3.6277,3.6277,3.6277,3.6277,3.6277,3.6277,3.6277,3.6277,3.6277,3.6277,3.6036,3.5268,3.3776,3.2281,3.1381,2.9412,2.802,2.79,2.7835,2.7775,2.7775,2.8203,2.8631,2.8905,2.8939,2.9042,2.9282,2.9316,2.9316,2.9316,2.9316,2.9316,2.9316,2.7567,2.595,2.4858,2.2682,2.1057,1.997,1.9133,1.8854,1.8854,1.8573,1.8519,1.8692,1.9004,1.9241,1.9413,1.9714,1.9844,1.9844,1.9844,1.9844,1.9844,1.9844,1.9844,1.9844,1.9844,1.9844,1.9844,5.3794,5.3794,5.36,5.2937,5.2806,5.2536,5.1822,5.1805,5.1847,5.1758,5.1535,5.1882,5.3013,5.2585,5.2648,5.3943,5.2974,5.1987,5.1242,5.1199,5.1199,5.1199,5.1199,5.0864,5.0136,4.9852,4.9421,4.8852,4.8687,4.7904,4.6491,4.6491,4.5718,4.4425,4.4425,4.4425,4.4425,4.4425,4.4425,4.4425,4.4425,4.4425,4.4425,4.4425,4.4425,4.4303,4.3804,4.3423,4.3067,4.236,4.1498,4.0593,3.9208,3.8582,3.8056,3.6688,3.6277,3.6277,3.6277,3.6277,3.6277,3.6277,3.6277,3.6277,3.6277,3.6277,3.5927,3.4692,3.3551,3.2166,3.0801,2.9313,2.814,2.79,2.7852,2.7727,2.7604,2.7946,2.834,2.8734,2.8785,2.8922,2.9282,2.9316,2.9316,2.9316,2.9316,2.9316,2.9316,2.7965,2.6486,2.5008,2.3365,2.1734,2.0388,1.9692,1.9413,1.9262,1.8982,1.8975,1.9217,1.947,1.9713,1.9955,2.0197,2.0307,2.0145,2.0145,1.9995,1.9844,1.9844,1.9844,1.9844,1.9844,1.9844,1.9844,5.3794,5.3794,5.36,5.2937,5.2806,5.2536,5.1822,5.2315,5.2426,5.1475,5.2302,5.2914,5.2799,5.316,5.3701,5.4362,5.3382,5.2274,5.1242,5.1199,5.1199,5.1199,5.1199,5.1016,5.0525,4.9741,4.9372,4.9291,4.8852,4.7904,4.6491,4.6491,4.5718,4.4425,4.4425,4.4425,4.4425,4.4425,4.4425,4.4425,4.4425,4.4425,4.4425,4.4425,4.4425,4.4303,4.3804,4.3586,4.3396,4.2457,4.1272,3.9955,3.9104,3.8161,3.7311,3.658,3.6277,3.6277,3.6277,3.6277,3.6277,3.6277,3.6277,3.6277,3.6277,3.6277,3.5927,3.458,3.3417,3.2146,3.0432,2.9313,2.8277,2.7642,2.7835,2.7939,2.7552,2.786,2.8237,2.8631,2.87,2.8871,2.923,2.9299,2.9316,2.9316,2.9316,2.9316,2.9316,2.8097,2.662,2.5008,2.3638,2.2284,2.0665,2.0527,2.011,1.968,1.9541,1.9689,1.9975,2.0203,2.0443,2.0717,2.0968,2.091,2.0597,2.0597,2.0296,1.9995,1.9995,1.9995,1.9995,1.9844,1.9844,1.9844,5.3794,5.3794,5.36,5.2937,5.2806,5.2536,5.1822,5.1699,5.1688,5.1825,5.1864,5.2184,5.3134,5.3349,5.3513,5.3847,5.2836,5.1948,5.1242,5.1199,5.1199,5.1199,5.1199,5.1016,5.0525,4.9979,4.9613,4.9291,4.8852,4.7904,4.6491,4.6491,4.5718,4.4425,4.4425,4.4425,4.4425,4.4425,4.4425,4.4425,4.4425,4.4425,4.4425,4.4425,4.4425,4.4303,4.3804,4.3586,4.3396,4.2457,4.1445,4.0414,3.9208,3.8161,3.7311,3.658,3.6277,3.6277,3.6277,3.6277,3.6277,3.6277,3.6277,3.6277,3.6277,3.6277,3.5685,3.3417,3.2851,3.1937,2.9648,2.8856,2.8397,2.802,2.7712,2.754,2.7314,2.7261,2.745,2.7809,2.8134,2.8477,2.8854,2.9145,2.9316,2.9316,2.9316,2.9316,2.9316,2.9036,2.77,2.5143,2.4738,2.3243,2.0665,2.1747,2.1471,1.997,1.968,1.9781,2.0226,2.0272,2.0546,2.098,2.1048,2.1071,2.091,2.091,2.091,2.0759,2.0447,2.0447,2.0296,1.9995,1.9844,1.9844,5.3794,5.3794,5.36,5.2937,5.2806,5.2536,5.1822,5.1607,5.1651,5.211,5.2257,5.2579,5.3463,5.3763,5.3764,5.3315,5.2487,5.1802,5.1275,5.1199,5.1199,5.1199,5.1199,5.1092,5.0864,5.037,4.99,4.9291,4.8852,4.7904,4.6491,4.6491,4.5718,4.4425,4.4425,4.4425,4.4425,4.4425,4.4425,4.4425,4.4425,4.4425,4.4425,4.4425,4.4425,4.4397,4.4115,4.3804,4.3491,4.3039,4.1617,4.0109,3.939,3.8161,3.6796,3.6363,3.6277,3.6277,3.6277,3.6277,3.6277,3.6277,3.6277,3.6277,3.6277,3.6277,3.5576,3.3077,3.2623,3.1822,2.9431,2.8874,2.8636,2.8277,2.802,2.7642,2.7297,2.7194,2.721,2.7569,2.7792,2.8134,2.8717,2.9111,2.9316,2.9316,2.9316,2.9316,2.9316,2.9316,2.823,2.6084,2.6084,2.5008,2.2709,2.3515,2.3365,2.2435,2.1596,2.134,2.1869,2.1174,2.1167,2.166,2.166,2.1522,2.136,2.136,2.1222,2.1071,2.091,2.0759,2.0759,2.0609,2.0307,2.0145,5.3794,5.3794,5.36,5.2937,5.2806,5.2536,5.1822,5.1658,5.177,5.2165,5.267,5.3172,5.353,5.4005,5.3815,5.2905,5.2203,5.1655,5.1242,5.1199,5.1199,5.1199,5.1199,5.1167,5.1092,5.0679,5.0136,4.9421,4.8934,4.7988,4.6667,4.6667,4.5987,4.4583,4.4583,4.449,4.4425,4.4425,4.4425,4.4425,4.4425,4.4425,4.4425,4.4425,4.4425,4.4425,4.4425,4.4115,4.3709,4.3586,4.1887,3.9802,3.9597,3.8137,3.6386,3.6277,3.6277,3.6277,3.6277,3.6277,3.6277,3.6277,3.6277,3.6277,3.6277,3.6277,3.5576,3.3077,3.2623,3.1822,2.9431,2.8975,2.8874,2.8517,2.8277,2.79,2.7521,2.7297,2.7297,2.7484,2.7621,2.798,2.8717,2.9111,2.9316,2.9316,2.9316,2.9316,2.9316,2.9316,2.8642,2.7302,2.7169,2.6486,2.5008,2.5278,2.5412,2.5412,2.391,2.3278,2.3572,2.2456,2.2056,2.2259,2.2259,2.2109,2.181,2.181,2.166,2.136,2.1222,2.1222,2.1222,2.106,2.0759,2.0447,5.3794,5.3794,5.36,5.2937,5.2806,5.2536,5.1822,5.1505,5.1386,5.144,5.2222,5.2764,5.2834,5.2963,5.2974,5.2836,5.1875,5.1242,5.1167,5.1199,5.1199,5.1199,5.1199,5.1016,5.0602,5.0525,5.0292,4.9852,4.9421,4.8604,4.7478,4.7478,4.6697,4.5321,4.5321,4.4954,4.4425,4.4425,4.4425,4.4425,4.4425,4.4425,4.4425,4.4425,4.4425,4.4425,4.4425,4.4303,4.4209,4.3804,4.2306,4.049,3.9802,3.8243,3.658,3.6386,3.6277,3.6277,3.6277,3.6277,3.6277,3.6277,3.6277,3.6277,3.6277,3.6277,3.5576,3.3077,3.2623,3.1822,2.9431,2.8975,2.8874,2.8517,2.8397,2.8259,2.7642,2.7521,2.7435,2.7141,2.7723,2.8289,2.8734,2.9111,2.9316,2.9316,2.9316,2.9316,2.9316,2.9316,2.8642,2.7302,2.7169,2.6486,2.5008,2.6218,2.6902,2.6902,2.5412,2.4384,2.3572,2.343,2.2891,2.2259,2.2259,2.2259,2.2259,2.2259,2.2259,2.2109,2.181,2.166,2.151,2.0898,2.0597,2.0447,5.3794,5.3794,5.36,5.2937,5.2806,5.2536,5.1822,5.1607,5.1699,5.2125,5.2267,5.2647,5.3486,5.3099,5.2836,5.2836,5.1802,5.1199,5.1199,5.1199,5.1199,5.1199,5.1199,5.1092,5.094,5.0864,5.0557,4.9931,4.9533,4.8687,4.7593,4.7593,4.6901,4.5504,4.5504,4.5046,4.4425,4.4425,4.4425,4.4425,4.4425,4.4425,4.4425,4.4425,4.4425,4.4425,4.4425,4.4425,4.4303,4.3396,4.2084,4.0591,3.9494,3.795,3.6712,3.6386,3.6277,3.6277,3.6277,3.6277,3.6277,3.6277,3.6277,3.6277,3.6277,3.6277,3.5576,3.3077,3.2623,3.1822,2.9431,2.8975,2.8993,2.8755,2.8636,2.8397,2.814,2.7762,2.7401,2.7073,2.7535,2.7929,2.81,2.8665,2.9008,2.9008,2.9196,2.9316,2.9316,2.9316,2.9036,2.8378,2.8378,2.8097,2.7419,2.8097,2.8378,2.8378,2.7911,2.6755,2.4834,2.3158,2.2335,2.2259,2.2259,2.2259,2.2259,2.2259,2.2259,2.2259,2.2109,2.2109,2.196,2.106,2.091,2.0759]}]]